[[[{"header":{"parameterUnit":"kt","parameterCategory":2,"dx":1,"dy":1,"la1":29.285339999999998,"la2":30.599998999999997,"lo1":-89.70041500000002,"lo2":-87.6738589999976,"nx":112,"ny":82,"refTime":"2022-11-02T00:00:00:Z","depth":0,"parameterNumber":1,"parameterNumberName":"U-component_of_WINDS"},"data":[-10.9702,-11.1098,-11.0633,-10.0919,-9.8566,-9.5888,-8.5621,-8.4633,-8.5758,-8.4807,-8.6552,-8.8937,-9.1238,-8.8123,0.0,0.0,0.0,0.0,0.0,-7.1022,0.0,0.0,0.0,0.0,0.0,0.0,0.0,0.0,0.0,0.0,0.0,-12.2615,-12.2615,-12.2615,-12.3372,-12.4593,-12.6396,-12.7211,-12.849,-13.0235,-13.0235,-13.0235,-13.0235,-13.0235,-13.0235,-13.0235,-13.0235,-13.1224,-13.2911,-13.3783,-13.4365,-13.483,-13.483,-13.483,-13.4656,-13.3318,-13.4481,-13.6808,-13.7564,-13.7797,-13.7797,-13.7797,-13.7797,-13.7797,-13.7797,-13.7797,-13.7622,-13.675,-13.7157,-13.7622,-13.675,-13.7157,-13.7797,-13.7797,-13.7797,-13.7797,-13.7797,-13.7797,-13.7797,-13.7797,-13.7215,-13.6692,-13.6692,-13.5645,-13.4365,-13.3027,-13.1748,-13.0875,-13.0875,-13.0526,-13.0235,-13.0235,-13.0235,-13.0235,-13.0235,-13.0235,-13.0235,-13.0235,-13.0235,-13.0235,-13.0235,-13.0235,-12.747,-12.1675,-12.0383,-11.6877,-11.1107,-10.9799,-10.928,-10.928,-10.928,-10.928,-10.4758,-10.5863,-10.5107,-9.4083,-9.1289,-8.8727,-7.8816,-7.7885,-7.9049,-7.8641,-8.1899,-8.4749,-8.4206,-8.3178,-8.145,0.0,0.0,0.0,0.0,0.0,0.0,0.0,0.0,0.0,0.0,0.0,0.0,0.0,-10.9644,0.0,-12.2092,-12.2615,-12.2615,-12.2615,-12.3779,-12.5058,-12.6396,-12.7676,-12.8956,-13.0235,-13.0235,-13.0235,-13.0235,-13.0235,-13.0235,-13.0235,-13.0235,-13.0933,-13.2213,-13.3551,-13.4365,-13.4714,-13.4307,-13.4365,-13.4598,-13.3318,-13.4191,-13.6226,-13.739,-13.7797,-13.7797,-13.7797,-13.7797,-13.7797,-13.7797,-13.7797,-13.7797,-13.7797,-13.7797,-13.7797,-13.7797,-13.7797,-13.7797,-13.7797,-13.7797,-13.7797,-13.7797,-13.7797,-13.7681,-13.7273,-13.6575,-13.5877,-13.547,-13.3958,-13.2504,-13.1631,-13.0759,-13.0235,-13.0235,-13.0235,-13.0235,-13.0235,-13.0235,-13.0235,-13.0235,-13.0235,-13.0235,-13.0235,-13.0235,-13.0235,-13.0235,-13.0235,-12.8015,-12.3388,-12.0902,-11.7411,-11.2816,-11.0455,-10.928,-10.928,-10.928,-10.928,-9.92,-9.7224,-9.4899,-8.5001,-8.2439,-8.0751,-7.4279,-7.4686,-7.6838,-7.8118,-8.0328,-8.2498,-8.3683,-8.2946,-8.0926,-7.7245,0.0,0.0,0.0,0.0,0.0,0.0,0.0,0.0,0.0,-9.8069,-9.9698,0.0,-10.7318,-10.9237,-12.1917,-12.2615,-12.2615,-12.2615,-12.3779,-12.5058,-12.6396,-12.7676,-12.8956,-13.0235,-13.0235,-13.0235,-13.0235,-13.0235,-13.0235,-13.0235,-13.0235,-13.0933,-13.2155,-13.3493,-13.483,-13.5819,-13.454,-13.483,-13.5761,-13.454,-13.4889,-13.611,-13.7332,-13.7797,-13.7797,-13.7797,-13.7797,-13.7797,-13.7797,-13.7797,-13.7797,-13.7797,-13.7797,-13.7797,-13.7797,-13.7797,-13.7797,-13.7797,-13.7797,-13.7797,-13.7797,-13.7797,-13.7448,-13.6285,-13.5994,-13.5528,-13.4249,-13.1922,-13.0235,-13.0235,-13.0235,-13.0235,-13.0235,-13.0235,-13.0235,-13.0235,-13.0235,-13.0235,-13.0235,-13.0235,-13.0235,-13.0235,-13.0235,-13.0235,-13.0235,-13.0235,-13.0116,-12.9938,-12.3261,-11.9601,-11.934,-11.2539,-10.928,-10.928,-10.928,-10.928,-8.9437,-8.9901,-9.0715,-8.5098,-8.3004,-8.1217,-7.6606,-7.393,-7.3116,-7.5268,-7.55,0.0,0.0,0.0,-7.5617,-7.6419,0.0,-8.0343,0.0,-8.2888,0.0,0.0,0.0,0.0,0.0,-10.819,-11.1157,-11.9358,-11.4007,-11.3949,-12.215,-12.2615,-12.2615,-12.2615,-12.3779,-12.5058,-12.6396,-12.7676,-12.8956,-13.0235,-13.0235,-13.0235,-13.0235,-13.0235,-13.0235,-13.0235,-13.0235,-13.041,-13.0817,-13.2155,-13.3434,-13.454,-13.3202,-13.2911,-13.3144,-13.2795,-13.3493,-13.483,-13.611,-13.7099,-13.7797,-13.7797,-13.7797,-13.7797,-13.7797,-13.7797,-13.7797,-13.7797,-13.7797,-13.7797,-13.7797,-13.7797,-13.7797,-13.7797,-13.7797,-13.7797,-13.7797,-13.7797,-13.7448,-13.6285,-13.5296,-13.4249,-13.2911,-13.1282,-13.0235,-13.0235,-13.0235,-13.0235,-13.0235,-13.0235,-13.0235,-13.0235,-13.0235,-13.0235,-13.0235,-13.0235,-13.0235,-13.0235,-13.0235,-13.0235,-13.0235,-13.0235,-12.7836,-12.2753,-12.0772,-11.7278,-11.2173,-11.0173,-10.928,-10.928,-10.928,-10.928,-8.6647,-8.6589,-8.7366,-8.287,-8.248,-8.1433,-7.4919,-7.2941,-7.2708,-7.3639,0.0,0.0,0.0,0.0,0.0,0.0,-8.0852,0.0,0.0,0.0,-9.6382,0.0,0.0,0.0,-11.2378,-11.2843,-11.5635,-12.215,-11.6624,-11.581,-12.2266,-12.2615,-12.2615,-12.2615,-12.3779,-12.5058,-12.6396,-12.7676,-12.8956,-13.0235,-13.0235,-13.0235,-13.0235,-13.0235,-13.0235,-13.0235,-13.0235,-13.0235,-13.0293,-13.1573,-13.2562,-13.3144,-13.1864,-13.1631,-13.2097,-13.2097,-13.2969,-13.4307,-13.5587,-13.6808,-13.7797,-13.7797,-13.7797,-13.7797,-13.7797,-13.7797,-13.7797,-13.7797,-13.7797,-13.7797,-13.7797,-13.7797,-13.7797,-13.7797,-13.7797,-13.7797,-13.7797,-13.7448,-13.6692,-13.547,-13.4191,-13.2853,-13.1573,-13.0701,-13.0235,-13.0235,-13.0235,-13.0235,-13.0235,-13.0235,-13.0235,-13.0235,-13.0235,-13.0235,-13.0235,-13.0235,-13.0235,-13.0235,-13.0235,-13.0235,-13.0235,-13.0235,-12.8379,-12.4201,-12.116,-11.7757,-11.3591,-11.0736,-10.928,-10.928,-10.928,-10.928,-8.6843,-8.4807,-8.3818,-7.9572,-8.0735,-8.072,-7.2592,0.0,-7.5093,-7.5093,0.0,-7.55,-7.8292,0.0,0.0,-7.7362,-8.4458,-8.9111,-8.6668,-9.5219,-10.2606,-10.4875,-11.4472,-11.9591,-11.6101,-11.4763,-11.645,-12.2208,-11.7322,-11.6566,-12.2325,-12.2615,-12.2615,-12.2615,-12.3662,-12.4884,-12.6396,-12.7501,-12.8781,-13.0235,-13.0235,-13.0235,-13.0235,-13.0235,-13.0235,-13.0235,-13.0235,-13.0235,-13.0293,-13.1457,-13.198,-13.198,-13.0875,-13.1108,-13.2155,-13.2329,-13.3085,-13.4307,-13.5587,-13.6808,-13.7797,-13.7681,-13.7622,-13.7622,-13.7622,-13.7739,-13.7797,-13.7797,-13.7797,-13.7797,-13.7797,-13.7797,-13.7797,-13.7797,-13.7797,-13.7797,-13.7622,-13.6808,-13.5587,-13.4191,-13.2969,-13.1748,-13.0468,-13.0235,-13.0235,-13.0235,-13.0235,-13.0235,-13.0235,-13.0235,-13.0235,-13.0235,-13.0235,-13.0235,-13.0235,-13.0235,-13.0235,-13.0235,-13.0235,-13.0235,-13.0235,-13.0235,-13.0058,-12.9699,-12.3134,-11.9601,-11.9077,-11.2539,-10.928,-10.928,-10.928,-10.928,-7.8351,-7.6838,-7.7129,-7.8234,-7.6722,-7.6082,0.0,0.0,0.0,-8.8123,-8.8123,-8.7832,-9.1438,-9.1264,-9.1147,-9.2865,-9.8185,-10.1152,0.0,-10.7957,0.0,-11.5752,-11.9649,-12.1976,-12.1219,-12.087,-12.1278,-12.2499,-12.1452,-12.1278,-12.2557,-12.2615,-12.2615,-12.2615,-12.2848,-12.407,-12.6396,-12.6629,-12.7909,-13.0235,-13.0235,-13.0235,-13.0235,-13.0235,-13.0235,-13.0235,-13.0235,-13.0235,-13.0235,-13.0468,-13.1166,-13.2097,-13.1864,-13.1922,-13.2271,-13.3318,-13.39,-13.4307,-13.5587,-13.6808,-13.7681,-13.6692,-13.6343,-13.6343,-13.6343,-13.7041,-13.7797,-13.7797,-13.7797,-13.7797,-13.7797,-13.7797,-13.7797,-13.7797,-13.7797,-13.7564,-13.6575,-13.6168,-13.5354,-13.2969,-13.2329,-13.1748,-13.0468,-13.0235,-13.0235,-13.0235,-13.0235,-13.0235,-13.0235,-13.0235,-13.0235,-13.0235,-13.0235,-13.0235,-13.0235,-13.0235,-13.0235,-13.0235,-13.0235,-13.0235,-13.0235,-13.0235,-12.892,-12.6004,-12.1858,-11.8287,-11.5584,-11.1247,-10.928,-10.928,-10.928,-10.928,-7.5849,-7.4628,-7.4802,-7.5442,-7.5617,0.0,0.0,-7.7071,-7.8758,-8.6573,-8.7076,-8.7948,-9.3851,-9.5335,-9.5975,-9.6615,-10.2141,-10.6794,-10.8016,-11.4298,-11.8776,-11.8776,-12.1045,-12.2615,-12.2615,-12.2615,-12.2615,-12.2615,-12.2615,-12.2615,-12.2615,-12.2615,-12.2615,-12.2615,-12.2615,-12.3837,-12.6396,-12.6396,-12.7676,-13.0235,-13.0235,-13.0235,-13.0235,-13.0235,-13.0235,-13.0235,-13.0235,-13.0235,-13.0235,-13.0235,-13.0584,-13.1166,-13.1166,-13.1166,-13.1282,-13.1922,-13.2562,-13.3318,-13.4598,-13.547,-13.5994,-13.5994,-13.5587,-13.5063,-13.5063,-13.5936,-13.7041,-13.7622,-13.7797,-13.7797,-13.7797,-13.7797,-13.7797,-13.7797,-13.7797,-13.7506,-13.6285,-13.5528,-13.4481,-13.2504,-13.1631,-13.0933,-13.0352,-13.0235,-13.0235,-13.0235,-13.0235,-13.0235,-13.0235,-13.0235,-13.0235,-13.0235,-13.0235,-13.0235,-13.0235,-13.0235,-13.0235,-13.0235,-13.0235,-13.0235,-13.0235,-13.0235,-12.9402,-12.7592,-12.2498,-11.8814,-11.7144,-11.1895,-10.928,-10.928,-10.928,-10.928,-7.4686,-7.393,-7.3814,-7.3523,-7.5268,0.0,-7.5675,-7.6373,-7.9223,-8.6224,-8.7854,-9.0008,-9.6382,-9.9465,-10.0687,-9.964,-10.47,-11.0226,-11.4298,-11.7148,-11.8776,-11.8776,-12.1045,-12.2615,-12.2615,-12.2615,-12.2615,-12.2615,-12.2615,-12.2615,-12.2615,-12.2615,-12.2615,-12.2615,-12.2615,-12.3837,-12.6396,-12.6396,-12.7676,-13.0235,-13.0235,-13.0235,-13.0235,-13.0235,-13.0235,-13.0235,-13.0235,-13.0235,-13.0235,-13.0235,-13.0352,-13.0584,-13.0584,-13.0584,-13.0584,-13.0584,-13.1224,-13.2271,-13.3376,-13.39,-13.4249,-13.5005,-13.4598,-13.3725,-13.3725,-13.4656,-13.5936,-13.7157,-13.7622,-13.7797,-13.7797,-13.7797,-13.7797,-13.7797,-13.7797,-13.7448,-13.5994,-13.483,-13.3667,-13.2038,-13.0933,-13.0235,-13.0235,-13.0235,-13.0235,-13.0235,-13.0235,-13.0235,-13.0235,-13.0235,-13.0235,-13.0235,-13.0235,-13.0235,-13.0235,-13.0235,-13.0235,-13.0235,-13.0235,-13.0235,-13.0235,-13.0235,-13.0235,-13.0235,-12.4703,-12.116,-11.9732,-11.4003,-11.0596,-10.928,-10.928,-10.928,-7.1138,-7.1312,-7.2127,-7.5384,-7.3988,0.0,-8.8297,-8.8879,-9.0275,-10.3573,-10.7027,-10.8423,-11.0459,-11.2029,-11.296,-11.2785,-11.3483,-11.4239,-11.4821,-11.7148,-11.8776,-11.8776,-12.1045,-12.2615,-12.2615,-12.2615,-12.2615,-12.2615,-12.2615,-12.2615,-12.2615,-12.2615,-12.2615,-12.2615,-12.2615,-12.3837,-12.6396,-12.6396,-12.7676,-13.0235,-13.0235,-13.0235,-13.0235,-13.0235,-13.0235,-13.0235,-13.0235,-13.0235,-13.0235,-13.0235,-13.0875,-13.1922,-13.1922,-13.1922,-13.1922,-13.1922,-13.198,-13.2155,-13.2329,-13.3144,-13.3958,-13.2911,-13.2446,-13.2329,-13.2329,-13.326,-13.4598,-13.5877,-13.6983,-13.7797,-13.7797,-13.7797,-13.7797,-13.7797,-13.7797,-13.7157,-13.483,-13.4249,-13.3376,-13.0933,-13.0293,-13.0235,-13.0235,-13.0235,-13.0235,-13.0235,-13.0235,-13.0235,-13.0235,-13.0235,-13.0235,-13.0235,-13.0235,-13.0235,-13.0235,-13.0235,-13.0235,-13.0235,-13.0235,-13.0235,-13.0235,-13.0235,-13.0235,-13.0235,-12.9459,-12.6004,-11.9732,-11.8946,-11.5449,-10.928,-10.928,-10.928,-6.9684,-6.98,-7.0382,-7.2708,0.0,0.0,-8.5409,-8.7599,-9.1031,-10.1443,-10.4584,-10.6736,-11.104,-11.3483,-11.4879,-11.4879,-11.4879,-11.4879,-11.4879,-11.7148,-11.8776,-11.8776,-12.1045,-12.2615,-12.2615,-12.2615,-12.2615,-12.2615,-12.2615,-12.2615,-12.2615,-12.2615,-12.2615,-12.2615,-12.2615,-12.3837,-12.6396,-12.6396,-12.7676,-13.0235,-13.0235,-13.0235,-13.0235,-13.0235,-13.0235,-13.0235,-13.0235,-13.0235,-13.0235,-13.0235,-13.0526,-13.0991,-13.0991,-13.0991,-13.0991,-13.0991,-13.0991,-13.1108,-13.1864,-13.198,-13.1864,-13.2038,-13.1631,-13.0991,-13.0991,-13.1922,-13.326,-13.454,-13.5819,-13.6924,-13.7622,-13.7797,-13.7622,-13.6924,-13.6808,-13.611,-13.3493,-13.2969,-13.2446,-13.0584,-13.0235,-13.0235,-13.0235,-13.0235,-13.0235,-13.0235,-13.0235,-13.0235,-13.0235,-13.0235,-13.0235,-13.0235,-13.0235,-13.0235,-13.0235,-13.0235,-13.0235,-13.0235,-13.0235,-13.0235,-13.0235,-13.0235,-13.0235,-13.0235,-13.0235,-12.7836,-12.2753,-12.2753,-11.9208,-11.2312,-11.0173,-10.928,-6.8928,0.0,0.0,0.0,0.0,0.0,-8.6922,-8.946,-9.2776,-10.0163,-10.2955,-10.5514,-11.011,-11.3134,-11.4879,-11.4879,-11.4879,-11.4879,-11.4879,-11.7148,-11.8776,-11.8776,-12.1045,-12.2615,-12.2615,-12.2615,-12.2615,-12.2615,-12.2615,-12.2615,-12.2615,-12.2615,-12.2615,-12.2615,-12.2615,-12.3837,-12.6396,-12.6396,-12.7676,-13.0235,-13.0235,-13.0235,-13.0235,-13.0235,-13.0235,-13.0235,-13.0235,-13.0235,-13.0235,-13.0235,-13.0235,-13.0235,-13.0235,-13.0235,-13.0235,-13.0235,-13.0235,-13.0352,-13.1282,-13.0991,-13.0352,-13.1282,-13.0991,-13.0235,-13.0235,-13.1108,-13.2329,-13.3318,-13.4481,-13.5703,-13.6575,-13.6808,-13.6575,-13.5703,-13.5528,-13.4889,-13.262,-13.1864,-13.134,-13.041,-13.0235,-13.0235,-13.0235,-13.0235,-13.0235,-13.0235,-13.0235,-13.0235,-13.0235,-13.0235,-13.0235,-13.0235,-13.0235,-13.0235,-13.0235,-13.0235,-13.0235,-13.0235,-13.0235,-13.0235,-13.0235,-13.0235,-13.0235,-13.0235,-13.0235,-12.85,-12.4953,-12.4953,-12.1858,-11.5802,-11.2262,-11.0173,0.0,0.0,0.0,-8.1882,-8.3062,-8.5933,-9.9731,-9.9989,-9.9142,-10.5689,-10.9004,-11.0749,-11.0924,-11.3134,-11.4879,-11.4879,-11.4879,-11.4879,-11.4879,-11.7148,-11.8776,-11.8776,-12.1045,-12.2615,-12.2615,-12.2615,-12.2615,-12.2615,-12.2615,-12.2615,-12.2615,-12.2615,-12.2615,-12.2615,-12.2615,-12.3837,-12.6396,-12.6396,-12.7676,-13.0235,-13.0235,-13.0235,-13.0235,-13.0235,-13.0235,-13.0235,-13.0235,-13.0235,-13.0235,-13.0235,-13.0235,-13.0235,-13.0235,-13.0235,-13.0235,-13.0235,-13.0235,-13.0235,-13.0235,-13.0235,-13.0235,-13.0235,-13.0235,-13.0235,-13.0235,-13.1108,-13.2097,-13.2155,-13.3144,-13.4191,-13.4249,-13.4249,-13.4249,-13.4191,-13.4191,-13.3783,-13.2446,-13.1166,-13.0235,-13.0235,-13.0235,-13.0235,-13.0235,-13.0235,-13.0235,-13.0235,-13.0235,-13.0235,-13.0235,-13.0235,-13.0235,-13.0235,-13.0235,-13.0235,-13.0235,-13.0235,-13.0235,-13.0235,-13.0235,-13.0235,-13.0235,-13.0235,-13.0235,-13.0235,-13.0235,-12.85,-12.4953,-12.4953,-12.3134,-11.9471,-11.5937,-11.2539,-7.3057,-7.4618,-7.7129,-8.4865,-8.9053,-9.3035,-9.9349,-10.249,-10.4642,-10.6852,-10.8597,-11.0051,-11.0808,-11.2436,-11.389,-11.4763,-11.4879,-11.4879,-11.4879,-11.7148,-11.8776,-11.8776,-12.1045,-12.2615,-12.2615,-12.2615,-12.2615,-12.2615,-12.2615,-12.2615,-12.2615,-12.2615,-12.2615,-12.2615,-12.2615,-12.343,-12.5058,-12.6803,-12.8083,-12.8956,-12.9828,-13.0235,-13.0235,-13.0235,-13.0235,-13.0235,-13.0235,-13.0235,-13.0235,-13.0235,-13.0235,-13.0235,-13.0235,-13.0235,-13.0235,-13.0235,-13.0235,-13.0235,-13.0235,-13.0235,-13.0235,-13.0235,-13.0235,-13.0235,-13.0235,-13.0526,-13.105,-13.1864,-13.2446,-13.3027,-13.39,-13.4132,-13.39,-13.3027,-13.2795,-13.2446,-13.1166,-13.0526,-13.0235,-13.0235,-13.0235,-13.0235,-13.0235,-13.0235,-13.0235,-13.0235,-13.0235,-13.0235,-13.0235,-13.0235,-13.0235,-13.0235,-13.0235,-13.0235,-13.0235,-13.0235,-13.0235,-13.0235,-13.0235,-13.0235,-13.0235,-13.0235,-13.0235,-13.0235,-13.0235,-12.9699,-12.85,-12.85,-12.6677,-12.3134,-11.9601,-11.6072,-7.5268,-7.7304,-8.0037,-8.8646,-9.3997,-9.8069,-10.1559,-10.4875,-10.7259,-10.7259,-10.8306,-10.9528,-11.0749,-11.168,-11.2843,-11.4588,-11.4879,-11.4879,-11.4879,-11.7148,-11.8776,-11.8776,-12.1045,-12.2615,-12.2615,-12.2615,-12.2615,-12.2615,-12.2615,-12.2615,-12.2615,-12.2615,-12.2615,-12.2615,-12.2615,-12.2964,-12.3721,-12.6338,-12.8083,-12.9014,-12.9828,-13.0235,-13.0235,-13.0235,-13.0235,-13.0235,-13.0235,-13.0235,-13.0235,-13.0235,-13.0235,-13.0235,-13.0235,-13.0235,-13.0235,-13.0235,-13.0235,-13.0235,-13.0235,-13.0235,-13.0235,-13.0235,-13.0235,-13.0235,-13.0235,-13.0235,-13.041,-13.1224,-13.1457,-13.1631,-13.2504,-13.2736,-13.2504,-13.1631,-13.1457,-13.1224,-13.041,-13.0235,-13.0235,-13.0235,-13.0235,-13.0235,-13.0235,-13.0235,-13.0235,-13.0235,-13.0235,-13.0235,-13.0235,-13.0235,-13.0235,-13.0235,-13.0235,-13.0235,-13.0235,-13.0235,-13.0235,-13.0235,-13.0235,-13.0235,-13.0235,-13.0235,-13.0235,-13.0235,-13.0235,-13.0235,-13.0235,-13.0235,-12.8379,-12.4953,-12.2626,-11.9077,-7.5675,-7.9049,-8.3469,-9.3734,-9.7953,-10.1094,-10.6154,-10.7259,-10.7259,-10.7259,-10.8248,-10.947,-11.0749,-11.0982,-11.1855,-11.4472,-11.4879,-11.4879,-11.4879,-11.7148,-11.8776,-11.8776,-12.1045,-12.2615,-12.2615,-12.2615,-12.2615,-12.2615,-12.2615,-12.2615,-12.2615,-12.2615,-12.2615,-12.2615,-12.2615,-12.2615,-12.2732,-12.5117,-12.756,-13.0119,-13.0177,-13.0235,-13.0235,-13.0235,-13.0235,-13.0235,-13.0235,-13.0235,-13.0235,-13.0235,-13.0235,-13.0235,-13.0235,-13.0235,-13.0235,-13.0235,-13.0235,-13.0235,-13.0235,-13.0235,-13.0235,-13.0235,-13.0235,-13.0235,-13.0235,-13.0235,-13.0235,-13.0235,-13.0235,-13.0235,-13.0235,-13.0235,-13.0235,-13.0235,-13.0235,-13.0235,-13.0235,-13.0235,-13.0235,-13.0235,-13.0235,-13.0235,-13.0235,-13.0235,-13.0235,-13.0235,-13.0235,-13.0235,-13.0235,-13.0235,-13.0235,-13.0235,-13.0235,-13.0235,-13.0235,-13.0235,-13.0235,-13.0235,-13.0235,-13.0235,-13.0235,-13.0235,-13.0235,-13.0235,-13.0235,-13.0235,-13.0235,-13.0235,-12.85,-12.5258,-12.5078,-12.1289,-8.1317,-8.6319,-9.1031,-9.9349,-10.1908,-10.3246,-10.6561,-10.7259,-10.7259,-10.7259,-10.755,-10.8423,-11.0575,-11.0982,-11.1855,-11.4472,-11.4879,-11.4879,-11.4879,-11.7148,-11.8776,-11.8776,-12.1045,-12.2615,-12.2615,-12.2615,-12.2615,-12.2615,-12.2615,-12.2615,-12.2615,-12.2615,-12.2615,-12.2615,-12.2615,-12.3023,-12.3953,-12.4593,-12.6222,-12.8781,-12.977,-13.0235,-13.0235,-13.0235,-13.0235,-13.0235,-13.0235,-13.0235,-13.0235,-13.0235,-13.0235,-13.0235,-13.0235,-13.0235,-13.0235,-13.0235,-13.0235,-13.0235,-13.0235,-13.0235,-13.0235,-13.0235,-13.0235,-13.0235,-13.0235,-13.0235,-13.0235,-13.0235,-13.0235,-13.0235,-13.0235,-13.0235,-13.0235,-13.0235,-13.0235,-13.0235,-13.0235,-13.0235,-13.0235,-13.0235,-13.0235,-13.0235,-13.0235,-13.0235,-13.0235,-13.0235,-13.0235,-13.0235,-13.0235,-13.0235,-13.0235,-13.0235,-13.0235,-13.0235,-13.0235,-13.0235,-13.0235,-13.0235,-13.0235,-13.0235,-13.0235,-13.0235,-13.0235,-13.0235,-13.0235,-13.0235,-13.0235,-13.0235,-12.9819,-12.892,-12.6251,-12.2626,-8.0386,-8.6843,-9.3765,-10.1443,-10.3362,-10.406,-10.6678,-10.7259,-10.7259,-10.7259,-10.7259,-10.7899,-10.9819,-11.0633,-11.168,-11.3716,-11.453,-11.4879,-11.4879,-11.6624,-11.8137,-11.8718,-12.058,-12.1976,-12.2557,-12.2615,-12.2615,-12.2615,-12.2615,-12.2615,-12.2615,-12.2615,-12.2615,-12.2615,-12.2615,-12.2906,-12.3604,-12.4709,-12.6047,-12.7501,-12.9363,-13.0235,-13.0235,-13.0235,-13.0235,-13.0235,-13.0235,-13.0235,-13.0235,-13.0235,-13.0235,-13.0235,-13.0235,-13.0235,-13.0235,-13.0235,-13.0235,-13.0235,-13.0235,-13.0235,-13.0235,-13.0235,-13.0235,-13.0235,-13.0235,-13.0235,-13.0235,-13.0235,-13.0235,-13.0235,-13.0235,-13.0235,-13.0235,-13.0235,-13.0235,-13.0235,-13.0235,-13.0235,-13.0235,-13.0235,-13.0235,-13.0235,-13.0235,-13.0235,-13.0235,-13.0235,-13.0235,-13.0235,-13.0235,-13.0235,-13.0235,-13.0235,-13.0235,-13.0235,-13.0235,-13.0235,-13.0235,-13.0235,-13.0235,-13.0235,-13.0235,-13.0235,-13.0235,-13.0235,-13.0235,-13.0235,-13.0235,-13.0235,-13.0235,-13.0235,-12.8258,-12.4577,-7.8351,-8.5272,-9.3939,-10.1268,-10.3246,-10.4002,-10.6445,-10.7143,-10.7259,-10.7259,-10.7259,-10.7667,-10.9046,-11.0168,-11.1447,-11.2785,-11.4065,-11.4879,-11.4879,-11.5984,-11.7264,-11.866,-11.994,-12.1219,-12.2499,-12.2615,-12.2615,-12.2615,-12.2615,-12.2615,-12.2615,-12.2615,-12.2615,-12.2615,-12.2615,-12.2615,-12.2615,-12.4942,-12.6222,-12.6454,-12.8839,-13.0061,-13.0235,-13.0235,-13.0235,-13.0235,-13.0235,-13.0235,-13.0235,-13.0235,-13.0235,-13.0235,-13.0235,-13.0235,-13.0235,-13.0235,-13.0235,-13.0235,-13.0235,-13.0235,-13.0235,-13.0235,-13.0235,-13.0235,-13.0235,-13.0235,-13.0235,-13.0235,-13.0235,-13.0235,-13.0235,-13.0235,-13.0235,-13.0235,-13.0235,-13.0235,-13.0235,-13.0235,-13.0235,-13.0235,-13.0235,-13.0235,-13.0235,-13.0235,-13.0235,-13.0235,-13.0235,-13.0235,-13.0235,-13.0235,-13.0235,-13.0235,-13.0235,-13.0235,-13.0235,-13.0235,-13.0235,-13.0235,-13.0235,-13.0235,-13.0235,-13.0235,-13.0235,-13.0235,-13.0235,-13.0235,-13.0235,-13.0235,-13.0235,-13.0235,-13.0235,-12.6431,-8.7308,-9.138,-9.487,-10.0396,-10.2606,-10.3769,-10.534,-10.6503,-10.7259,-10.7259,-10.7259,-10.7667,-10.9046,-11.0168,-11.1447,-11.2785,-11.4065,-11.4879,-11.4879,-11.5984,-11.7264,-11.866,-11.994,-12.1219,-12.2499,-12.2615,-12.2615,-12.2615,-12.2615,-12.2615,-12.2615,-12.2615,-12.2615,-12.2615,-12.2615,-12.2615,-12.2615,-12.4011,-12.5291,-12.6454,-12.7909,-12.9188,-13.0235,-13.0235,-13.0235,-13.0235,-13.0235,-13.0235,-13.0235,-13.0235,-13.0235,-13.0235,-13.0235,-13.0235,-13.0235,-13.0235,-13.0235,-13.0235,-13.0235,-13.0235,-13.0235,-13.0235,-13.0235,-13.0235,-13.0235,-13.0235,-13.0235,-13.0235,-13.0235,-13.0235,-13.0235,-13.0235,-13.0235,-13.0235,-13.0235,-13.0235,-13.0235,-13.0235,-13.0235,-13.0235,-13.0235,-13.0235,-13.0235,-13.0235,-13.0235,-13.0235,-13.0235,-13.0235,-13.0235,-13.0235,-13.0235,-13.0235,-13.0235,-13.0235,-13.0235,-13.0235,-13.0235,-13.0235,-13.0235,-13.0235,-13.0235,-13.0235,-13.0235,-13.0235,-13.0235,-13.0235,-13.0235,-13.0235,-13.0235,-13.0235,-13.0235,-12.6431,-8.3993,-8.8821,-9.359,-9.6731,-10.0454,-10.3711,-10.5049,-10.6387,-10.7259,-10.7259,-10.7259,-10.7492,-10.8074,-10.9702,-11.1215,-11.1855,-11.36,-11.4879,-11.4879,-11.5403,-11.6566,-11.8544,-11.9358,-12.0463,-12.2441,-12.2615,-12.2615,-12.2615,-12.2615,-12.2615,-12.2615,-12.2615,-12.2615,-12.2615,-12.2615,-12.2615,-12.2615,-12.3779,-12.5058,-12.6454,-12.7676,-12.8956,-13.0235,-13.0235,-13.0235,-13.0235,-13.0235,-13.0235,-13.0235,-13.0235,-13.0235,-13.0235,-13.0235,-13.0235,-13.0235,-13.0235,-13.0235,-13.0235,-13.0235,-13.0235,-13.0235,-13.0235,-13.0235,-13.0235,-13.0235,-13.0235,-13.0235,-13.0235,-13.0235,-13.0235,-13.0235,-13.0235,-13.0235,-13.0235,-13.0235,-13.0235,-13.0235,-13.0235,-13.0235,-13.0235,-13.0235,-13.0235,-13.0235,-13.0235,-13.0235,-13.0235,-13.0235,-13.0235,-13.0235,-13.0235,-13.0235,-13.0235,-13.0235,-13.0235,-13.0235,-13.0235,-13.0235,-13.0235,-13.0235,-13.0235,-13.0235,-13.0235,-13.0235,-13.0235,-13.0235,-13.0235,-13.0235,-13.0235,-13.0235,-13.0235,-13.0235,-12.6431,-8.1433,-8.6785,-9.2776,-9.4637,-9.8244,-10.1966,-10.4409,-10.5922,-10.6969,-10.7201,-10.7085,-10.6969,-10.7201,-10.8888,-11.0342,-11.0924,-11.296,-11.4588,-11.4821,-11.4879,-11.5868,-11.8486,-11.8776,-11.9823,-12.2383,-12.2615,-12.2615,-12.2615,-12.2615,-12.2615,-12.2615,-12.2615,-12.2615,-12.2615,-12.2615,-12.2615,-12.2615,-12.3546,-12.4651,-12.5989,-12.7269,-12.8548,-12.9828,-12.9828,-12.9828,-12.9828,-12.9828,-12.9944,-13.0235,-13.0235,-13.0235,-13.0235,-13.0235,-13.0235,-13.0235,-13.0235,-13.0235,-13.0235,-13.0235,-13.0235,-13.0235,-13.0235,-13.0235,-13.0235,-13.0235,-13.0235,-13.0235,-13.0235,-13.0235,-13.0235,-13.0235,-13.0235,-13.0235,-13.0235,-13.0235,-13.0235,-13.0235,-13.0235,-13.0235,-13.0235,-13.0235,-13.0235,-13.0235,-13.0235,-13.0235,-13.0235,-13.0235,-13.0235,-13.0235,-13.0235,-13.0235,-13.0235,-13.0235,-13.0235,-13.0235,-13.0235,-13.0235,-13.0235,-13.0235,-13.0235,-13.0235,-13.0235,-13.0235,-13.0235,-13.0235,-13.0235,-13.0235,-13.0235,-13.0235,-13.0235,-12.9402,-12.5756,-8.9809,-9.2194,-9.4521,-9.8127,-9.6848,-9.6266,-10.2199,-10.4584,-10.5863,-10.7027,-10.6387,-10.5922,-10.7085,-10.7434,-10.8365,-11.0633,-11.2204,-11.3541,-11.4705,-11.4879,-11.5868,-11.8486,-11.8776,-11.9823,-12.2383,-12.2615,-12.2615,-12.2615,-12.2615,-12.2615,-12.2615,-12.2615,-12.2615,-12.2615,-12.2615,-12.2615,-12.2615,-12.2732,-12.3372,-12.4593,-12.5931,-12.7269,-12.849,-12.849,-12.849,-12.849,-12.849,-12.913,-13.0235,-13.0235,-13.0235,-13.0235,-13.0235,-13.0235,-13.0235,-13.0235,-13.0235,-13.0235,-13.0235,-13.0235,-13.0235,-13.0235,-13.0235,-13.0235,-13.0235,-13.0235,-13.0235,-13.0235,-13.0235,-13.0235,-13.0235,-13.0235,-13.0235,-13.0235,-13.0235,-13.0235,-13.0235,-13.0235,-13.0235,-13.0235,-13.0235,-13.0235,-13.0235,-13.0235,-13.0235,-13.0235,-13.0235,-13.0235,-13.0235,-13.0235,-13.0235,-13.0235,-13.0235,-13.0235,-13.0235,-13.0235,-13.0235,-13.0235,-13.0235,-13.0235,-13.0235,-13.0235,-13.0235,-13.0235,-13.0235,-13.0235,-13.0235,-13.0235,-13.0235,-13.0235,-12.6923,-12.3388,-8.1317,-8.4691,-8.8413,-8.9984,-9.3299,-9.7022,-10.0338,-10.1501,-10.2664,-10.5573,-10.6329,-10.6445,-10.6154,-10.7376,-10.8772,-10.9761,-11.1622,-11.3425,-11.4705,-11.4879,-11.5577,-11.738,-11.8311,-11.9474,-12.1278,-12.215,-12.2615,-12.2615,-12.2615,-12.2615,-12.2615,-12.2615,-12.2615,-12.2615,-12.2615,-12.2615,-12.2615,-12.2615,-12.3197,-12.4419,-12.4942,-12.5466,-12.5989,-12.7618,-12.8316,-12.8374,-12.913,-12.977,-13.0235,-13.0235,-13.0235,-13.0235,-13.0235,-13.0235,-13.0235,-13.0235,-13.0235,-13.0235,-13.0235,-13.0235,-13.0235,-13.0235,-13.0235,-13.0235,-13.0235,-13.0235,-13.0235,-13.0235,-13.0235,-13.0235,-13.0235,-13.0235,-13.0235,-13.0235,-13.0235,-13.0235,-13.0235,-13.0235,-13.0235,-13.0235,-13.0235,-13.0235,-13.0235,-13.0235,-13.0235,-13.0235,-13.0235,-13.0235,-13.0235,-13.0235,-13.0235,-13.0235,-13.0235,-13.0235,-13.0235,-13.0235,-13.0235,-13.0235,-13.0235,-13.0235,-13.0235,-13.0235,-13.0235,-13.0235,-13.0235,-13.0235,-13.0235,-13.0235,-13.0235,-13.0235,-12.6677,-12.3134,-7.6722,-7.9688,-8.3411,-8.4574,-8.9577,-9.4783,-9.7313,-9.7895,-9.9174,-10.3828,-10.5514,-10.598,-10.5456,-10.6503,-10.794,-10.9104,-11.0982,-11.296,-11.4647,-11.4879,-11.5345,-11.6624,-11.7962,-11.93,-12.058,-12.1859,-12.2615,-12.2615,-12.2615,-12.2615,-12.2615,-12.2615,-12.2615,-12.2615,-12.2615,-12.2615,-12.2615,-12.2615,-12.3023,-12.3895,-12.4244,-12.4419,-12.4477,-12.6745,-12.7734,-12.785,-12.9479,-13.0003,-12.9712,-13.0061,-13.0235,-13.0235,-13.0235,-13.0235,-13.0235,-13.0235,-13.0235,-13.0235,-13.0235,-13.0235,-13.0235,-13.0235,-13.0235,-13.0235,-13.0235,-13.0235,-13.0235,-13.0235,-13.0235,-13.0235,-13.0235,-13.0235,-13.0235,-13.0235,-13.0235,-13.0235,-13.0235,-13.0235,-13.0235,-13.0235,-13.0235,-13.0235,-13.0235,-13.0235,-13.0235,-13.0235,-13.0235,-13.0235,-13.0235,-13.0235,-13.0235,-13.0235,-13.0235,-13.0235,-13.0235,-13.0235,-13.0235,-13.0235,-13.0235,-13.0235,-13.0235,-13.0235,-13.0235,-13.0235,-13.0235,-13.0235,-13.0235,-13.0235,-13.0235,-13.0235,-12.6677,-12.3134,-8.0809,-8.0445,-8.1375,-8.5156,-8.6203,-8.7599,-9.2718,-9.3939,-9.5742,-10.2083,-10.342,-10.3828,-10.5107,-10.4293,-10.47,-10.8638,-11.0226,-11.1913,-11.453,-11.4879,-11.5345,-11.6624,-11.7962,-11.93,-12.058,-12.1859,-12.2615,-12.2615,-12.2615,-12.2615,-12.2615,-12.2615,-12.2615,-12.2615,-12.2615,-12.2615,-12.2615,-12.2615,-12.2615,-12.2615,-12.3837,-12.4419,-12.4419,-12.5815,-12.6454,-12.6455,-12.913,-12.9479,-12.8432,-12.9712,-13.0235,-13.0235,-13.0235,-13.0235,-13.0235,-13.0235,-13.0235,-13.0235,-13.0235,-13.0235,-13.0235,-13.0235,-13.0235,-13.0235,-13.0235,-13.0235,-13.0235,-13.0235,-13.0235,-13.0235,-13.0235,-13.0235,-13.0235,-13.0235,-13.0235,-13.0235,-13.0235,-13.0235,-13.0235,-13.0235,-13.0235,-13.0235,-13.0235,-13.0235,-13.0235,-13.0235,-13.0235,-13.0235,-13.0235,-13.0235,-13.0235,-13.0235,-13.0235,-13.0235,-13.0235,-13.0235,-13.0235,-13.0235,-13.0235,-13.0235,-13.0235,-13.0235,-13.0235,-13.0235,-13.0235,-13.0235,-13.0235,-13.0235,-13.0235,-13.0235,-12.6677,-12.3134,-7.5268,-7.7129,-7.9863,-8.2905,-8.4865,-8.7483,-9.266,-9.5219,-9.7255,-10.0163,-10.0745,-10.1152,-10.249,-10.4526,-10.6736,-10.8929,-11.0226,-11.1913,-11.453,-11.4879,-11.5054,-11.5461,-11.7439,-11.8951,-11.9358,-12.1336,-12.2615,-12.2615,-12.2615,-12.2615,-12.2615,-12.2615,-12.2615,-12.2615,-12.2615,-12.2615,-12.2615,-12.2615,-12.2615,-12.2615,-12.2964,-12.3197,-12.3197,-12.4477,-12.5524,-12.6513,-12.8199,-12.9188,-12.9654,-13.0061,-13.0235,-13.0235,-13.0235,-13.0235,-13.0235,-13.0235,-13.0235,-13.0235,-13.0235,-13.0235,-13.0235,-13.0235,-13.0235,-13.0235,-13.0235,-13.0235,-13.0235,-13.0235,-13.0235,-13.0235,-13.0235,-13.0235,-13.0235,-13.0235,-13.0235,-13.0235,-13.0235,-13.0235,-13.0235,-13.0235,-13.0235,-13.0235,-13.0235,-13.0235,-13.0235,-13.0235,-13.0235,-13.0235,-13.0235,-13.0235,-13.0235,-13.0235,-13.0235,-13.0235,-13.0235,-13.0235,-13.0235,-13.0235,-13.0235,-13.0235,-13.0235,-13.0235,-13.0235,-13.0235,-13.0235,-13.0235,-13.0235,-13.0235,-13.0235,-13.0235,-12.6677,-12.3134,-7.4512,-7.6664,-7.9281,-8.2306,-8.3527,-8.5331,-9.0507,-9.1787,-9.266,-9.5393,-9.6324,-9.7371,-9.964,-10.3595,-10.6852,-10.7608,-10.9586,-11.1738,-11.389,-11.4588,-11.4879,-11.4879,-11.6741,-11.8253,-11.8776,-12.0696,-12.2092,-12.2557,-12.2615,-12.2615,-12.2615,-12.2615,-12.2615,-12.2615,-12.2615,-12.2615,-12.2615,-12.2615,-12.2615,-12.2615,-12.2615,-12.2615,-12.2674,-12.3837,-12.4884,-12.5756,-12.756,-12.8781,-12.9537,-13.0003,-13.0235,-13.0235,-13.0235,-13.0235,-13.0235,-13.0235,-13.0235,-13.0235,-13.0235,-13.0235,-13.0235,-13.0235,-13.0235,-13.0235,-13.0235,-13.0235,-13.0235,-13.0235,-13.0235,-13.0235,-13.0235,-13.0235,-13.0235,-13.0235,-13.0235,-13.0235,-13.0235,-13.0235,-13.0235,-13.0235,-13.0235,-13.0235,-13.0235,-13.0235,-13.0235,-13.0235,-13.0235,-13.0235,-13.0235,-13.0235,-13.0235,-13.0235,-13.0235,-13.0235,-13.0235,-13.0235,-13.0235,-13.0235,-13.0235,-13.0235,-13.0235,-13.0235,-13.0235,-13.0235,-13.0235,-13.0235,-13.0235,-13.0235,-13.0235,-13.0235,-12.7957,-12.4326,-7.6838,-7.8118,-7.9281,-8.2812,-8.248,-8.2364,-8.7134,-8.5214,-8.3895,-8.853,-9.0507,-9.2543,-9.6178,-10.121,-10.4875,-10.5573,-10.8423,-11.1157,-11.2785,-11.4065,-11.4879,-11.4879,-11.6101,-11.7439,-11.866,-11.994,-12.1219,-12.2499,-12.2615,-12.2615,-12.2615,-12.2615,-12.2615,-12.2615,-12.2615,-12.2615,-12.2615,-12.2615,-12.2615,-12.2615,-12.2615,-12.2615,-12.2674,-12.3779,-12.4302,-12.4535,-12.6978,-12.8141,-12.8432,-12.9595,-13.0119,-13.0235,-13.0235,-13.0235,-13.0235,-13.0235,-13.0235,-13.0235,-13.0235,-13.0235,-13.0235,-13.0235,-13.0235,-13.0235,-13.0235,-13.0235,-13.0235,-13.0235,-13.0235,-13.0235,-13.0235,-13.0235,-13.0235,-13.0235,-13.0235,-13.0235,-13.0235,-13.0235,-13.0235,-13.0235,-13.0235,-13.0235,-13.0235,-13.0235,-13.0235,-13.0235,-13.0235,-13.0235,-13.0235,-13.0235,-13.0235,-13.0235,-13.0235,-13.0235,-13.0235,-13.0235,-13.0235,-13.0235,-13.0235,-13.0235,-13.0235,-13.0235,-13.0235,-13.0235,-13.0235,-13.0235,-13.0235,-13.0235,-13.0235,-13.0235,-13.0235,-12.6554,-7.1022,-7.4104,-7.7536,-7.9398,-8.3876,-8.8123,-8.9286,-8.6552,-8.3876,-8.4109,-8.5156,-8.6901,-8.9751,-9.4521,-10.0279,-10.7201,-10.7376,-10.8132,-11.2378,-11.4065,-11.4879,-11.4879,-11.6915,-11.8427,-11.8776,-11.994,-12.1219,-12.2499,-12.2615,-12.2615,-12.2615,-12.2615,-12.2615,-12.2615,-12.2615,-12.2615,-12.2615,-12.2615,-12.2615,-12.2615,-12.2615,-12.2615,-12.2615,-12.2906,-12.3546,-12.4419,-12.5058,-12.6454,-12.8316,-12.8665,-12.9363,-13.0235,-13.0235,-13.0235,-13.0235,-13.0235,-13.0235,-13.0235,-13.0235,-13.0235,-13.0235,-13.0235,-13.0235,-13.0235,-13.0235,-13.0235,-13.0235,-13.0235,-13.0235,-13.0235,-13.0235,-13.0235,-13.0235,-13.0235,-13.0235,-13.0235,-13.0235,-13.0235,-13.0235,-13.0235,-13.0235,-13.0235,-13.0235,-13.0235,-13.0235,-13.0235,-13.0235,-13.0235,-13.0235,-13.0235,-13.0235,-13.0235,-13.0235,-13.0235,-13.0235,-13.0235,-13.0235,-13.0235,-13.0235,-13.0235,-13.0235,-13.0235,-13.0235,-13.0235,-13.0235,-13.0235,-13.0235,-13.0235,-13.0235,-13.0235,-13.0235,-12.7836,-7.1138,-7.5326,-7.8874,-7.7187,-8.1201,-8.5156,-8.3353,-8.1317,-7.9456,-7.8176,-7.8932,-8.1317,-8.6261,-8.853,-9.2803,-10.2315,-10.47,-10.6561,-10.9877,-11.296,-11.5112,-11.5694,-11.6508,-11.7671,-11.9474,-11.9765,-12.0638,-12.2499,-12.2615,-12.2615,-12.2615,-12.2615,-12.2615,-12.2615,-12.2615,-12.2615,-12.2615,-12.2615,-12.2615,-12.2615,-12.2615,-12.2615,-12.2615,-12.2615,-12.2964,-12.3604,-12.4186,-12.5582,-12.7501,-12.8083,-12.9072,-13.0235,-13.0235,-13.0235,-13.0235,-13.0235,-13.0235,-13.0235,-13.0235,-13.0235,-13.0235,-13.0235,-13.0235,-13.0235,-13.0235,-13.0235,-13.0235,-13.0235,-13.0235,-13.0235,-13.0235,-13.0235,-13.0235,-13.0235,-13.0235,-13.0235,-13.0235,-13.0235,-13.0235,-13.0235,-13.0235,-13.0235,-13.0235,-13.0235,-13.0235,-13.0235,-13.0235,-13.0235,-13.0235,-13.0235,-13.0235,-13.0235,-13.0235,-13.0235,-13.0235,-13.0235,-13.0235,-13.0235,-13.0235,-13.0235,-13.0235,-13.0235,-13.0235,-13.0235,-13.0235,-13.0235,-13.0235,-13.0235,-13.0235,-13.0235,-13.0235,-12.8379,-7.3174,-7.8189,-8.1333,-7.6967,-7.8189,-7.9572,-7.6257,-7.4744,-7.3755,-7.265,-7.329,-7.614,-8.2829,-8.312,-8.5234,-9.3648,-9.9989,-10.47,-10.6969,-11.168,-11.5286,-11.6392,-11.5752,-11.6566,-12.0056,-11.9416,-11.9882,-12.2441,-12.2615,-12.2615,-12.2615,-12.2615,-12.2615,-12.2615,-12.2615,-12.2615,-12.2615,-12.2615,-12.2615,-12.2615,-12.2615,-12.2615,-12.2615,-12.2615,-12.2615,-12.2674,-12.3662,-12.4884,-12.6164,-12.7269,-12.8607,-12.9944,-12.9944,-13.0061,-13.0235,-13.0235,-13.0235,-13.0235,-13.0235,-13.0235,-13.0235,-13.0235,-13.0235,-13.0235,-13.0235,-13.0235,-13.0235,-13.0235,-13.0235,-13.0235,-13.0235,-13.0235,-13.0235,-13.0235,-13.0235,-13.0235,-13.0235,-13.0235,-13.0235,-13.0235,-13.0235,-13.0235,-13.0235,-13.0235,-13.0235,-13.0235,-13.0235,-13.0235,-13.0235,-13.0235,-13.0235,-13.0235,-13.0235,-13.0235,-13.0235,-13.0235,-13.0235,-13.0235,-13.0235,-13.0235,-13.0235,-13.0235,-13.0235,-13.0235,-13.0235,-13.0235,-13.0235,-13.0235,-13.0119,-12.9944,-12.9944,-12.8218,-7.1312,-7.685,-8.2207,-8.145,-8.0867,-8.0343,-7.9688,-7.5384,-7.1429,-7.1254,-7.1371,-7.2185,-7.4337,-7.8932,-8.2614,-8.3004,-9.1031,-9.9581,-10.6329,-11.168,-11.4937,-11.517,-11.5984,-11.7206,-11.8951,-11.8893,-11.9882,-12.2441,-12.2615,-12.2615,-12.2615,-12.2615,-12.2615,-12.2615,-12.2615,-12.2615,-12.2615,-12.2615,-12.2615,-12.2615,-12.2615,-12.2615,-12.2615,-12.2615,-12.2615,-12.2615,-12.279,-12.3604,-12.4709,-12.4942,-12.6454,-12.8607,-12.8607,-12.9246,-13.0235,-13.0235,-13.0235,-13.0235,-13.0235,-13.0235,-13.0235,-13.0235,-13.0235,-13.0235,-13.0235,-13.0235,-13.0235,-13.0235,-13.0235,-13.0235,-13.0235,-13.0235,-13.0235,-13.0235,-13.0235,-13.0235,-13.0235,-13.0235,-13.0235,-13.0235,-13.0235,-13.0235,-13.0235,-13.0235,-13.0235,-13.0235,-13.0235,-13.0235,-13.0235,-13.0235,-13.0235,-13.0235,-13.0235,-13.0235,-13.0235,-13.0235,-13.0235,-13.0235,-13.0235,-13.0235,-13.0235,-13.0235,-13.0235,-13.0235,-13.0235,-13.0235,-13.0235,-13.0235,-12.9654,-12.8607,-12.8607,-12.779,-7.2767,-7.7607,-8.2265,-8.1566,-8.0926,-8.0096,-7.87,-7.5559,-7.2534,-7.1196,-7.0382,-7.0673,-7.329,-7.5617,-7.8525,-8.2829,-8.7483,-9.3474,-10.1908,-10.8714,-11.3541,-11.5694,-11.581,-11.6566,-11.8602,-11.8776,-11.9591,-12.1452,-12.2208,-12.2615,-12.2615,-12.2615,-12.2615,-12.2615,-12.2615,-12.2615,-12.2615,-12.2615,-12.2615,-12.2615,-12.2615,-12.2615,-12.2615,-12.2615,-12.2615,-12.2615,-12.2615,-12.3313,-12.4419,-12.4419,-12.5524,-12.7327,-12.8025,-12.8665,-12.9246,-12.9944,-13.0235,-13.0235,-13.0235,-13.0235,-13.0235,-13.0235,-13.0235,-13.0235,-13.0235,-13.0235,-13.0235,-13.0235,-13.0235,-13.0061,-12.9363,-12.9712,-13.0061,-12.9363,-12.9712,-13.0235,-13.0235,-13.0235,-13.0235,-13.0235,-13.0235,-13.0235,-13.0235,-13.0235,-13.0235,-13.0235,-13.0235,-13.0003,-12.9305,-12.977,-12.9944,-12.9246,-12.9828,-13.0235,-13.0235,-13.0235,-13.0235,-13.0235,-13.0235,-13.0235,-13.0235,-13.0235,-13.0235,-13.0235,-13.0235,-12.9886,-12.9188,-12.9188,-12.8548,-12.7269,-12.7269,-12.5928,-7.6722,0.0,-8.3546,-8.248,-8.2015,-8.1084,0.0,-7.6722,-7.4744,-7.1952,-7.0324,-7.0324,-7.3232,-7.3174,-7.5151,-8.2655,-8.4923,-8.8646,-9.7022,-10.406,-10.9993,-11.4472,-11.4414,-11.4996,-11.7613,-11.8427,-11.93,-12.0638,-12.1917,-12.2615,-12.2615,-12.2615,-12.2615,-12.2615,-12.2615,-12.2615,-12.2615,-12.2615,-12.2615,-12.2615,-12.2615,-12.2615,-12.2615,-12.2615,-12.2615,-12.2615,-12.2615,-12.3139,-12.3953,-12.3953,-12.4768,-12.6047,-12.7036,-12.7618,-12.8025,-12.9305,-12.977,-12.9828,-13.0119,-13.0235,-13.0235,-13.0235,-13.0235,-13.0235,-13.0235,-13.0235,-13.0177,-12.9886,-12.977,-12.9479,-12.8199,-12.8607,-12.9072,-12.8083,-12.8607,-12.9305,-12.9305,-12.9305,-12.9421,-12.9712,-12.9537,-12.9421,-12.9712,-12.9537,-12.9305,-12.9305,-12.9595,-12.9421,-12.8432,-12.9421,-12.9828,-12.8839,-12.9654,-13.0235,-13.0235,-13.0235,-13.0235,-13.0235,-13.0235,-13.0235,-13.0235,-13.0235,-13.0061,-12.977,-12.977,-12.913,-12.785,-12.785,-12.7211,-12.5931,-12.5931,-12.4016,0.0,-8.6436,-8.7599,-8.7541,-8.661,-8.504,-8.2614,-8.0037,0.0,-7.3348,-7.1603,-7.0847,-7.1138,-7.201,-7.3755,-7.678,-8.1184,-8.6589,-9.3358,-9.7778,-10.2722,-10.9004,-11.0633,-11.232,-11.4937,-11.738,-11.93,-12.0638,-12.1917,-12.2615,-12.2615,-12.2615,-12.2615,-12.2615,-12.2615,-12.2615,-12.2615,-12.2615,-12.2615,-12.2615,-12.2615,-12.2615,-12.2615,-12.2615,-12.2615,-12.2615,-12.2615,-12.2674,-12.2732,-12.2732,-12.343,-12.4535,-12.4651,-12.5466,-12.6687,-12.7967,-12.8432,-12.8607,-12.9828,-13.0235,-13.0235,-13.0235,-13.0235,-13.0235,-13.0235,-13.0235,-13.0003,-12.8781,-12.8432,-12.8141,-12.6862,-12.6629,-12.6629,-12.6455,-12.6629,-12.6687,-12.6687,-12.6687,-12.7036,-12.8199,-12.7501,-12.7036,-12.8258,-12.7443,-12.6687,-12.6687,-12.7676,-12.8432,-12.8316,-12.9421,-13.0177,-13.0119,-13.0177,-13.0235,-13.0235,-13.0235,-13.0235,-13.0235,-13.0235,-13.0235,-13.0235,-13.0235,-12.9654,-12.849,-12.8432,-12.7792,-12.6571,-12.6571,-12.5873,-12.4535,-12.4535,-12.2178,-8.6785,-8.8297,-8.9111,-8.8239,-8.7657,-8.6436,-8.3196,-8.0386,-7.742,-7.3523,-7.1138,-6.9975,-7.0789,-7.1894,-7.4628,-8.0503,-8.3702,-8.7657,-9.4114,-9.836,-10.2257,-10.6329,-11.0691,-11.3774,-11.4821,-11.7264,-11.9009,-11.9474,-12.1452,-12.2615,-12.2615,-12.2615,-12.2615,-12.2615,-12.2615,-12.2615,-12.2615,-12.2615,-12.2615,-12.2615,-12.2615,-12.2615,-12.2615,-12.2615,-12.2615,-12.2615,-12.2615,-12.2615,0.0,-12.2615,-12.2848,-12.3372,-12.4128,-12.4709,-12.5349,-12.6629,-12.7152,-12.7327,-12.8607,-12.9014,-12.9188,-12.9944,-13.0235,-13.0235,-13.0235,-12.9654,-12.9072,-12.9421,-12.9479,-12.9188,-12.7909,-12.8199,-12.8374,-12.6803,-12.7036,-12.7385,-12.6571,-12.6396,-12.6571,-12.7036,-12.6745,-12.6571,-12.7036,-12.7385,-12.7618,-12.7618,-12.8665,-12.9188,-12.8432,-12.9421,-12.9886,-12.913,-12.977,-13.0235,-13.0235,-13.0235,-13.0235,-13.0235,-13.0235,-12.9886,-12.9072,-12.9014,-12.8432,-12.7152,-12.7152,-12.6862,-12.6396,-12.5582,-12.4535,-12.3313,-12.3313,-12.0167,-8.917,-8.9984,-9.0449,-8.9519,-8.9286,-8.8181,-8.3935,-8.1259,-7.8409,-7.3697,-7.108,-6.9975,-7.1254,-7.2185,-7.5151,-8.248,-8.5098,-8.8413,-9.4957,-9.9058,-10.2432,-10.5049,-10.9935,-11.3251,-11.36,-11.6392,-11.8311,-11.8776,-12.0812,-12.2208,-12.2615,-12.2615,-12.2615,-12.2615,-12.2615,-12.2615,-12.2615,-12.2615,-12.2615,-12.2615,-12.2615,-12.2615,-12.2615,-12.2615,-12.2615,-12.2615,-12.2615,-12.2615,-12.2615,-12.2615,-12.2615,-12.2674,-12.3488,-12.3837,-12.4011,-12.5291,-12.5756,-12.5931,-12.7269,-12.7734,-12.785,-12.8723,-12.9014,-12.9072,-12.9479,-12.8723,-12.7909,-12.8781,-12.8723,-12.8083,-12.6862,-12.7152,-12.7385,-12.564,-12.5873,-12.628,-12.5407,-12.5233,-12.5349,-12.5698,-12.5466,-12.5466,-12.628,-12.6803,-12.7094,-12.7094,-12.8548,-12.913,-12.785,-12.9188,-12.9886,-12.9014,-12.9712,-13.0061,-12.9654,-12.9246,-12.9014,-12.9014,-12.9014,-12.8607,-12.7734,-12.7734,-12.7094,-12.5815,-12.5756,-12.5582,-12.5233,-12.4302,-12.343,-12.2615,-12.2615,-11.9133,-9.1613,-9.1962,-9.1962,-9.1962,-9.1962,-9.0624,-8.5311,-8.3237,-8.0576,-7.4046,-7.1778,-7.1254,-7.2476,-7.2767,-7.4861,-8.1391,-8.4516,-8.8413,-9.4957,-9.9058,-10.249,-10.5107,-10.7667,-10.9702,-11.0924,-11.453,-11.7322,-11.866,-11.9998,-12.1278,-12.2499,-12.2615,-12.2615,-12.2615,-12.2615,-12.2615,-12.2615,-12.2615,-12.2615,-12.2615,-12.2615,-12.2615,-12.2615,-12.2615,-12.2615,-12.2615,-12.2615,-12.2615,-12.2615,-12.2615,-12.2615,-12.2615,-12.2615,-12.2615,-12.2732,-12.3953,-12.436,-12.4593,-12.5931,-12.6396,-12.6396,-12.6396,-12.6396,-12.6629,-12.7909,-12.7385,-12.6396,-12.6396,-12.5466,-12.4128,-12.2964,-12.2674,-12.2674,-12.2615,-12.2615,-12.2615,-12.2615,-12.2615,-12.2964,-12.4128,-12.343,-12.343,-12.5931,-12.5291,-12.4419,-12.4419,-12.6629,-12.785,-12.6571,-12.8607,-13.0177,-13.0177,-13.0177,-12.9654,-12.8432,-12.7152,-12.6396,-12.6396,-12.6396,-12.6396,-12.6396,-12.6396,-12.5756,-12.4419,-12.436,-12.3779,-12.2615,-12.2615,-12.2615,-12.2615,-12.2615,-11.9133,-9.1845,-9.1962,-9.1962,-9.1962,-9.1962,-9.0624,-8.5447,-8.2597,-7.947,-7.3872,-7.1778,-7.1254,-7.2476,-7.4221,-7.7245,-8.2771,-8.661,-9.0507,-9.519,-9.9814,-10.3769,-10.6387,-10.8946,-11.1331,-11.3541,-11.4763,-11.5984,-11.7264,-11.9474,-12.087,-12.1278,-12.1278,-12.1278,-12.1278,-12.215,-12.2615,-12.2615,-12.2615,-12.2615,-12.2615,-12.2615,-12.2615,-12.2615,-12.2615,-12.2615,-12.2615,-12.2615,-12.2615,-12.2615,-12.2615,-12.2615,-12.2615,-12.2615,-12.2615,-12.2674,-12.3023,-12.3139,-12.3313,-12.4535,-12.5,-12.5175,-12.6105,-12.6396,-12.628,-12.5698,-12.5291,-12.5175,-12.6164,-12.6105,-12.5756,-12.5349,-12.5291,-12.5058,-12.407,-12.3837,-12.3662,-12.279,-12.2615,-12.2732,-12.3081,-12.2848,-12.2848,-12.3604,-12.4128,-12.4419,-12.4419,-12.5873,-12.6803,-12.6454,-12.785,-12.8897,-12.8897,-12.8083,-12.7385,-12.6978,-12.6629,-12.6396,-12.6396,-12.6396,-12.5989,-12.5058,-12.5,-12.4419,-12.3197,-12.3139,-12.2964,-12.2615,-12.2615,-12.2615,-12.2615,-12.2615,-12.0343,-9.1962,-9.1962,-9.1962,-9.1962,-9.1962,-9.074,-8.6087,-8.2655,-7.9107,-7.4453,-7.2127,-7.1429,-7.3174,-7.5617,-7.9398,-8.5485,-8.9344,-9.3241,-9.8217,-10.2875,-10.6445,-10.8481,-11.0982,-11.3134,-11.4705,-11.4879,-11.5228,-11.5984,-11.7962,-11.9125,-11.9125,-11.9649,-12.0172,-12.0696,-12.1452,-12.2092,-12.2615,-12.2615,-12.2615,-12.2615,-12.2615,-12.2615,-12.2615,-12.2615,-12.2615,-12.2615,-12.2615,-12.2615,-12.2615,-12.2615,-12.2615,-12.2615,-12.2615,-12.2615,-12.2615,-12.2615,-12.2615,-12.2732,-12.343,-12.3662,-12.3837,-12.4651,-12.4884,-12.4768,-12.3953,-12.3662,-12.3837,-12.4651,-12.4884,-12.4884,-12.4884,-12.4884,-12.4709,-12.3895,-12.3662,-12.3488,-12.279,-12.2615,-12.2615,-12.2615,-12.2615,-12.279,-12.3255,-12.3953,-12.4419,-12.4419,-12.5524,-12.6222,-12.5698,-12.6745,-12.756,-12.756,-12.6396,-12.5582,-12.5582,-12.5175,-12.4884,-12.4884,-12.4884,-12.4535,-12.3721,-12.3662,-12.3372,-12.2615,-12.2615,-12.2615,-12.2615,-12.2615,-12.2615,-12.2615,-12.2615,-12.1597,-9.1962,-9.1962,-9.1962,-9.1962,-9.1962,-9.0915,-8.7017,-8.3353,-7.963,-7.5617,-7.2999,-7.2069,-7.4221,-7.7129,-8.155,-8.8704,-9.2485,-9.6615,-10.2548,-10.6834,-10.9644,-11.0866,-11.3192,-11.4763,-11.4879,-11.4879,-11.4879,-11.4879,-11.5984,-11.6624,-11.6624,-11.7904,-11.9125,-12.0289,-12.058,-12.1278,-12.2441,-12.2557,-12.2615,-12.2615,-12.2615,-12.2615,-12.2615,-12.2615,-12.2615,-12.2615,-12.2615,-12.2615,-12.2615,-12.2615,-12.2615,-12.2615,-12.2615,-12.2615,-12.2615,-12.2615,-12.2615,-12.2615,-12.2615,-12.2615,-12.2615,-12.2615,-12.2615,-12.2615,-12.2615,-12.2615,-12.2615,-12.2615,-12.2615,-12.2615,-12.2615,-12.2615,-12.2615,-12.2615,-12.2615,-12.2615,-12.2615,-12.2615,-12.2615,-12.2615,-12.2615,-12.2964,-12.407,-12.4244,-12.4244,-12.4244,-12.5291,-12.564,-12.4419,-12.5407,-12.6164,-12.6047,-12.4942,-12.4244,-12.4244,-12.3255,-12.2615,-12.2615,-12.2615,-12.2615,-12.2615,-12.2615,-12.2615,-12.2615,-12.2615,-12.2615,-12.2615,-12.2615,-12.2615,-12.2615,-12.2615,-12.2333,-9.1962,-9.1962,-9.1962,-9.1962,-9.1962,-9.0915,-8.7017,-8.4749,-8.2073,-7.7187,-7.5791,-7.5268,-7.4744,-8.0037,-8.5389,-8.8064,-9.487,-10.0687,-10.3071,-10.6834,-10.9644,-11.0866,-11.2378,-11.3774,-11.4821,-11.4879,-11.4879,-11.4879,-11.517,-11.5286,-11.5286,-11.6508,-11.738,-11.7613,-11.9649,-12.087,-12.1103,-12.2092,-12.2615,-12.2615,-12.2615,-12.2615,-12.2615,-12.2615,-12.2615,-12.2615,-12.2615,-12.2615,-12.2615,-12.2615,-12.2615,-12.2615,-12.2615,-12.2615,-12.2615,-12.2615,-12.2615,-12.2615,-12.2615,-12.2615,-12.2615,-12.2615,-12.2615,-12.2615,-12.2615,-12.2615,-12.2615,-12.2615,-12.2615,-12.2615,-12.2615,-12.2615,-12.2615,-12.2615,-12.2615,-12.2615,-12.2615,-12.2615,-12.2615,-12.2615,-12.2615,-12.2674,-12.2964,-12.2964,-12.2964,-12.2964,-12.3255,-12.3313,-12.3023,-12.407,-12.4477,-12.3546,-12.3197,-12.2964,-12.2964,-12.2732,-12.2615,-12.2615,-12.2615,-12.2615,-12.2615,-12.2615,-12.2615,-12.2615,-12.2615,-12.2615,-12.2615,-12.2615,-12.2615,-12.2615,-12.2615,-11.9883,-9.1962,-9.1962,-9.1962,-9.1962,-9.1962,-9.1438,-8.9402,-8.7425,-8.4982,-8.101,-7.9805,-7.8816,-7.6838,-8.2829,-8.8646,-9.0507,-9.7313,-10.3071,-10.4991,-10.755,-10.9512,-11.0051,-11.1273,-11.2553,-11.3832,-11.4007,-11.4239,-11.4821,-11.4879,-11.4879,-11.4879,-11.5519,-11.6159,-11.6799,-11.8137,-11.9416,-12.0696,-12.1394,-12.2034,-12.2615,-12.2615,-12.2615,-12.2615,-12.2615,-12.2615,-12.2615,-12.2615,-12.2615,-12.2615,-12.2615,-12.2615,-12.2615,-12.2615,-12.2615,-12.2615,-12.2615,-12.2615,-12.2615,-12.2615,-12.2615,-12.2615,-12.2615,-12.2615,-12.2615,-12.2615,-12.2615,-12.2615,-12.2615,-12.2615,-12.2615,-12.2615,-12.2615,-12.2615,-12.2615,-12.2615,-12.2615,-12.2615,-12.2615,-12.2615,-12.2615,-12.2615,-12.2615,-12.2615,-12.2615,-12.2615,-12.2615,-12.2615,-12.2615,-12.2615,-12.3139,-12.3313,-12.2674,-12.2615,-12.2615,-12.2615,-12.2615,-12.2615,-12.2615,-12.2615,-12.2615,-12.2615,-12.2615,-12.2615,-12.2615,-12.2615,-12.2615,-12.2615,-12.2615,-12.2615,-12.2615,-12.0972,-11.8378,-9.1903,-9.1962,-9.1962,-9.1962,-9.1962,-9.1903,-9.1671,-9.01,-8.8006,-8.5369,-8.4051,-8.2672,-8.027,-8.5796,-9.1554,-9.4114,-9.9872,-10.4875,-10.7259,-10.8539,-10.9279,-10.9279,-11.0051,-11.1157,-11.2494,-11.2843,-11.3425,-11.4472,-11.4588,-11.4588,-11.4588,-11.4763,-11.5345,-11.645,-11.645,-11.7613,-11.9998,-12.0463,-12.1219,-12.2266,-12.2499,-12.2615,-12.2615,-12.2615,-12.2615,-12.2615,-12.2615,-12.2615,-12.2615,-12.2615,-12.2615,-12.2615,-12.2615,-12.2615,-12.2615,-12.2615,-12.2615,-12.2615,-12.2615,-12.2615,-12.2615,-12.2615,-12.2615,-12.2615,-12.2615,-12.2615,-12.2615,-12.2615,-12.2615,-12.2615,-12.2615,-12.2615,-12.2615,-12.2615,-12.2615,-12.2615,-12.2615,-12.2615,-12.2615,-12.2615,-12.2615,-12.2615,-12.2615,-12.2615,-12.2615,-12.2615,-12.2615,-12.2615,-12.2615,-12.2615,-12.2615,-12.2615,-12.2615,-12.2615,-12.2615,-12.2615,-12.2615,-12.2615,-12.2615,-12.2615,-12.2615,-12.2615,-12.2615,-12.2615,-12.2615,-12.2615,-12.2615,-12.2615,-12.2615,-12.2615,-11.9192,-11.7328,-9.1671,-9.1962,-9.1962,-9.1962,-9.1962,-9.1671,-9.0566,-9.0856,-9.0682,-8.8064,-8.7425,-8.6843,-8.5389,-8.9635,-9.4172,-9.6643,-10.2548,-10.7259,-10.8714,-10.9063,-10.9279,-10.9279,-10.9453,-10.9877,-11.1157,-11.232,-11.3076,-11.3251,-11.3251,-11.3251,-11.3251,-11.4298,-11.4937,-11.5112,-11.517,-11.5868,-11.7322,-11.9591,-12.0812,-12.0987,-12.2092,-12.2615,-12.2615,-12.2615,-12.2615,-12.2615,-12.2615,-12.2615,-12.2615,-12.2615,-12.2615,-12.2615,-12.2615,-12.2615,-12.2615,-12.2615,-12.2615,-12.2615,-12.2615,-12.2615,-12.2615,-12.2615,-12.2615,-12.2615,-12.2615,-12.2615,-12.2615,-12.2615,-12.2615,-12.2615,-12.2615,-12.2615,-12.2615,-12.2615,-12.2615,-12.2615,-12.2615,-12.2615,-12.2615,-12.2615,-12.2615,-12.2615,-12.2615,-12.2615,-12.2615,-12.2615,-12.2615,-12.2615,-12.2615,-12.2615,-12.2615,-12.2615,-12.2615,-12.2615,-12.2615,-12.2615,-12.2615,-12.2615,-12.2615,-12.2615,-12.2615,-12.2615,-12.2615,-12.2615,-12.2615,-12.2615,-12.2615,-12.2615,-12.2615,-12.2615,-11.9192,-11.6143,-9.0333,-9.138,-9.1962,-9.1962,-9.1962,-9.202,-9.2136,-9.2601,-9.2485,-9.0624,-9.0798,-9.0449,-8.7715,-9.202,-9.615,-9.6557,-10.1385,-10.5573,-10.6852,-10.7027,-10.7318,-10.8016,-10.8132,-10.8597,-10.9877,-11.0517,-11.1157,-11.1796,-11.1855,-11.2204,-11.296,-11.3541,-11.4123,-11.4879,-11.4879,-11.517,-11.5752,-11.7613,-11.8893,-11.9649,-12.0231,-12.087,-12.1568,-12.1568,-12.1917,-12.2615,-12.2615,-12.2615,-12.2615,-12.2615,-12.2615,-12.2615,-12.2615,-12.2615,-12.2615,-12.2615,-12.2615,-12.2615,-12.2615,-12.2615,-12.2615,-12.2615,-12.2615,-12.2615,-12.2615,-12.2615,-12.2615,-12.2615,-12.2615,-12.2615,-12.2615,-12.2615,-12.2615,-12.2615,-12.2615,-12.2615,-12.2615,-12.2615,-12.2615,-12.2615,-12.2615,-12.2615,-12.2615,-12.2615,-12.2615,-12.2615,-12.2615,-12.2615,-12.2615,-12.2615,-12.2615,-12.2615,-12.2615,-12.2615,-12.2615,-12.2615,-12.2615,-12.2615,-12.2615,-12.2615,-12.2615,-12.2615,-12.2615,-12.2615,-12.2615,-12.2615,-12.2615,-12.2615,-12.1711,-11.9711,-11.6381,-11.3067,-8.8937,-9.0217,-9.1147,-9.1787,-9.1962,-9.2194,-9.3125,-9.3648,-9.359,-9.266,-9.3183,-9.3067,-9.0507,-9.3939,-9.7197,-9.7197,-10.0687,-10.3828,-10.5224,-10.5689,-10.6096,-10.6736,-10.7085,-10.7667,-10.8597,-10.9104,-10.9412,-10.9993,-11.0342,-11.0982,-11.1971,-11.232,-11.3076,-11.4356,-11.4414,-11.4588,-11.4879,-11.5868,-11.6973,-11.8311,-11.866,-11.93,-12.0231,-12.0231,-12.0754,-12.1627,-12.1627,-12.1801,-12.215,-12.215,-12.2325,-12.2615,-12.2615,-12.2615,-12.2615,-12.2615,-12.2615,-12.2615,-12.2615,-12.2615,-12.2615,-12.2615,-12.2615,-12.2615,-12.2615,-12.2615,-12.2615,-12.2615,-12.2615,-12.2615,-12.2615,-12.2615,-12.2615,-12.2615,-12.2615,-12.2615,-12.2615,-12.2615,-12.2615,-12.2615,-12.2615,-12.2615,-12.2615,-12.2615,-12.2615,-12.2615,-12.2615,-12.2615,-12.2615,-12.2615,-12.2615,-12.2615,-12.2615,-12.2615,-12.2615,-12.2615,-12.2615,-12.2615,-12.2615,-12.2615,-12.2615,-12.2615,-12.2615,-12.2615,-12.2615,-12.2615,-12.2615,-12.2615,-12.0972,-11.7563,-11.4285,-11.1017,-8.7774,-8.8181,-8.8821,-9.1322,-9.1962,-9.1962,-9.202,-9.3009,-9.3823,-9.3765,-9.3823,-9.4172,-9.5248,-9.5714,-9.7022,-10.0628,-10.2432,-10.3828,-10.5224,-10.6445,-10.6736,-10.5631,-10.6561,-10.7318,-10.7376,-10.8481,-10.8714,-10.755,-10.8597,-10.9395,-10.9412,-11.0459,-11.168,-11.3018,-11.3076,-11.3658,-11.4879,-11.4937,-11.5635,-11.6915,-11.8195,-11.8835,-11.8893,-11.8893,-11.8951,-11.9009,-11.9009,-11.9649,-12.0812,-12.0812,-12.151,-12.2615,-12.2615,-12.2615,-12.2615,-12.2615,-12.2615,-12.2615,-12.2615,-12.2615,-12.2615,-12.2615,-12.2615,-12.2615,-12.2615,-12.2615,-12.2615,-12.2615,-12.2615,-12.2615,-12.2615,-12.2615,-12.2615,-12.2615,-12.2615,-12.2615,-12.2615,-12.2615,-12.2615,-12.2615,-12.2615,-12.2615,-12.2615,-12.2615,-12.2615,-12.2615,-12.2615,-12.2615,-12.2615,-12.2615,-12.2615,-12.2615,-12.2615,-12.2615,-12.2615,-12.2615,-12.2615,-12.2615,-12.2615,-12.2615,-12.2615,-12.2615,-12.2615,-12.2615,-12.2615,-12.2615,-12.2615,-12.2615,-12.0972,-11.7563,-11.4285,-11.1017,-8.8297,-8.8704,-8.8646,-9.1322,-9.1962,-9.1962,-9.1962,-9.2311,-9.266,-9.266,-9.3299,-9.423,-9.5597,-9.644,-9.772,-9.9872,-10.0628,-10.1385,-10.2664,-10.3246,-10.4002,-10.5224,-10.5805,-10.6387,-10.7201,-10.6969,-10.691,-10.7259,-10.7725,-10.8306,-10.9221,-10.9586,-11.04,-11.168,-11.168,-11.232,-11.3658,-11.3658,-11.4298,-11.5577,-11.6043,-11.6741,-11.7497,-11.7497,-11.7962,-11.8776,-11.8776,-11.9067,-11.9474,-11.9474,-11.9765,-12.0172,-12.0172,-12.0638,-12.1394,-12.1394,-12.1917,-12.2383,-12.0754,-12.0172,-12.0172,-12.0172,-12.0172,-12.0347,-12.1161,-12.1394,-12.1568,-12.2383,-12.2615,-12.2615,-12.2615,-12.2615,-12.2615,-12.2615,-12.2615,-12.2615,-12.2615,-12.2615,-12.2615,-12.2615,-12.2615,-12.2615,-12.2615,-12.2615,-12.2615,-12.2615,-12.2615,-12.2615,-12.2615,-12.2615,-12.2615,-12.2615,-12.2615,-12.2615,-12.2615,-12.2615,-12.2615,-12.2615,-12.2615,-12.2615,-12.2615,-12.2615,-12.2615,-12.2615,-12.2615,-12.2615,-12.2615,-12.2615,-11.9883,-11.4461,-11.3365,-10.9762,-8.6261,-8.7076,-8.7832,-8.9577,-9.0973,-9.1962,-9.1962,-9.1962,-9.1962,-9.1962,-9.2601,-9.359,-9.4957,-9.5801,-9.6964,-9.856,-9.8851,-9.9349,-10.0628,-10.121,-10.2141,-10.3828,-10.4467,-10.5224,-10.6503,-10.5456,-10.5224,-10.6561,-10.662,-10.7201,-10.8481,-10.8539,-10.9121,-11.0342,-11.04,-11.0982,-11.232,-11.232,-11.296,-11.4239,-11.4239,-11.4937,-11.6159,-11.6159,-11.6624,-11.7497,-11.7497,-11.7729,-11.8137,-11.8137,-11.8369,-11.8776,-11.8776,-11.93,-12.0056,-12.0056,-12.0638,-12.1103,-11.9416,-11.8776,-11.8776,-11.8776,-11.8776,-11.8951,-11.9823,-12.0056,-12.0231,-12.1103,-12.1336,-12.1336,-12.1336,-12.1336,-12.1336,-12.1336,-12.1685,-12.1976,-12.1976,-12.2325,-12.2615,-12.2615,-12.2615,-12.2615,-12.2615,-12.2615,-12.2615,-12.2615,-12.2615,-12.2615,-12.2615,-12.2615,-12.2615,-12.2615,-12.2615,-12.2615,-12.2615,-12.2615,-12.2615,-12.2615,-12.2615,-12.2615,-12.2615,-12.2615,-12.2383,-12.1976,-12.1976,-12.1238,-11.982,-11.982,-11.6387,-10.9978,-10.9978,-10.703,-8.1724,-8.3353,-8.6087,-8.6145,-8.8995,-9.1845,-9.1787,-9.1787,-9.1845,-9.1962,-9.1962,-9.2311,-9.3648,-9.3881,-9.4695,-9.7108,-9.7514,-9.7979,-9.9349,-10.057,-10.1385,-10.1443,-10.2548,-10.3828,-10.5107,-10.406,-10.3886,-10.5224,-10.534,-10.5863,-10.7143,-10.7201,-10.7841,-10.9221,-10.9221,-10.9702,-11.0924,-11.0924,-11.1622,-11.2902,-11.2902,-11.36,-11.4763,-11.4763,-11.4821,-11.4821,-11.4879,-11.5577,-11.6741,-11.6741,-11.7497,-11.866,-11.866,-11.8718,-11.8718,-11.8718,-11.866,-11.866,-11.866,-11.866,-11.866,-11.866,-11.866,-11.866,-11.8718,-11.8718,-11.8718,-11.8776,-11.8776,-11.8776,-11.8776,-11.8776,-11.8776,-11.8776,-11.9765,-12.0638,-12.0638,-12.1627,-12.2499,-12.2499,-12.2499,-12.2557,-12.2557,-12.2615,-12.2615,-12.2615,-12.2557,-12.2499,-12.2499,-12.2499,-12.2499,-12.2557,-12.2499,-12.2499,-12.2557,-12.2499,-12.2499,-12.2499,-12.2499,-12.2499,-12.2499,-12.2499,-12.1917,-12.0696,-12.0638,-11.8555,-11.4152,-11.4152,-11.0809,-10.4641,-10.4641,-10.2867,-8.6901,-8.6087,-8.4904,-8.5912,-8.7657,-8.8879,-8.7948,-8.8472,-8.9635,-9.1554,-9.1962,-9.2311,-9.3648,-9.3881,-9.4405,-9.6033,-9.6266,-9.6731,-9.7921,-9.8386,-9.9407,-10.1268,-10.1792,-10.2141,-10.249,-10.2199,-10.2548,-10.3828,-10.3944,-10.4526,-10.5805,-10.5922,-10.6503,-10.7783,-10.7841,-10.8423,-10.9644,-10.9702,-11.0284,-11.1564,-11.1564,-11.1738,-11.2087,-11.2087,-11.2611,-11.3541,-11.4472,-11.5054,-11.5403,-11.5403,-11.5635,-11.5984,-11.5984,-11.6566,-11.7264,-11.6333,-11.5984,-11.5984,-11.5984,-11.5984,-11.5984,-11.5984,-11.5984,-11.6159,-11.709,-11.738,-11.7555,-11.8544,-11.8776,-11.8776,-11.8776,-11.8776,-11.8776,-11.8776,-11.9067,-11.93,-11.93,-11.9591,-11.9823,-11.9823,-12.058,-12.1219,-12.1219,-12.1976,-12.2615,-12.2615,-12.1045,-11.9823,-11.9823,-11.9823,-12.0231,-12.1103,-12.0405,-12.0231,-12.1161,-12.0405,-11.9823,-11.9823,-11.9823,-11.9823,-11.9823,-11.9823,-11.9649,-11.93,-11.93,-11.7581,-11.4152,-11.4152,-11.0809,-10.4641,-10.4641,-10.2867,-8.3858,-8.1882,-7.979,-8.1649,-8.2306,-8.3527,-8.7657,-8.7483,-8.7483,-9.1205,-9.1962,-9.2194,-9.295,-9.3067,-9.3474,-9.4754,-9.4986,-9.5393,-9.6673,-9.6848,-9.7604,-9.964,-9.9872,-9.9872,-9.9872,-10.0338,-10.121,-10.249,-10.2606,-10.313,-10.4467,-10.4526,-10.5107,-10.6445,-10.6503,-10.7085,-10.8365,-10.8423,-10.9004,-11.0226,-11.0226,-11.0517,-11.0982,-11.0982,-11.1389,-11.2204,-11.2902,-11.3251,-11.3251,-11.3251,-11.36,-11.4123,-11.4123,-11.4879,-11.5752,-11.3949,-11.3251,-11.3251,-11.3251,-11.3251,-11.3251,-11.3251,-11.3251,-11.3425,-11.4123,-11.4356,-11.4647,-11.5984,-11.6392,-11.6508,-11.7031,-11.7148,-11.7148,-11.7148,-11.7555,-11.7962,-11.7962,-11.8369,-11.8776,-11.8776,-11.9416,-11.9882,-11.9882,-12.0521,-12.0987,-12.0987,-11.9765,-11.8776,-11.8776,-11.8776,-11.9067,-11.9823,-11.9242,-11.9125,-11.9823,-11.9242,-11.8776,-11.8776,-11.8776,-11.8776,-11.8776,-11.8776,-11.8544,-11.7962,-11.6651,-11.398,-10.9885,-10.9065,-10.5638,-9.9844,-10.0751,-9.9681,-7.5617,-7.3872,-7.2999,-7.5035,-7.4744,-7.6722,0.0,-8.597,-8.4148,-8.9402,-9.0449,-9.0624,-9.1205,-9.1322,-9.1845,-9.3358,-9.3648,-9.4114,-9.5481,-9.5655,-9.5975,-9.6991,-9.7166,-9.7224,-9.734,-9.8502,-9.9814,-10.0977,-10.121,-10.1792,-10.3071,-10.3188,-10.3769,-10.5107,-10.5165,-10.5747,-10.7085,-10.7085,-10.7725,-10.9104,-10.9104,-10.9528,-11.0575,-11.0575,-11.0633,-11.0808,-11.0808,-11.0866,-11.0982,-11.0982,-11.168,-11.2785,-11.2785,-11.3425,-11.4181,-11.1855,-11.0982,-11.0982,-11.0982,-11.0982,-11.0982,-11.0982,-11.0982,-11.0982,-11.0982,-11.0982,-11.1215,-11.2436,-11.2785,-11.3018,-11.4181,-11.4472,-11.4472,-11.4647,-11.5519,-11.6392,-11.6566,-11.7497,-11.8369,-11.8369,-11.8486,-11.8602,-11.8602,-11.8718,-11.8718,-11.8427,-11.8369,-11.8369,-11.8369,-11.8369,-11.8369,-11.8369,-11.8486,-11.8544,-11.8369,-11.8253,-11.8078,-11.7904,-11.7904,-11.7904,-11.7904,-11.7904,-11.738,-11.6159,-11.3121,-10.9008,-10.3791,-10.1674,-9.812,-9.3174,-9.5126,-9.4882,0.0,0.0,0.0,0.0,0.0,0.0,0.0,-7.3523,-7.4977,-8.0096,-8.1143,-8.2364,-8.6494,-8.725,-8.8355,-9.1787,-9.2311,-9.2776,-9.4056,-9.423,-9.4346,-9.4579,-9.4579,-9.4986,-9.6033,-9.7255,-9.8037,-9.827,-9.9349,-10.0512,-10.1792,-10.185,-10.2432,-10.3711,-10.3769,-10.4409,-10.5747,-10.5747,-10.6387,-10.7667,-10.7667,-10.7783,-10.8016,-10.8016,-10.8539,-10.9528,-10.9528,-11.011,-11.0982,-11.0982,-11.1157,-11.1389,-11.1389,-11.1506,-11.168,-11.1157,-11.0982,-11.0982,-11.0982,-11.0982,-11.0982,-11.0982,-11.0982,-11.0982,-11.0982,-11.0982,-11.104,-11.1273,-11.1389,-11.1447,-11.168,-11.1738,-11.2029,-11.3076,-11.3541,-11.4007,-11.5054,-11.5461,-11.5635,-11.5635,-11.645,-11.7148,-11.7148,-11.8078,-11.8078,-11.5984,-11.5635,-11.5635,-11.5635,-11.5635,-11.5635,-11.5635,-11.6566,-11.6799,-11.5752,-11.4705,-11.3658,-11.2553,-11.2494,-11.2494,-11.2494,-11.2494,-11.2378,-11.2145,-10.9205,-10.6077,-10.239,-9.9758,-9.6605,-9.3125,-9.3564,-9.2637,0.0,0.0,0.0,0.0,0.0,0.0,0.0,0.0,0.0,0.0,0.0,-7.7536,-8.0794,0.0,-8.6029,-8.8646,-9.0682,-9.2194,-9.2834,-9.2892,-9.2892,-9.2892,-9.3474,-9.4114,-9.484,-9.5975,-9.6731,-9.6731,-9.7895,-9.8793,-9.9523,-10.0163,-10.1094,-10.2373,-10.2432,-10.3071,-10.4351,-10.4351,-10.47,-10.534,-10.534,-10.534,-10.534,-10.6038,-10.6678,-10.7318,-10.7957,-10.8597,-10.9121,-10.9121,-10.9528,-10.9877,-10.7957,-10.7201,-10.7201,-10.7201,-10.7201,-10.7201,-10.7201,-10.7201,-10.7201,-10.7201,-10.7201,-10.7318,-10.7957,-10.819,-10.8423,-10.9702,-11.011,-11.0226,-11.0808,-11.0982,-11.1157,-11.1796,-11.1971,-11.2145,-11.2785,-11.296,-11.296,-11.296,-11.3425,-11.4123,-11.4763,-11.4879,-11.4472,-11.3134,-11.296,-11.296,-11.296,-11.296,-11.2494,-11.1215,-11.168,-11.1796,-11.1157,-11.0517,-11.04,-11.0924,-11.0982,-11.0982,-11.0982,-11.0982,-11.0982,-11.0982,-10.6081,-10.2633,-10.0459,-9.5979,-9.2573,-8.9953,-8.9953,-8.9367,0.0,0.0,0.0,0.0,0.0,0.0,0.0,0.0,0.0,0.0,0.0,0.0,0.0,0.0,0.0,-8.5447,-8.9228,-9.1962,-9.1962,-9.1962,-9.1962,-9.1962,-9.2892,-9.3474,-9.3474,-9.4637,-9.5481,-9.5481,-9.6557,-9.7224,-9.7224,-9.8244,-9.9407,-10.0687,-10.0745,-10.1443,-10.3013,-10.3013,-10.313,-10.3362,-10.3362,0.0,-10.342,-10.4467,-10.4991,-10.5049,-10.6096,-10.6503,-10.6503,-10.6503,-10.7143,-10.7823,-10.4584,-10.3362,-10.3362,-10.3362,-10.3362,-10.3362,-10.3362,-10.3362,-10.3362,-10.3362,-10.3362,-10.3595,-10.4642,-10.4991,0.0,-10.7492,-10.8074,-10.8365,-10.9586,-10.9877,-10.9993,-11.0517,-11.0633,-11.0691,-11.0924,-11.0982,-11.0982,-11.0982,-11.0982,-11.1331,-11.2378,-11.1273,-11.0284,-11.0284,-11.0691,-11.0808,-11.0342,-11.0691,-11.0226,-10.819,-10.8016,-10.8016,-10.8016,-10.7085,-10.7608,-11.011,-10.9353,-10.8655,-10.8423,-10.8423,-10.8423,-10.8423,-10.1819,-9.8309,-9.8147,-9.2313,-8.8488,-8.6682,-8.4193,-8.3705,0.0,0.0,0.0,0.0,0.0,0.0,0.0,0.0,0.0,0.0,0.0,0.0,0.0,0.0,0.0,0.0,-8.8646,-9.1962,-9.1962,-9.1962,-9.1962,-9.1962,-9.2078,-9.2194,-9.2194,-9.3358,-9.4056,-9.4056,-9.5364,-9.6063,-9.6063,-9.6179,0.0,0.0,0.0,-9.9142,-10.1675,-10.1675,-10.2257,-10.3362,-10.3362,-10.3362,-10.3362,-10.3537,-10.3595,-10.3595,-10.3769,-10.3828,-10.3828,-10.3828,-10.3886,-10.4002,-10.3537,-10.3362,-10.3362,-10.3362,-10.3362,-10.3362,-10.3362,0.0,0.0,-10.3362,-10.3362,-10.342,-10.3537,-10.3595,-10.3653,-10.3944,-10.4002,-10.4351,-10.5689,-10.6038,-10.6561,-10.883,-10.9412,-10.9702,-11.0749,-11.0982,-11.0982,-11.0982,-11.0982,-11.104,-11.1157,-10.9237,-10.7667,-10.7667,-10.9586,-11.0168,-10.7957,-10.9644,-11.0866,-11.0575,-11.0575,0.0,-11.0575,-10.6445,-10.4933,-10.755,-10.3362,-10.0338,-9.9083,-9.9083,-9.9083,-9.9083,-9.3565,-9.2255,-9.5463,-8.9829,-8.6975,-8.6487,-7.5017,-7.2723,0.0,0.0,0.0,0.0,0.0,0.0,0.0,0.0,0.0,0.0,0.0,0.0,0.0,0.0,0.0,0.0,-8.4032,-8.7483,-8.7541,-8.946,-9.1089,-9.1845,-9.1962,-9.1962,-9.1962,-9.2427,-9.2776,-9.2776,-9.3939,-9.4637,-9.4637,-9.5481,-9.6121,-9.6557,-9.6557,-9.708,-9.8127,-9.8127,-9.8508,-9.9032,-9.9032,-9.9032,-9.909,-9.9698,-10.0047,-10.0105,-10.0861,-10.1152,-10.121,-10.1966,-10.2257,-10.2024,0.0,0.0,0.0,0.0,-9.9032,-9.9032,-9.9032,-9.9032,-9.9058,-9.9814,-10.0047,-10.0338,-10.1792,-10.2257,-10.2432,-10.3188,-10.3362,-10.3479,-10.406,-10.4235,-10.4467,-10.5573,-10.5805,-10.598,-10.6445,-10.6561,-10.6561,-10.6561,-10.6561,0.0,-10.6561,-10.5689,-10.4991,-10.4991,-10.5863,-10.6212,-10.5165,-10.5922,-10.598,-10.4526,-10.4351,-10.4351,-10.4351,-10.2373,0.0,0.0,0.0,-10.1559,-10.0977,-10.0977,0.0,0.0,0.0,-8.6535,-8.5247,-7.8048,0.0,0.0,-7.0381,-6.9453,0.0,0.0,0.0,0.0,0.0,0.0,0.0,0.0,0.0,0.0,0.0,0.0,0.0,0.0,0.0,0.0,-7.8641,-8.2655,-8.2713,-8.5738,-8.8297,-8.9228,-9.0566,-9.1147,-9.0449,-9.1322,-9.1962,-9.1962,-9.2834,-9.3358,-9.3358,-9.423,-9.487,-9.5306,-9.5364,-9.5481,-9.583,-9.583,-9.583,-9.583,-9.583,-9.583,-9.5888,-9.6731,-9.7138,-9.7197,-9.8127,-9.8534,-9.8593,-9.9523,-9.9872,-9.964,-9.6936,-9.583,-9.583,-9.583,-9.583,-9.583,-9.583,-9.583,-9.6005,-9.6848,-9.7138,-9.7487,-9.9349,-9.9872,-10.0105,-10.1036,-10.1361,-10.1385,-10.1734,-10.1792,-10.1966,-10.2664,-10.2839,-10.2955,-10.3304,-10.3362,-10.3362,-10.3362,-10.2257,-10.1385,-10.1734,-10.2083,-10.2199,-10.185,-10.2722,-10.313,-10.2432,-10.2955,-10.2664,-10.0803,-10.0628,-10.0628,-10.0628,-9.964,-10.0105,-10.2664,-10.1559,-10.1094,-10.1792,-10.0454,-9.8076,-9.4669,-8.735,-8.1465,0.0,0.0,0.0,0.0,0.0,0.0,0.0,0.0,0.0,0.0,0.0,0.0,0.0,0.0,0.0,0.0,0.0,0.0,0.0,0.0,0.0,0.0,0.0,0.0,-7.87,-8.0968,-8.2672,-8.2731,-8.7076,-8.9111,-8.6552,-8.9751,-9.1962,-9.1962,-9.202,-9.202,-9.202,-9.2078,-9.266,-9.3881,-9.3939,-9.4521,-9.583,-9.583,-9.583,-9.583,-9.583,-9.583,-9.583,-9.5888,-9.5888,-9.5888,-9.5946,-9.5946,-9.5946,-9.6005,-9.6005,-9.6005,-9.5888,-9.583,-9.583,-9.583,-9.583,-9.583,-9.583,-9.583,-9.583,-9.5888,-9.5888,-9.5946,-9.6005,-9.6005,-9.6005,-9.6063,-9.6063,-9.6266,-9.7398,-9.7747,-9.8386,-10.0919,-10.1501,-10.185,-10.313,-10.3362,-10.3362,-10.3362,-9.9498,-9.6382,-9.7514,-9.8793,-9.9232,-9.7921,-10.0977,0.0,-9.9989,-10.185,-10.3362,-10.3246,-10.3246,-10.3246,-10.3246,-9.9872,-9.8735,-10.1385,-9.6906,-9.5277,-9.7631,-9.2982,-8.9249,-8.6686,-8.144,-7.742,-7.4793,0.0,0.0,0.0,0.0,0.0,0.0,0.0,0.0,0.0,0.0,0.0,0.0,0.0,0.0,0.0,0.0,0.0,0.0,0.0,0.0,0.0,0.0,0.0,0.0,-7.7362,-8.145,-8.2323,-8.4633,-8.5136,-8.2597,-8.5854,-8.8123,-8.8123,-9.0507,-9.1962,-9.1962,-9.1962,-9.2136,-9.2601,-9.2601,-9.2834,-9.3241,-9.3241,-9.3241,-9.3241,-9.3241,-9.3241,-9.3241,-9.3241,-9.3241,-9.3241,-9.3241,-9.3241,-9.3299,-9.4172,-9.3997,-9.3241,-9.3241,-9.3241,-9.3241,-9.3241,-9.3241,-9.3241,-9.3241,-9.3241,-9.3358,-9.423,-9.4521,-9.4637,-9.5597,-9.583,-9.583,-9.583,-9.583,-9.5946,-9.6266,-9.6382,-9.6615,-9.7487,-9.7751,-9.7868,-9.8333,-9.845,-9.845,-9.845,-9.7053,-9.5103,-9.295,-9.5103,-9.6033,-9.2982,-9.5859,-9.8101,-9.7138,-9.7868,-9.845,-9.845,-9.845,-9.845,-9.845,-9.7138,-9.6789,-9.7662,-9.6179,-9.5597,-9.6382,-9.4754,-9.2727,-9.0256,-8.5942,-7.9098,-6.9295,0.0,0.0,0.0,0.0,0.0,0.0,0.0,0.0,0.0,0.0,0.0,0.0,0.0,0.0,0.0,0.0,0.0,0.0,0.0,0.0,0.0,0.0,0.0,0.0,0.0,0.0,-8.0154,-8.1026,0.0,-7.8583,-8.0154,-8.155,-8.2015,-8.4807,-8.7076,-8.8472,-8.9402,-9.0333,-9.1264,-9.1729,-9.1962,-9.1962,-9.1962,-9.1962,-9.1962,-9.1962,-9.1962,-9.1962,-9.1962,-9.1962,-9.1962,-9.1962,-9.1962,-9.1962,-9.1845,-9.074,-8.917,-8.917,-8.8646,-8.7948,-8.8879,-8.9519,-9.0042,-9.0973,-9.1554,-9.2078,-9.2892,-9.1962,-9.0566,-9.138,-9.0682,-8.9926,-9.1264,-9.1962,-9.266,-9.4056,-9.4405,-9.4521,-9.5073,-9.519,-9.5306,-9.5772,-9.583,-9.5597,-9.4666,-9.4405,-9.3009,-8.8704,-9.0391,-9.1496,-8.8995,-9.1147,-9.3792,-9.5597,-9.583,-9.583,-9.583,-9.583,-9.583,-9.583,-9.583,-9.583,-9.583,-9.5422,-9.519,-9.519,-9.3883,-9.1275,-8.7242,-8.3099,-7.5453,0.0,0.0,0.0,0.0,0.0,0.0,0.0,0.0,0.0,0.0,0.0,0.0,0.0,0.0,0.0,0.0,0.0,0.0,0.0,0.0,0.0,0.0,0.0,0.0,0.0,0.0,0.0,-7.6198,-7.6198,0.0,0.0,0.0,0.0,-7.3988,-7.55,-7.7943,-8.1741,-8.4225,-8.6843,-8.9577,-9.0856,-9.1554,-9.1729,-9.1729,-9.1729,-9.1729,-9.1729,-9.1729,-9.1729,-9.1729,-9.1729,-9.1729,-9.1729,-9.1729,-9.1554,-8.8879,-8.6261,-8.3916,-8.3741,-8.2248,-8.0328,-8.2888,-8.4555,-8.6029,-8.8739,-9.0566,-9.1554,-9.1322,-8.7948,-8.38,-8.3509,-8.0894,0.0,0.0,-8.4555,-8.6552,-9.0449,-9.1554,-9.202,-9.3358,-9.3707,-9.4114,-9.5422,-9.5655,-9.4754,-9.1903,-9.138,-8.9635,-8.4148,0.0,-8.5447,-8.5331,-8.6668,-8.9577,-9.4724,-9.5539,-9.5655,-9.5655,-9.5655,-9.5655,-9.5655,-9.5655,-9.5655,-9.5655,-9.4318,-9.3679,-9.3765,-8.985,-8.4626,-7.8125,-7.3226,0.0,0.0,0.0,0.0,0.0,0.0,0.0,0.0,0.0,0.0,0.0,0.0,0.0,0.0,0.0,0.0,0.0,0.0,0.0,0.0,0.0,0.0,0.0,0.0,0.0,0.0,-6.5089,-6.8753,-7.201,-7.0673,-6.823,0.0,0.0,0.0,0.0,0.0,0.0,-7.5093,-7.6722,-7.963,-8.4167,-8.471,-8.6224,-8.8995,-8.9053,-8.9053,-8.9053,-8.9053,-8.9053,-8.9053,-8.9053,-8.9053,-8.9053,-8.9053,-8.9053,-8.8762,-8.535,-8.2963,-8.1143,-7.8234,-7.6082,-7.4977,-7.7594,-7.8686,-7.9615,-8.409,-8.5834,-8.5659,-8.2888,-8.1084,-7.9107,-7.4337,0.0,0.0,0.0,0.0,-7.9921,-8.3895,-8.6203,-8.8181,-9.0507,-9.1729,-9.2543,-9.2834,-9.295,-9.1031,-8.4633,-8.3411,-8.0503,-7.1545,-7.3406,0.0,-7.3639,-7.9339,-8.5059,-8.8181,-9.1147,-9.295,-9.295,-9.295,-9.295,-9.295,-9.295,-9.295,-9.295,-9.0944,-9.0512,-9.2342,-8.4114,-7.8298,-7.5712,0.0,0.0,0.0,0.0,0.0,0.0,0.0,0.0,0.0,0.0,0.0,0.0,0.0,0.0,0.0,0.0,0.0,0.0,0.0,0.0,0.0,0.0,0.0,0.0,0.0,0.0,0.0,-6.0901,-6.5321,-6.8055,-6.5148,-6.218,0.0,0.0,0.0,0.0,0.0,0.0,0.0,0.0,0.0,-7.6443,-7.7536,-7.9456,-8.2131,-8.44,-8.5563,-8.5641,-8.725,-8.8064,-8.8064,-8.8064,-8.8064,-8.8064,-8.8064,-8.6145,-8.2829,-8.0096,-7.6967,-7.3465,0.0,0.0,0.0,0.0,-7.0201,-7.1312,-7.5326,-7.7071,-7.7129,-7.4395,0.0,0.0,0.0,0.0,0.0,0.0,0.0,-7.5791,-7.9688,-8.3818,-8.7366,-8.8821,-8.9751,-9.0217,-9.0217,-8.6261,-8.1433,-7.7129,-7.5791,-7.2883,-6.4798,-6.5726,0.0,0.0,0.0,-7.9863,-8.4691,-8.917,-9.1962,-9.1962,-9.1962,-9.1962,-9.1962,-9.1438,-9.1089,-9.1089,-8.928,-8.7543,-8.602,-7.8492,-7.1736,0.0,0.0,0.0,0.0,0.0,0.0,0.0,0.0,0.0,0.0,0.0,0.0,0.0,0.0,0.0,0.0,0.0,0.0,0.0,0.0,0.0,0.0,0.0,0.0,0.0,0.0,0.0,0.0,0.0,-6.2297,-6.3925,0.0,0.0,0.0,0.0,0.0,0.0,0.0,0.0,0.0,0.0,0.0,0.0,0.0,-7.172,-7.3348,-7.7898,-8.0227,-8.046,-8.3876,-8.5563,-8.5563,-8.5738,-8.597,-8.6261,-8.5563,0.0,-7.6198,-7.3814,0.0,0.0,0.0,0.0,0.0,0.0,0.0,0.0,0.0,0.0,0.0,0.0,0.0,0.0,0.0,0.0,0.0,0.0,0.0,0.0,0.0,0.0,-8.5854,-8.597,-8.6436,-8.6494,-8.5272,-7.7187,-6.9916,-6.9044,-6.7997,-6.5496,0.0,0.0,0.0,0.0,0.0,0.0,-8.2231,-8.8006,-9.1438,-9.1438,-9.1438,-9.1438,-9.1438,-9.0391,-8.9809,-8.9809,-8.7428,-8.3617,-7.812,-7.2423,0.0,0.0,0.0,0.0,0.0,0.0,0.0,0.0,0.0,0.0,0.0,0.0,0.0,0.0,0.0,0.0,0.0,0.0,0.0,0.0,0.0,0.0,0.0,0.0,0.0,0.0,0.0,0.0,0.0,0.0,0.0,0.0,0.0,0.0,0.0,0.0,0.0,0.0,0.0,0.0,0.0,0.0,0.0,0.0,0.0,0.0,0.0,0.0,0.0,0.0,-7.1487,-7.2359,-7.2359,-7.3406,-7.5035,-7.6722,-7.26,-7.2301,-7.4395,-6.6714,0.0,0.0,0.0,0.0,0.0,0.0,0.0,0.0,0.0,0.0,0.0,0.0,0.0,0.0,0.0,0.0,0.0,0.0,0.0,0.0,0.0,0.0,-7.4163,-7.5151,-7.7827,-7.8176,-7.0731,0.0,0.0,0.0,0.0,0.0,0.0,0.0,0.0,0.0,0.0,0.0,-7.7175,-8.4284,-8.8704,-8.8704,-8.8704,-8.8704,-8.8704,-8.853,-8.8413,-8.8413,-8.0308,-7.5567,0.0,0.0,0.0,0.0,0.0,0.0,0.0,0.0,0.0,0.0,0.0,0.0,0.0,0.0,0.0,0.0,0.0,0.0,0.0,0.0,0.0,0.0,0.0,0.0,0.0,0.0,0.0,0.0,0.0,0.0,0.0,0.0,0.0,0.0,0.0,0.0,0.0,0.0,0.0,0.0,0.0,0.0,0.0,0.0,0.0,0.0,0.0,0.0,0.0,0.0,0.0,0.0,0.0,0.0,0.0,0.0,0.0,0.0,-6.4915,-6.148,0.0,0.0,0.0,0.0,0.0,0.0,0.0,0.0,0.0,0.0,0.0,0.0,0.0,0.0,0.0,0.0,0.0,0.0,0.0,0.0,0.0,0.0,0.0,0.0,0.0,0.0,0.0,0.0,0.0,0.0,0.0,0.0,0.0,0.0,0.0,0.0,0.0,0.0,0.0,0.0,-7.393,-8.248,-8.8064,-8.8064,-8.8064,-8.8064,-8.8064,-8.5905,-8.361,-8.1356,-7.3805,0.0,0.0,0.0,0.0,0.0,0.0,0.0,0.0,0.0,0.0,0.0,0.0,0.0,0.0,0.0,0.0,0.0,0.0,0.0,0.0,0.0,0.0,0.0,0.0,0.0,0.0,0.0,0.0,0.0,0.0,0.0,0.0,0.0,0.0,0.0,0.0,0.0,0.0,0.0,0.0,0.0,0.0,0.0,0.0,0.0,0.0,0.0,0.0,0.0,0.0,0.0,0.0,0.0,0.0,0.0,0.0,0.0,0.0,0.0,-5.8045,-5.2223,0.0,0.0,0.0,0.0,0.0,0.0,0.0,0.0,0.0,0.0,0.0,0.0,0.0,0.0,0.0,0.0,0.0,0.0,0.0,0.0,0.0,0.0,0.0,0.0,0.0,0.0,0.0,0.0,0.0,0.0,0.0,0.0,0.0,0.0,0.0,0.0,0.0,0.0,0.0,0.0,-7.1254,-8.0386,-8.6436,-8.6436,-8.6436,-8.6277,-8.5822,-8.2494,-7.8351,-7.3695,-6.7346,0.0,0.0,0.0,0.0,0.0,0.0,0.0,0.0,0.0,0.0,0.0,0.0,0.0,0.0,0.0,0.0,0.0,0.0,0.0,0.0,0.0,0.0,0.0,0.0,0.0,0.0,0.0,0.0,0.0,0.0,0.0,0.0,0.0,0.0,0.0,0.0,0.0,0.0,0.0,0.0,0.0,0.0,0.0,0.0,0.0,0.0,0.0,0.0,0.0,0.0,0.0,0.0,0.0,0.0,0.0,0.0,0.0,0.0,0.0,0.0,0.0,0.0,0.0,0.0,0.0,0.0,0.0,0.0,0.0,0.0,0.0,0.0,0.0,0.0,0.0,0.0,0.0,0.0,0.0,0.0,0.0,0.0,0.0,0.0,0.0,0.0,0.0,0.0,0.0,0.0,0.0,0.0,0.0,0.0,0.0,0.0,0.0,0.0,0.0,0.0,0.0,-6.8695,-7.6257,-8.1143,-8.1143,-8.1143,-8.0413,-7.8548,-7.8013,-7.503,-6.8912,0.0,0.0,0.0,0.0,0.0,0.0,0.0,0.0,0.0,0.0,0.0,0.0,0.0,0.0,0.0,0.0,0.0,0.0,0.0,0.0,0.0,0.0,0.0,0.0,0.0,0.0,0.0,0.0,0.0,0.0,0.0,0.0,0.0,0.0,0.0,0.0,0.0,0.0,0.0,0.0,0.0,0.0,0.0,0.0,0.0,0.0,0.0,0.0,0.0,0.0,0.0,0.0,0.0,0.0,0.0,0.0,0.0,0.0,0.0,0.0,0.0,0.0,0.0,0.0,0.0,0.0,0.0,0.0,0.0,0.0,0.0,0.0,0.0,0.0,0.0,0.0,0.0,0.0,0.0,0.0,0.0,0.0,0.0,0.0,0.0,0.0,0.0,0.0,0.0,0.0,0.0,0.0,0.0,0.0,0.0,0.0,0.0,0.0,0.0,0.0,0.0,0.0,-6.7124,-7.521,-8.0518,-8.0518,-7.9364,-7.8252,-7.7431,-7.38,-6.8487,-6.1387,0.0,0.0,0.0,0.0,0.0,0.0,0.0,0.0,0.0,0.0,0.0,0.0,0.0,0.0,0.0,0.0,0.0,0.0,0.0,0.0,0.0,0.0,0.0,0.0,0.0,0.0,0.0,0.0,0.0,0.0,0.0,0.0,0.0,0.0,0.0,0.0,0.0,0.0,0.0,0.0,0.0,0.0,0.0,0.0,0.0,0.0,0.0,0.0,0.0,0.0,0.0,0.0,0.0,0.0,0.0,0.0,0.0,0.0,0.0,0.0,0.0,0.0,0.0,0.0,0.0,0.0,0.0,0.0,0.0,0.0,0.0,0.0,0.0,0.0,0.0,0.0,0.0,0.0,0.0,0.0,0.0,0.0,0.0,0.0,0.0,0.0,0.0,0.0,0.0,0.0,0.0,0.0,0.0,0.0,0.0,0.0,0.0,0.0,0.0,0.0,0.0,0.0,-6.474,-7.2825,-7.7975,-7.7471,-7.604,-7.4716,-7.3576,-6.9228,-6.3069,-5.4963,0.0,0.0,0.0,0.0,0.0,0.0,0.0,0.0,0.0,0.0,0.0,0.0,0.0,0.0,0.0,0.0,0.0,0.0,0.0,0.0,0.0,0.0,0.0,0.0,0.0,0.0,0.0,0.0,0.0,0.0,0.0,0.0,0.0,0.0,0.0,0.0,0.0,0.0,0.0,0.0,0.0,0.0,0.0,0.0,0.0,0.0,0.0,0.0,0.0,0.0,0.0,0.0,0.0,0.0,0.0,0.0,0.0,0.0,0.0,0.0,0.0,0.0,0.0,0.0,0.0,0.0,0.0,0.0,0.0,0.0,0.0,0.0,0.0,0.0,0.0,0.0,0.0,0.0,0.0,0.0,0.0,0.0,0.0,0.0,0.0,0.0,0.0,0.0,0.0,0.0,0.0,0.0,0.0,0.0,0.0,0.0,0.0,0.0,0.0,0.0,0.0,0.0,-6.0787,-6.7993,-7.2096,-7.0284,-7.0075,-6.8524,-6.4604,-6.4224,-6.0033,0.0,0.0,0.0,0.0,0.0,0.0,0.0,0.0,0.0,0.0,0.0,0.0,0.0,0.0,0.0,0.0,0.0,0.0,0.0,0.0,0.0,0.0,0.0,0.0,0.0,0.0,0.0,0.0,0.0,0.0,0.0,0.0,0.0,0.0,0.0,0.0,0.0,0.0,0.0,0.0,0.0,0.0,0.0,0.0,0.0,0.0,0.0,0.0,0.0,0.0,0.0,0.0,0.0,0.0,0.0,0.0,0.0,0.0,0.0,0.0,0.0,0.0,0.0,0.0,0.0,0.0,0.0,0.0,0.0,0.0,0.0,0.0,0.0,0.0,0.0,0.0,0.0,0.0,0.0,0.0,0.0,0.0,0.0,0.0,0.0,0.0,0.0,0.0,0.0,0.0,0.0,0.0,0.0,0.0,0.0,0.0,0.0,0.0,0.0,0.0,0.0,0.0,0.0,-6.038,-6.4637,-6.779,-6.9738,-6.7553,-6.5477,-6.4249,-6.2188,-5.7745,-5.0239,0.0,0.0,0.0,0.0,0.0,0.0,0.0,0.0,0.0,0.0,0.0,0.0,0.0,0.0,0.0,0.0,0.0,0.0,0.0,0.0,0.0,0.0,0.0,0.0,0.0,0.0,0.0,0.0,0.0,0.0,0.0,0.0,0.0,0.0,0.0,0.0,0.0,0.0,0.0,0.0,0.0,0.0,0.0,0.0,0.0,0.0,0.0,0.0,0.0,0.0,0.0,0.0,0.0,0.0,0.0,0.0,0.0,0.0,0.0,0.0,0.0,0.0,0.0,0.0,0.0,0.0,0.0,0.0,0.0,0.0,0.0,0.0,0.0,0.0,0.0,0.0,0.0,0.0,0.0,0.0,0.0,0.0,0.0,0.0,0.0,0.0,0.0,0.0,0.0,0.0,0.0,0.0,0.0,0.0,0.0,0.0,0.0,0.0,0.0,0.0,0.0,0.0,0.0,-6.2968,-6.6463,-6.7377,-6.5324,-6.3333,-6.1938,-6.0019,-5.6129,-4.9589,0.0,0.0,0.0,0.0,0.0,0.0,0.0,0.0,0.0,0.0,0.0,0.0,0.0,0.0,0.0,0.0,0.0,0.0,0.0,0.0,0.0,0.0,0.0,0.0,0.0,0.0,0.0,0.0,0.0,0.0,0.0,0.0,0.0,0.0,0.0,0.0,0.0,0.0,0.0,0.0,0.0,0.0,0.0,0.0,0.0,0.0,0.0,0.0,0.0,0.0,0.0,0.0,0.0,0.0,0.0,0.0,0.0,0.0,0.0,0.0,0.0,0.0,0.0,0.0,0.0,0.0,0.0,0.0,0.0,0.0,0.0,0.0,0.0,0.0,0.0,0.0,0.0,0.0,0.0,0.0,0.0,0.0,0.0,0.0,0.0,0.0,0.0,0.0,0.0,0.0,0.0,0.0,0.0,0.0,0.0,0.0,0.0,0.0,0.0,0.0,0.0,0.0,0.0,-6.2406,-6.6733,-6.3563,-6.3079,-6.1586,-5.8186,-5.7935,-5.5153,-4.8598,-4.6112,0.0,0.0,0.0,0.0,0.0,0.0,0.0,0.0,0.0,0.0,0.0,0.0,0.0,0.0,0.0,0.0,0.0,0.0,0.0,0.0,0.0,0.0,0.0,0.0,0.0,0.0,0.0,0.0,0.0,0.0,0.0,0.0,0.0,0.0,0.0,0.0,0.0,0.0,0.0,0.0,0.0,0.0,0.0,0.0,0.0,0.0,0.0,0.0,0.0,0.0,0.0,0.0,0.0,0.0,0.0,0.0,0.0,0.0,0.0,0.0,0.0,0.0,0.0,0.0,0.0,0.0,0.0,0.0,0.0,0.0,0.0,0.0,0.0,0.0,0.0,0.0,0.0,0.0,0.0,0.0,0.0,0.0,0.0,0.0,0.0,0.0,0.0,0.0,0.0,0.0,0.0,0.0,0.0,0.0,0.0,0.0,0.0,0.0,0.0,0.0,0.0,0.0,-5.8518,-5.8989,-6.1113,-6.0033,-5.8883,-5.7961,-5.7935,-5.5153,-4.8598,-4.6112,0.0,0.0,0.0,0.0,0.0,0.0,0.0,0.0,0.0,0.0,0.0,0.0,0.0,0.0,0.0,0.0,0.0,0.0,0.0,0.0,0.0,0.0,0.0,0.0,0.0,0.0,0.0,0.0,0.0,0.0,0.0,0.0,0.0,0.0,0.0,0.0,0.0,0.0,0.0,0.0,0.0,0.0,0.0,0.0,0.0,0.0,0.0,0.0,0.0,0.0,0.0,0.0,0.0,0.0,0.0,0.0,0.0,0.0,0.0,0.0,0.0,0.0,0.0,0.0,0.0,0.0,0.0,0.0,0.0,0.0,0.0,0.0,0.0,0.0,0.0,0.0,0.0,0.0,0.0,0.0,0.0,0.0,0.0,0.0,0.0,0.0,0.0,0.0,0.0,0.0,0.0,0.0,0.0,0.0,0.0,0.0,0.0,0.0,0.0,0.0,0.0,0.0,-5.2519,-5.3953,-6.0039,-5.9741,-5.8883,-5.7961,-5.7935,-5.5153,-4.8598,-4.5673,0.0,0.0,0.0,0.0,0.0,0.0,0.0,0.0,0.0,0.0,0.0,0.0,0.0,0.0,0.0,0.0,0.0,0.0,0.0,0.0,0.0,0.0,0.0,0.0,0.0,0.0,0.0,0.0,0.0,0.0,0.0,0.0,0.0,0.0,0.0,0.0,0.0,0.0,0.0,0.0,0.0,0.0,0.0,0.0,0.0,0.0,0.0,0.0,0.0,0.0,0.0,0.0,0.0,0.0,0.0,0.0,0.0,0.0,0.0,0.0,0.0,0.0,0.0,0.0,0.0,0.0,0.0,0.0,0.0,0.0,0.0,0.0,0.0,0.0,0.0,0.0,0.0,0.0,0.0,0.0,0.0,0.0,0.0,0.0,0.0,0.0,0.0,0.0,0.0,0.0,0.0,0.0,0.0,0.0,0.0,0.0,0.0,0.0,0.0,0.0,0.0,0.0,0.0,-5.1509,-5.8507,-5.9865,-5.9594,-5.8036,-5.7739,-5.4957,-4.8598,0.0,0.0,0.0,0.0,0.0,0.0,0.0,0.0,0.0,0.0,0.0,0.0,0.0,0.0,0.0,0.0,0.0,0.0,0.0,0.0,0.0,0.0,0.0,0.0,0.0,0.0,0.0,0.0,0.0,0.0,0.0,0.0,0.0,0.0,0.0,0.0,0.0,0.0,0.0,0.0,0.0,0.0,0.0,0.0,0.0,0.0,0.0,0.0,0.0,0.0,0.0,0.0,0.0,0.0,0.0,0.0,0.0,0.0,0.0,0.0,0.0,0.0,0.0,0.0,0.0,0.0,0.0,0.0,0.0,0.0,0.0,0.0,0.0,0.0,0.0,0.0,0.0,0.0,0.0,0.0,0.0,0.0,0.0,0.0,0.0,0.0,0.0,0.0,0.0,0.0,0.0,0.0,0.0,0.0,0.0,0.0,0.0,0.0,0.0,0.0,0.0,0.0,0.0,0.0,-5.3147,-5.2967,-5.6195,-5.8261,-5.7935,-5.7056,-5.4057,-4.8549,0.0,0.0,0.0,0.0,0.0,0.0,0.0,0.0,0.0,0.0,0.0,0.0,0.0,0.0]}],[{"header":{"parameterUnit":"kt","parameterCategory":2,"dx":1,"dy":1,"la1":29.285339999999998,"la2":30.599998999999997,"lo1":-89.70041500000002,"lo2":-87.6738589999976,"nx":112,"ny":82,"refTime":"2022-11-02T00:00:00:Z","depth":0,"parameterNumber":2,"parameterNumberName":"V-component_of_WINDS"},"data":[9.2051,9.3223,9.2832,8.4681,8.2524,8.0282,7.1845,7.1015,7.18,7.1162,7.2626,7.4627,7.6728,7.3944,0.0,0.0,0.0,0.0,0.0,5.9594,0.0,0.0,0.0,0.0,0.0,0.0,0.0,0.0,0.0,0.0,0.0,10.2887,10.2887,10.2887,10.3521,10.4546,10.6059,10.6742,10.7816,10.928,10.928,10.928,10.928,10.928,10.928,10.928,10.928,11.011,11.1526,11.2258,11.2746,11.3136,11.3136,11.3136,11.299,11.1867,11.2843,11.4796,11.543,11.5625,11.5625,11.5625,11.5625,11.5625,11.5625,11.5625,11.5479,11.4747,11.5088,11.5479,11.4747,11.5088,11.5625,11.5625,11.5625,11.5625,11.5625,11.5625,11.5625,11.5625,11.5137,11.4698,11.4698,11.3819,11.2746,11.1623,11.0549,10.9817,10.9817,10.9524,10.928,10.928,10.928,10.928,10.928,10.928,10.928,10.928,10.928,10.928,10.928,10.928,11.2034,11.7757,11.9077,12.2626,12.8379,12.9699,13.0235,13.0235,13.0235,13.0235,8.7903,8.883,8.8195,7.8771,7.6431,7.4286,6.6134,6.5353,6.633,6.5988,6.8721,7.1113,7.0814,6.9795,6.8193,0.0,0.0,0.0,0.0,0.0,0.0,0.0,0.0,0.0,0.0,0.0,0.0,0.0,9.2002,0.0,10.2447,10.2887,10.2887,10.2887,10.3863,10.4936,10.6059,10.7133,10.8207,10.928,10.928,10.928,10.928,10.928,10.928,10.928,10.928,10.9866,11.094,11.2062,11.2746,11.3039,11.2697,11.2746,11.2941,11.1867,11.2599,11.4308,11.5284,11.5625,11.5625,11.5625,11.5625,11.5625,11.5625,11.5625,11.5625,11.5625,11.5625,11.5625,11.5625,11.5625,11.5625,11.5625,11.5625,11.5625,11.5625,11.5625,11.5528,11.5186,11.46,11.4015,11.3673,11.2404,11.1184,11.0452,10.972,10.928,10.928,10.928,10.928,10.928,10.928,10.928,10.928,10.928,10.928,10.928,10.928,10.928,10.928,10.928,11.1527,11.6072,11.8551,12.2114,12.6677,12.9041,13.0235,13.0235,13.0235,13.0235,8.3423,8.1761,7.9806,7.1167,6.9022,6.7608,6.2327,6.2669,6.4475,6.5549,6.7403,6.9071,7.0374,6.96,6.7754,6.4817,0.0,0.0,0.0,0.0,0.0,0.0,0.0,0.0,0.0,8.229,8.3656,0.0,9.005,9.1661,10.2301,10.2887,10.2887,10.2887,10.3863,10.4936,10.6059,10.7133,10.8207,10.928,10.928,10.928,10.928,10.928,10.928,10.928,10.928,10.9866,11.0891,11.2014,11.3136,11.3966,11.2892,11.3136,11.3917,11.2892,11.3185,11.421,11.5235,11.5625,11.5625,11.5625,11.5625,11.5625,11.5625,11.5625,11.5625,11.5625,11.5625,11.5625,11.5625,11.5625,11.5625,11.5625,11.5625,11.5625,11.5625,11.5625,11.5333,11.4356,11.4112,11.3722,11.2648,11.0696,10.928,10.928,10.928,10.928,10.928,10.928,10.928,10.928,10.928,10.928,10.928,10.928,10.928,10.928,10.928,10.928,10.928,10.928,10.9422,10.9515,11.6206,11.9863,12.0123,12.6923,13.0235,13.0235,13.0235,13.0235,7.5213,7.5604,7.6288,7.1406,6.9649,6.7998,6.428,6.2035,6.1351,6.3157,6.3352,0.0,0.0,0.0,6.345,6.4265,0.0,6.7267,0.0,6.9551,0.0,0.0,0.0,0.0,0.0,9.0782,9.3271,10.0153,9.5663,9.5614,10.2496,10.2887,10.2887,10.2887,10.3863,10.4936,10.6059,10.7133,10.8207,10.928,10.928,10.928,10.928,10.928,10.928,10.928,10.928,10.9427,10.9768,11.0891,11.1965,11.2892,11.177,11.1526,11.1721,11.1428,11.2014,11.3136,11.421,11.504,11.5625,11.5625,11.5625,11.5625,11.5625,11.5625,11.5625,11.5625,11.5625,11.5625,11.5625,11.5625,11.5625,11.5625,11.5625,11.5625,11.5625,11.5625,11.5333,11.4356,11.3527,11.2648,11.1526,11.0159,10.928,10.928,10.928,10.928,10.928,10.928,10.928,10.928,10.928,10.928,10.928,10.928,10.928,10.928,10.928,10.928,10.928,10.928,11.1617,11.6743,11.8683,12.2242,12.7348,12.9281,13.0235,13.0235,13.0235,13.0235,7.2867,7.2818,7.3309,6.969,6.9209,6.8331,6.2864,6.1205,6.101,6.1791,0.0,0.0,0.0,0.0,0.0,0.0,6.7843,0.0,0.0,0.0,8.0874,0.0,0.0,0.0,9.4296,9.4687,9.703,10.2496,9.7859,9.7176,10.2594,10.2887,10.2887,10.2887,10.3863,10.4936,10.6059,10.7133,10.8207,10.928,10.928,10.928,10.928,10.928,10.928,10.928,10.928,10.928,10.9329,11.0403,11.1233,11.1721,11.0647,11.0452,11.0842,11.0842,11.1574,11.2697,11.3771,11.4796,11.5625,11.5625,11.5625,11.5625,11.5625,11.5625,11.5625,11.5625,11.5625,11.5625,11.5625,11.5625,11.5625,11.5625,11.5625,11.5625,11.5625,11.5333,11.4698,11.3673,11.2599,11.1477,11.0403,10.9671,10.928,10.928,10.928,10.928,10.928,10.928,10.928,10.928,10.928,10.928,10.928,10.928,10.928,10.928,10.928,10.928,10.928,10.928,11.1107,11.5313,11.8287,12.1675,12.588,12.88,13.0235,13.0235,13.0235,13.0235,7.287,7.1162,7.0332,6.6769,6.7745,6.7882,6.0912,0.0,6.3011,6.3011,0.0,6.3352,6.5695,0.0,0.0,6.4914,7.0869,7.4773,7.2723,7.9898,8.6097,8.8,9.6053,10.0349,9.742,9.6298,9.7713,10.2545,9.8445,9.7811,10.2643,10.2887,10.2887,10.2887,10.3765,10.479,10.6059,10.6986,10.806,10.928,10.928,10.928,10.928,10.928,10.928,10.928,10.928,10.928,10.9329,11.0305,11.0745,11.0745,10.9817,11.0012,11.0891,11.1037,11.1672,11.2697,11.3771,11.4796,11.5625,11.5528,11.5479,11.5479,11.5479,11.5577,11.5625,11.5625,11.5625,11.5625,11.5625,11.5625,11.5625,11.5625,11.5625,11.5625,11.5479,11.4796,11.3771,11.2599,11.1574,11.0549,10.9476,10.928,10.928,10.928,10.928,10.928,10.928,10.928,10.928,10.928,10.928,10.928,10.928,10.928,10.928,10.928,10.928,10.928,10.928,10.928,10.9374,10.9799,11.6341,11.9863,12.0383,12.6923,13.0235,13.0235,13.0235,13.0235,6.5744,6.4475,6.4719,6.5646,6.4377,6.384,0.0,0.0,0.0,7.3944,7.3944,7.37,7.6726,7.6579,7.6482,7.8096,8.2387,8.4877,0.0,9.0587,0.0,9.7127,10.0397,10.235,10.1715,10.1422,10.1764,10.2789,10.191,10.1764,10.2838,10.2887,10.2887,10.2887,10.3082,10.4107,10.6059,10.6254,10.7328,10.928,10.928,10.928,10.928,10.928,10.928,10.928,10.928,10.928,10.928,10.9476,11.0061,11.0842,11.0647,11.0696,11.0989,11.1867,11.2355,11.2697,11.3771,11.4796,11.5528,11.4698,11.4405,11.4405,11.4405,11.4991,11.5625,11.5625,11.5625,11.5625,11.5625,11.5625,11.5625,11.5625,11.5625,11.543,11.46,11.4259,11.3575,11.1574,11.1037,11.0549,10.9476,10.928,10.928,10.928,10.928,10.928,10.928,10.928,10.928,10.928,10.928,10.928,10.928,10.928,10.928,10.928,10.928,10.928,10.928,10.928,11.0596,11.3454,11.7677,12.116,12.3949,12.8258,13.0235,13.0235,13.0235,13.0235,6.3645,6.262,6.2767,6.3304,6.345,0.0,0.0,6.467,6.6086,7.2483,7.3065,7.3797,7.8576,7.9996,8.0533,8.107,8.5706,8.9611,9.0636,9.5907,9.9665,9.9665,10.1569,10.2887,10.2887,10.2887,10.2887,10.2887,10.2887,10.2887,10.2887,10.2887,10.2887,10.2887,10.2887,10.3912,10.6059,10.6059,10.7133,10.928,10.928,10.928,10.928,10.928,10.928,10.928,10.928,10.928,10.928,10.928,10.9573,11.0061,11.0061,11.0061,11.0159,11.0696,11.1233,11.1867,11.2941,11.3673,11.4112,11.4112,11.3771,11.3331,11.3331,11.4064,11.4991,11.5479,11.5625,11.5625,11.5625,11.5625,11.5625,11.5625,11.5625,11.5381,11.4356,11.3722,11.2843,11.1184,11.0452,10.9866,10.9378,10.928,10.928,10.928,10.928,10.928,10.928,10.928,10.928,10.928,10.928,10.928,10.928,10.928,10.928,10.928,10.928,10.928,10.928,10.928,11.0032,11.1895,11.7011,12.0643,12.237,12.7592,13.0235,13.0235,13.0235,13.0235,6.2669,6.2035,6.1937,6.1693,6.3157,0.0,6.3499,6.4084,6.6476,7.219,7.3555,7.5359,8.0874,8.3461,8.4486,8.3608,8.7854,9.2491,9.5907,9.8299,9.9665,9.9665,10.1569,10.2887,10.2887,10.2887,10.2887,10.2887,10.2887,10.2887,10.2887,10.2887,10.2887,10.2887,10.2887,10.3912,10.6059,10.6059,10.7133,10.928,10.928,10.928,10.928,10.928,10.928,10.928,10.928,10.928,10.928,10.928,10.9378,10.9573,10.9573,10.9573,10.9573,10.9573,11.011,11.0989,11.1916,11.2355,11.2648,11.3283,11.2941,11.2209,11.2209,11.299,11.4064,11.5088,11.5479,11.5625,11.5625,11.5625,11.5625,11.5625,11.5625,11.5333,11.4112,11.3136,11.216,11.0793,10.9866,10.928,10.928,10.928,10.928,10.928,10.928,10.928,10.928,10.928,10.928,10.928,10.928,10.928,10.928,10.928,10.928,10.928,10.928,10.928,10.928,10.928,10.928,10.928,11.477,11.8287,11.9732,12.5507,12.892,13.0235,13.0235,13.0235,5.9692,5.9838,6.0522,6.3255,6.2083,0.0,7.409,7.4578,7.5749,8.6716,8.9806,9.0977,9.2686,9.4004,9.4784,9.4638,9.5224,9.5858,9.6346,9.8299,9.9665,9.9665,10.1569,10.2887,10.2887,10.2887,10.2887,10.2887,10.2887,10.2887,10.2887,10.2887,10.2887,10.2887,10.2887,10.3912,10.6059,10.6059,10.7133,10.928,10.928,10.928,10.928,10.928,10.928,10.928,10.928,10.928,10.928,10.928,10.9817,11.0696,11.0696,11.0696,11.0696,11.0696,11.0745,11.0891,11.1037,11.1721,11.2404,11.1526,11.1135,11.1037,11.1037,11.1818,11.2941,11.4015,11.4942,11.5625,11.5625,11.5625,11.5625,11.5625,11.5625,11.5088,11.3136,11.2648,11.1916,10.9866,10.9329,10.928,10.928,10.928,10.928,10.928,10.928,10.928,10.928,10.928,10.928,10.928,10.928,10.928,10.928,10.928,10.928,10.928,10.928,10.928,10.928,10.928,10.928,10.928,11.0081,11.3454,11.9732,12.0513,12.4075,13.0235,13.0235,13.0235,5.8472,5.8569,5.9057,6.101,0.0,0.0,7.1508,7.3504,7.6384,8.5121,8.7756,8.9562,9.3174,9.5224,9.6395,9.6395,9.6395,9.6395,9.6395,9.8299,9.9665,9.9665,10.1569,10.2887,10.2887,10.2887,10.2887,10.2887,10.2887,10.2887,10.2887,10.2887,10.2887,10.2887,10.2887,10.3912,10.6059,10.6059,10.7133,10.928,10.928,10.928,10.928,10.928,10.928,10.928,10.928,10.928,10.928,10.928,10.9524,10.9915,10.9915,10.9915,10.9915,10.9915,10.9915,11.0012,11.0647,11.0745,11.0647,11.0793,11.0452,10.9915,10.9915,11.0696,11.1818,11.2892,11.3966,11.4893,11.5479,11.5625,11.5479,11.4893,11.4796,11.421,11.2014,11.1574,11.1135,10.9573,10.928,10.928,10.928,10.928,10.928,10.928,10.928,10.928,10.928,10.928,10.928,10.928,10.928,10.928,10.928,10.928,10.928,10.928,10.928,10.928,10.928,10.928,10.928,10.928,10.928,11.1617,11.6743,11.6743,12.0253,12.7225,12.9281,13.0235,5.7837,0.0,0.0,0.0,0.0,0.0,7.2775,7.5066,7.7848,8.4047,8.639,8.8537,9.2393,9.4931,9.6395,9.6395,9.6395,9.6395,9.6395,9.8299,9.9665,9.9665,10.1569,10.2887,10.2887,10.2887,10.2887,10.2887,10.2887,10.2887,10.2887,10.2887,10.2887,10.2887,10.2887,10.3912,10.6059,10.6059,10.7133,10.928,10.928,10.928,10.928,10.928,10.928,10.928,10.928,10.928,10.928,10.928,10.928,10.928,10.928,10.928,10.928,10.928,10.928,10.9378,11.0159,10.9915,10.9378,11.0159,10.9915,10.928,10.928,11.0012,11.1037,11.1867,11.2843,11.3868,11.46,11.4796,11.46,11.3868,11.3722,11.3185,11.1281,11.0647,11.0208,10.9427,10.928,10.928,10.928,10.928,10.928,10.928,10.928,10.928,10.928,10.928,10.928,10.928,10.928,10.928,10.928,10.928,10.928,10.928,10.928,10.928,10.928,10.928,10.928,10.928,10.928,11.0967,11.4498,11.4498,11.7677,12.3641,12.7168,12.9281,0.0,0.0,0.0,6.8859,6.9697,7.1946,8.3499,8.39,8.3374,8.8684,9.1466,9.293,9.3076,9.4931,9.6395,9.6395,9.6395,9.6395,9.6395,9.8299,9.9665,9.9665,10.1569,10.2887,10.2887,10.2887,10.2887,10.2887,10.2887,10.2887,10.2887,10.2887,10.2887,10.2887,10.2887,10.3912,10.6059,10.6059,10.7133,10.928,10.928,10.928,10.928,10.928,10.928,10.928,10.928,10.928,10.928,10.928,10.928,10.928,10.928,10.928,10.928,10.928,10.928,10.928,10.928,10.928,10.928,10.928,10.928,10.928,10.928,11.0012,11.0842,11.0891,11.1721,11.2599,11.2648,11.2648,11.2648,11.2599,11.2599,11.2258,11.1135,11.0061,10.928,10.928,10.928,10.928,10.928,10.928,10.928,10.928,10.928,10.928,10.928,10.928,10.928,10.928,10.928,10.928,10.928,10.928,10.928,10.928,10.928,10.928,10.928,10.928,10.928,10.928,10.928,11.0967,11.4498,11.4498,11.6341,11.9993,12.3514,12.6923,6.1302,6.275,6.4719,7.121,7.4725,7.7893,8.3363,8.5999,8.7805,8.966,9.1124,9.2344,9.2979,9.4345,9.5565,9.6298,9.6395,9.6395,9.6395,9.8299,9.9665,9.9665,10.1569,10.2887,10.2887,10.2887,10.2887,10.2887,10.2887,10.2887,10.2887,10.2887,10.2887,10.2887,10.2887,10.357,10.4936,10.6401,10.7474,10.8207,10.8939,10.928,10.928,10.928,10.928,10.928,10.928,10.928,10.928,10.928,10.928,10.928,10.928,10.928,10.928,10.928,10.928,10.928,10.928,10.928,10.928,10.928,10.928,10.928,10.928,10.9524,10.9964,11.0647,11.1135,11.1623,11.2355,11.255,11.2355,11.1623,11.1428,11.1135,11.0061,10.9524,10.928,10.928,10.928,10.928,10.928,10.928,10.928,10.928,10.928,10.928,10.928,10.928,10.928,10.928,10.928,10.928,10.928,10.928,10.928,10.928,10.928,10.928,10.928,10.928,10.928,10.928,10.928,10.9799,11.0967,11.0967,11.2816,11.6341,11.9863,12.3388,6.3157,6.4865,6.7159,7.4383,7.8873,8.229,8.5218,8.8,9.0001,9.0001,9.088,9.1905,9.293,9.3711,9.4687,9.6151,9.6395,9.6395,9.6395,9.8299,9.9665,9.9665,10.1569,10.2887,10.2887,10.2887,10.2887,10.2887,10.2887,10.2887,10.2887,10.2887,10.2887,10.2887,10.2887,10.3179,10.3814,10.601,10.7474,10.8255,10.8939,10.928,10.928,10.928,10.928,10.928,10.928,10.928,10.928,10.928,10.928,10.928,10.928,10.928,10.928,10.928,10.928,10.928,10.928,10.928,10.928,10.928,10.928,10.928,10.928,10.928,10.9427,11.011,11.0305,11.0452,11.1184,11.1379,11.1184,11.0452,11.0305,11.011,10.9427,10.928,10.928,10.928,10.928,10.928,10.928,10.928,10.928,10.928,10.928,10.928,10.928,10.928,10.928,10.928,10.928,10.928,10.928,10.928,10.928,10.928,10.928,10.928,10.928,10.928,10.928,10.928,10.928,10.928,10.928,10.928,11.1107,11.4498,11.6877,12.0383,6.3499,6.633,7.0039,7.8478,8.2192,8.4828,8.9074,9.0001,9.0001,9.0001,9.0831,9.1856,9.293,9.3125,9.3857,9.6053,9.6395,9.6395,9.6395,9.8299,9.9665,9.9665,10.1569,10.2887,10.2887,10.2887,10.2887,10.2887,10.2887,10.2887,10.2887,10.2887,10.2887,10.2887,10.2887,10.2887,10.2984,10.4985,10.7035,10.9183,10.9232,10.928,10.928,10.928,10.928,10.928,10.928,10.928,10.928,10.928,10.928,10.928,10.928,10.928,10.928,10.928,10.928,10.928,10.928,10.928,10.928,10.928,10.928,10.928,10.928,10.928,10.928,10.928,10.928,10.928,10.928,10.928,10.928,10.928,10.928,10.928,10.928,10.928,10.928,10.928,10.928,10.928,10.928,10.928,10.928,10.928,10.928,10.928,10.928,10.928,10.928,10.928,10.928,10.928,10.928,10.928,10.928,10.928,10.928,10.928,10.928,10.928,10.928,10.928,10.928,10.928,10.928,10.928,11.0967,11.4276,11.4362,11.8155,6.8233,7.2431,7.6384,8.3363,8.5511,8.6634,8.9416,9.0001,9.0001,9.0001,9.0245,9.0977,9.2783,9.3125,9.3857,9.6053,9.6395,9.6395,9.6395,9.8299,9.9665,9.9665,10.1569,10.2887,10.2887,10.2887,10.2887,10.2887,10.2887,10.2887,10.2887,10.2887,10.2887,10.2887,10.2887,10.3228,10.4009,10.4546,10.5913,10.806,10.889,10.928,10.928,10.928,10.928,10.928,10.928,10.928,10.928,10.928,10.928,10.928,10.928,10.928,10.928,10.928,10.928,10.928,10.928,10.928,10.928,10.928,10.928,10.928,10.928,10.928,10.928,10.928,10.928,10.928,10.928,10.928,10.928,10.928,10.928,10.928,10.928,10.928,10.928,10.928,10.928,10.928,10.928,10.928,10.928,10.928,10.928,10.928,10.928,10.928,10.928,10.928,10.928,10.928,10.928,10.928,10.928,10.928,10.928,10.928,10.928,10.928,10.928,10.928,10.928,10.928,10.928,10.928,10.9657,11.0596,11.3179,11.6877,6.7452,7.287,7.8678,8.5121,8.6731,8.7317,8.9513,9.0001,9.0001,9.0001,9.0001,9.0538,9.2149,9.2832,9.3711,9.5419,9.6102,9.6395,9.6395,9.7859,9.9128,9.9616,10.1178,10.235,10.2838,10.2887,10.2887,10.2887,10.2887,10.2887,10.2887,10.2887,10.2887,10.2887,10.2887,10.3131,10.3716,10.4644,10.5766,10.6986,10.8548,10.928,10.928,10.928,10.928,10.928,10.928,10.928,10.928,10.928,10.928,10.928,10.928,10.928,10.928,10.928,10.928,10.928,10.928,10.928,10.928,10.928,10.928,10.928,10.928,10.928,10.928,10.928,10.928,10.928,10.928,10.928,10.928,10.928,10.928,10.928,10.928,10.928,10.928,10.928,10.928,10.928,10.928,10.928,10.928,10.928,10.928,10.928,10.928,10.928,10.928,10.928,10.928,10.928,10.928,10.928,10.928,10.928,10.928,10.928,10.928,10.928,10.928,10.928,10.928,10.928,10.928,10.928,10.928,10.928,11.1247,11.4906,6.5744,7.1552,7.8824,8.4974,8.6634,8.7268,8.9318,8.9904,9.0001,9.0001,9.0001,9.0343,9.1298,9.2442,9.3515,9.4638,9.5712,9.6395,9.6395,9.7322,9.8396,9.9568,10.0641,10.1715,10.2789,10.2887,10.2887,10.2887,10.2887,10.2887,10.2887,10.2887,10.2887,10.2887,10.2887,10.2887,10.2887,10.4839,10.5913,10.6108,10.8109,10.9134,10.928,10.928,10.928,10.928,10.928,10.928,10.928,10.928,10.928,10.928,10.928,10.928,10.928,10.928,10.928,10.928,10.928,10.928,10.928,10.928,10.928,10.928,10.928,10.928,10.928,10.928,10.928,10.928,10.928,10.928,10.928,10.928,10.928,10.928,10.928,10.928,10.928,10.928,10.928,10.928,10.928,10.928,10.928,10.928,10.928,10.928,10.928,10.928,10.928,10.928,10.928,10.928,10.928,10.928,10.928,10.928,10.928,10.928,10.928,10.928,10.928,10.928,10.928,10.928,10.928,10.928,10.928,10.928,10.928,11.3092,7.326,7.6677,7.9605,8.4242,8.6097,8.7073,8.8391,8.9367,9.0001,9.0001,9.0001,9.0343,9.1298,9.2442,9.3515,9.4638,9.5712,9.6395,9.6395,9.7322,9.8396,9.9568,10.0641,10.1715,10.2789,10.2887,10.2887,10.2887,10.2887,10.2887,10.2887,10.2887,10.2887,10.2887,10.2887,10.2887,10.2887,10.4058,10.5132,10.6108,10.7328,10.8402,10.928,10.928,10.928,10.928,10.928,10.928,10.928,10.928,10.928,10.928,10.928,10.928,10.928,10.928,10.928,10.928,10.928,10.928,10.928,10.928,10.928,10.928,10.928,10.928,10.928,10.928,10.928,10.928,10.928,10.928,10.928,10.928,10.928,10.928,10.928,10.928,10.928,10.928,10.928,10.928,10.928,10.928,10.928,10.928,10.928,10.928,10.928,10.928,10.928,10.928,10.928,10.928,10.928,10.928,10.928,10.928,10.928,10.928,10.928,10.928,10.928,10.928,10.928,10.928,10.928,10.928,10.928,10.928,10.928,11.3092,7.0478,7.4529,7.8532,8.1167,8.4291,8.7024,8.8147,8.9269,9.0001,9.0001,9.0001,9.0197,9.0685,9.2051,9.332,9.3857,9.5321,9.6395,9.6395,9.6834,9.7811,9.947,10.0153,10.1081,10.274,10.2887,10.2887,10.2887,10.2887,10.2887,10.2887,10.2887,10.2887,10.2887,10.2887,10.2887,10.2887,10.3863,10.4936,10.6108,10.7133,10.8207,10.928,10.928,10.928,10.928,10.928,10.928,10.928,10.928,10.928,10.928,10.928,10.928,10.928,10.928,10.928,10.928,10.928,10.928,10.928,10.928,10.928,10.928,10.928,10.928,10.928,10.928,10.928,10.928,10.928,10.928,10.928,10.928,10.928,10.928,10.928,10.928,10.928,10.928,10.928,10.928,10.928,10.928,10.928,10.928,10.928,10.928,10.928,10.928,10.928,10.928,10.928,10.928,10.928,10.928,10.928,10.928,10.928,10.928,10.928,10.928,10.928,10.928,10.928,10.928,10.928,10.928,10.928,10.928,10.928,11.3092,6.8331,7.2821,7.7848,7.941,8.2436,8.556,8.761,8.8879,8.9757,8.9953,8.9855,8.9757,8.9953,9.1368,9.2588,9.3076,9.4784,9.6151,9.6346,9.6395,9.7225,9.9421,9.9665,10.0544,10.2691,10.2887,10.2887,10.2887,10.2887,10.2887,10.2887,10.2887,10.2887,10.2887,10.2887,10.2887,10.2887,10.3667,10.4595,10.5717,10.6791,10.7865,10.8939,10.8939,10.8939,10.8939,10.8939,10.9036,10.928,10.928,10.928,10.928,10.928,10.928,10.928,10.928,10.928,10.928,10.928,10.928,10.928,10.928,10.928,10.928,10.928,10.928,10.928,10.928,10.928,10.928,10.928,10.928,10.928,10.928,10.928,10.928,10.928,10.928,10.928,10.928,10.928,10.928,10.928,10.928,10.928,10.928,10.928,10.928,10.928,10.928,10.928,10.928,10.928,10.928,10.928,10.928,10.928,10.928,10.928,10.928,10.928,10.928,10.928,10.928,10.928,10.928,10.928,10.928,10.928,10.928,11.0032,11.3729,7.5359,7.736,7.9312,8.2339,8.1265,8.0777,8.5755,8.7756,8.883,8.9806,8.9269,8.8879,8.9855,9.0148,9.0929,9.2832,9.415,9.5273,9.6249,9.6395,9.7225,9.9421,9.9665,10.0544,10.2691,10.2887,10.2887,10.2887,10.2887,10.2887,10.2887,10.2887,10.2887,10.2887,10.2887,10.2887,10.2887,10.2984,10.3521,10.4546,10.5669,10.6791,10.7816,10.7816,10.7816,10.7816,10.7816,10.8353,10.928,10.928,10.928,10.928,10.928,10.928,10.928,10.928,10.928,10.928,10.928,10.928,10.928,10.928,10.928,10.928,10.928,10.928,10.928,10.928,10.928,10.928,10.928,10.928,10.928,10.928,10.928,10.928,10.928,10.928,10.928,10.928,10.928,10.928,10.928,10.928,10.928,10.928,10.928,10.928,10.928,10.928,10.928,10.928,10.928,10.928,10.928,10.928,10.928,10.928,10.928,10.928,10.928,10.928,10.928,10.928,10.928,10.928,10.928,10.928,10.928,10.928,11.2539,11.6072,6.8233,7.1064,7.4188,7.5505,7.8288,8.1411,8.4193,8.5169,8.6146,8.8586,8.922,8.9318,8.9074,9.0099,9.127,9.21,9.3662,9.5175,9.6249,9.6395,9.6981,9.8494,9.9275,10.0251,10.1764,10.2496,10.2887,10.2887,10.2887,10.2887,10.2887,10.2887,10.2887,10.2887,10.2887,10.2887,10.2887,10.2887,10.3375,10.44,10.4839,10.5278,10.5717,10.7084,10.767,10.7719,10.8353,10.889,10.928,10.928,10.928,10.928,10.928,10.928,10.928,10.928,10.928,10.928,10.928,10.928,10.928,10.928,10.928,10.928,10.928,10.928,10.928,10.928,10.928,10.928,10.928,10.928,10.928,10.928,10.928,10.928,10.928,10.928,10.928,10.928,10.928,10.928,10.928,10.928,10.928,10.928,10.928,10.928,10.928,10.928,10.928,10.928,10.928,10.928,10.928,10.928,10.928,10.928,10.928,10.928,10.928,10.928,10.928,10.928,10.928,10.928,10.928,10.928,10.928,10.928,11.2816,11.6341,6.4377,6.6867,6.999,7.0966,7.5164,7.9709,8.1655,8.2143,8.3217,8.7122,8.8537,8.8928,8.8488,8.9367,9.0372,9.1347,9.3125,9.4784,9.62,9.6395,9.6786,9.7859,9.8982,10.0105,10.1178,10.2252,10.2887,10.2887,10.2887,10.2887,10.2887,10.2887,10.2887,10.2887,10.2887,10.2887,10.2887,10.2887,10.3228,10.396,10.4253,10.44,10.4448,10.6352,10.7182,10.7279,10.8646,10.9085,10.8841,10.9134,10.928,10.928,10.928,10.928,10.928,10.928,10.928,10.928,10.928,10.928,10.928,10.928,10.928,10.928,10.928,10.928,10.928,10.928,10.928,10.928,10.928,10.928,10.928,10.928,10.928,10.928,10.928,10.928,10.928,10.928,10.928,10.928,10.928,10.928,10.928,10.928,10.928,10.928,10.928,10.928,10.928,10.928,10.928,10.928,10.928,10.928,10.928,10.928,10.928,10.928,10.928,10.928,10.928,10.928,10.928,10.928,10.928,10.928,10.928,10.928,11.2816,11.6341,6.7657,6.7501,6.8282,7.1454,7.2333,7.3504,7.7799,7.8824,8.0337,8.5657,8.678,8.7122,8.8195,8.7512,8.7854,9.0957,9.2491,9.3906,9.6102,9.6395,9.6786,9.7859,9.8982,10.0105,10.1178,10.2252,10.2887,10.2887,10.2887,10.2887,10.2887,10.2887,10.2887,10.2887,10.2887,10.2887,10.2887,10.2887,10.2887,10.2887,10.3912,10.44,10.44,10.5571,10.6108,10.6343,10.8353,10.8646,10.7767,10.8841,10.928,10.928,10.928,10.928,10.928,10.928,10.928,10.928,10.928,10.928,10.928,10.928,10.928,10.928,10.928,10.928,10.928,10.928,10.928,10.928,10.928,10.928,10.928,10.928,10.928,10.928,10.928,10.928,10.928,10.928,10.928,10.928,10.928,10.928,10.928,10.928,10.928,10.928,10.928,10.928,10.928,10.928,10.928,10.928,10.928,10.928,10.928,10.928,10.928,10.928,10.928,10.928,10.928,10.928,10.928,10.928,10.928,10.928,10.928,10.928,11.2816,11.6341,6.3157,6.4719,6.7013,6.9412,7.121,7.3407,7.7751,7.9898,8.1606,8.4047,8.4535,8.4877,8.5999,8.7707,8.9562,9.12,9.2491,9.3906,9.6102,9.6395,9.6542,9.6883,9.8543,9.9812,10.0153,10.1813,10.2887,10.2887,10.2887,10.2887,10.2887,10.2887,10.2887,10.2887,10.2887,10.2887,10.2887,10.2887,10.2887,10.2887,10.3179,10.3375,10.3375,10.4448,10.5327,10.6157,10.7572,10.8402,10.8792,10.9134,10.928,10.928,10.928,10.928,10.928,10.928,10.928,10.928,10.928,10.928,10.928,10.928,10.928,10.928,10.928,10.928,10.928,10.928,10.928,10.928,10.928,10.928,10.928,10.928,10.928,10.928,10.928,10.928,10.928,10.928,10.928,10.928,10.928,10.928,10.928,10.928,10.928,10.928,10.928,10.928,10.928,10.928,10.928,10.928,10.928,10.928,10.928,10.928,10.928,10.928,10.928,10.928,10.928,10.928,10.928,10.928,10.928,10.928,10.928,10.928,11.2816,11.6341,6.2523,6.4329,6.6525,6.9063,7.0088,7.1601,7.5945,7.7019,7.7751,8.0045,8.0826,8.1704,8.3608,8.6926,8.966,9.0294,9.1954,9.376,9.5565,9.6151,9.6395,9.6395,9.7957,9.9226,9.9665,10.1276,10.2447,10.2838,10.2887,10.2887,10.2887,10.2887,10.2887,10.2887,10.2887,10.2887,10.2887,10.2887,10.2887,10.2887,10.2887,10.2887,10.2935,10.3912,10.479,10.5522,10.7035,10.806,10.8695,10.9085,10.928,10.928,10.928,10.928,10.928,10.928,10.928,10.928,10.928,10.928,10.928,10.928,10.928,10.928,10.928,10.928,10.928,10.928,10.928,10.928,10.928,10.928,10.928,10.928,10.928,10.928,10.928,10.928,10.928,10.928,10.928,10.928,10.928,10.928,10.928,10.928,10.928,10.928,10.928,10.928,10.928,10.928,10.928,10.928,10.928,10.928,10.928,10.928,10.928,10.928,10.928,10.928,10.928,10.928,10.928,10.928,10.928,10.928,10.928,10.928,11.1477,11.5178,6.4475,6.5549,6.6525,6.9641,6.9209,6.9112,7.3114,7.1503,7.024,7.4285,7.5945,7.7653,8.0882,8.4925,8.8,8.8586,9.0977,9.3271,9.4638,9.5712,9.6395,9.6395,9.742,9.8543,9.9568,10.0641,10.1715,10.2789,10.2887,10.2887,10.2887,10.2887,10.2887,10.2887,10.2887,10.2887,10.2887,10.2887,10.2887,10.2887,10.2887,10.2887,10.2935,10.3863,10.4302,10.4497,10.6547,10.7523,10.7767,10.8743,10.9183,10.928,10.928,10.928,10.928,10.928,10.928,10.928,10.928,10.928,10.928,10.928,10.928,10.928,10.928,10.928,10.928,10.928,10.928,10.928,10.928,10.928,10.928,10.928,10.928,10.928,10.928,10.928,10.928,10.928,10.928,10.928,10.928,10.928,10.928,10.928,10.928,10.928,10.928,10.928,10.928,10.928,10.928,10.928,10.928,10.928,10.928,10.928,10.928,10.928,10.928,10.928,10.928,10.928,10.928,10.928,10.928,10.928,10.928,10.928,10.928,11.2954,5.9594,6.2181,6.5061,6.6622,7.0381,7.3944,7.492,7.2626,7.0381,7.0576,7.1454,7.2919,7.531,7.9312,8.4144,8.9953,9.0099,9.0733,9.4296,9.5712,9.6395,9.6395,9.8103,9.9372,9.9665,10.0641,10.1715,10.2789,10.2887,10.2887,10.2887,10.2887,10.2887,10.2887,10.2887,10.2887,10.2887,10.2887,10.2887,10.2887,10.2887,10.2887,10.2887,10.3131,10.3667,10.44,10.4936,10.6108,10.767,10.7963,10.8548,10.928,10.928,10.928,10.928,10.928,10.928,10.928,10.928,10.928,10.928,10.928,10.928,10.928,10.928,10.928,10.928,10.928,10.928,10.928,10.928,10.928,10.928,10.928,10.928,10.928,10.928,10.928,10.928,10.928,10.928,10.928,10.928,10.928,10.928,10.928,10.928,10.928,10.928,10.928,10.928,10.928,10.928,10.928,10.928,10.928,10.928,10.928,10.928,10.928,10.928,10.928,10.928,10.928,10.928,10.928,10.928,10.928,10.928,10.928,10.928,11.1617,5.9692,6.3206,6.6183,6.4768,6.8136,7.1454,6.9941,6.8233,6.6671,6.5598,6.6232,6.8233,7.2382,7.4285,7.7698,8.5853,8.7854,8.9416,9.2198,9.4784,9.659,9.7078,9.7762,9.8738,10.0251,10.0495,10.1227,10.2789,10.2887,10.2887,10.2887,10.2887,10.2887,10.2887,10.2887,10.2887,10.2887,10.2887,10.2887,10.2887,10.2887,10.2887,10.2887,10.2887,10.3179,10.3716,10.4204,10.5376,10.6986,10.7474,10.8304,10.928,10.928,10.928,10.928,10.928,10.928,10.928,10.928,10.928,10.928,10.928,10.928,10.928,10.928,10.928,10.928,10.928,10.928,10.928,10.928,10.928,10.928,10.928,10.928,10.928,10.928,10.928,10.928,10.928,10.928,10.928,10.928,10.928,10.928,10.928,10.928,10.928,10.928,10.928,10.928,10.928,10.928,10.928,10.928,10.928,10.928,10.928,10.928,10.928,10.928,10.928,10.928,10.928,10.928,10.928,10.928,10.928,10.928,10.928,10.928,11.1107,6.14,6.5463,6.8096,6.444,6.5463,6.6769,6.3987,6.2718,6.1888,6.0961,6.1498,6.3889,6.9502,6.9746,7.1361,7.858,8.39,8.7854,8.9757,9.3711,9.6737,9.7664,9.7127,9.7811,10.0739,10.0202,10.0593,10.274,10.2887,10.2887,10.2887,10.2887,10.2887,10.2887,10.2887,10.2887,10.2887,10.2887,10.2887,10.2887,10.2887,10.2887,10.2887,10.2887,10.2887,10.2935,10.3765,10.479,10.5864,10.6791,10.7914,10.9036,10.9036,10.9134,10.928,10.928,10.928,10.928,10.928,10.928,10.928,10.928,10.928,10.928,10.928,10.928,10.928,10.928,10.928,10.928,10.928,10.928,10.928,10.928,10.928,10.928,10.928,10.928,10.928,10.928,10.928,10.928,10.928,10.928,10.928,10.928,10.928,10.928,10.928,10.928,10.928,10.928,10.928,10.928,10.928,10.928,10.928,10.928,10.928,10.928,10.928,10.928,10.928,10.928,10.928,10.928,10.928,10.928,10.9183,10.9036,10.9036,11.048,5.9838,6.4342,6.8827,6.8193,6.7706,6.7267,6.6867,6.3255,5.9936,5.9789,5.9887,6.057,6.2376,6.6232,6.9168,6.9649,7.6384,8.3559,8.922,9.3711,9.6444,9.6639,9.7322,9.8347,9.9812,9.9763,10.0593,10.274,10.2887,10.2887,10.2887,10.2887,10.2887,10.2887,10.2887,10.2887,10.2887,10.2887,10.2887,10.2887,10.2887,10.2887,10.2887,10.2887,10.2887,10.2887,10.3033,10.3716,10.4644,10.4839,10.6108,10.7914,10.7914,10.8451,10.928,10.928,10.928,10.928,10.928,10.928,10.928,10.928,10.928,10.928,10.928,10.928,10.928,10.928,10.928,10.928,10.928,10.928,10.928,10.928,10.928,10.928,10.928,10.928,10.928,10.928,10.928,10.928,10.928,10.928,10.928,10.928,10.928,10.928,10.928,10.928,10.928,10.928,10.928,10.928,10.928,10.928,10.928,10.928,10.928,10.928,10.928,10.928,10.928,10.928,10.928,10.928,10.928,10.928,10.8792,10.7914,10.7914,10.7705,6.1058,6.4976,6.8876,6.8291,6.7754,6.7208,6.6037,6.3401,6.0863,5.9741,5.9057,5.9301,6.1498,6.345,6.589,6.9502,7.3407,7.8434,8.5511,9.1222,9.5273,9.7078,9.7176,9.7811,9.9519,9.9665,10.0349,10.191,10.2545,10.2887,10.2887,10.2887,10.2887,10.2887,10.2887,10.2887,10.2887,10.2887,10.2887,10.2887,10.2887,10.2887,10.2887,10.2887,10.2887,10.2887,10.2887,10.3472,10.44,10.44,10.5327,10.684,10.7426,10.7963,10.8451,10.9036,10.928,10.928,10.928,10.928,10.928,10.928,10.928,10.928,10.928,10.928,10.928,10.928,10.928,10.9134,10.8548,10.8841,10.9134,10.8548,10.8841,10.928,10.928,10.928,10.928,10.928,10.928,10.928,10.928,10.928,10.928,10.928,10.928,10.9085,10.8499,10.889,10.9036,10.8451,10.8939,10.928,10.928,10.928,10.928,10.928,10.928,10.928,10.928,10.928,10.928,10.928,10.928,10.8988,10.8402,10.8402,10.7865,10.6791,10.6791,10.7553,6.4377,0.0,6.9948,6.9209,6.8819,6.8038,0.0,6.4377,6.2718,6.0375,5.9008,5.9008,6.1449,6.14,6.306,6.9356,7.1259,7.4383,8.1411,8.7317,9.2295,9.6053,9.6005,9.6493,9.8689,9.9372,10.0105,10.1227,10.2301,10.2887,10.2887,10.2887,10.2887,10.2887,10.2887,10.2887,10.2887,10.2887,10.2887,10.2887,10.2887,10.2887,10.2887,10.2887,10.2887,10.2887,10.2887,10.3326,10.4009,10.4009,10.4692,10.5766,10.6596,10.7084,10.7426,10.8499,10.889,10.8939,10.9183,10.928,10.928,10.928,10.928,10.928,10.928,10.928,10.9232,10.8988,10.889,10.8646,10.7572,10.7914,10.8304,10.7474,10.7914,10.8499,10.8499,10.8499,10.8597,10.8841,10.8695,10.8597,10.8841,10.8695,10.8499,10.8499,10.8743,10.8597,10.7767,10.8597,10.8939,10.8109,10.8792,10.928,10.928,10.928,10.928,10.928,10.928,10.928,10.928,10.928,10.9134,10.889,10.889,10.8353,10.7279,10.7279,10.6742,10.5669,10.5669,10.7331,0.0,7.2528,7.3504,7.3456,7.2675,7.1357,6.9168,6.7159,0.0,6.1546,6.0082,5.9448,5.9692,6.0424,6.1888,6.4426,6.8273,7.2818,7.8336,8.2046,8.6194,9.1466,9.2832,9.4248,9.6444,9.8494,10.0105,10.1227,10.2301,10.2887,10.2887,10.2887,10.2887,10.2887,10.2887,10.2887,10.2887,10.2887,10.2887,10.2887,10.2887,10.2887,10.2887,10.2887,10.2887,10.2887,10.2887,10.2935,10.2984,10.2984,10.357,10.4497,10.4595,10.5278,10.6303,10.7377,10.7767,10.7914,10.8939,10.928,10.928,10.928,10.928,10.928,10.928,10.928,10.9085,10.806,10.7767,10.7523,10.645,10.6254,10.6254,10.6343,10.6254,10.6303,10.6303,10.6303,10.6596,10.7572,10.6986,10.6596,10.7621,10.6938,10.6303,10.6303,10.7133,10.7767,10.767,10.8597,10.9232,10.9183,10.9232,10.928,10.928,10.928,10.928,10.928,10.928,10.928,10.928,10.928,10.8792,10.7816,10.7767,10.723,10.6205,10.6205,10.562,10.4497,10.4497,10.5741,7.2821,7.409,7.4773,7.4041,7.3553,7.2528,6.9655,6.7452,6.4963,6.1693,5.9692,5.8716,5.9399,6.0326,6.262,6.755,7.0234,7.3553,7.8971,8.2534,8.5804,8.922,9.2881,9.5468,9.6346,9.8396,9.986,10.0251,10.191,10.2887,10.2887,10.2887,10.2887,10.2887,10.2887,10.2887,10.2887,10.2887,10.2887,10.2887,10.2887,10.2887,10.2887,10.2887,10.2887,10.2887,10.2887,10.2887,0.0,10.2887,10.3082,10.3521,10.4156,10.4644,10.5181,10.6254,10.6694,10.684,10.7914,10.8255,10.8402,10.9036,10.928,10.928,10.928,10.8792,10.8304,10.8597,10.8646,10.8402,10.7328,10.7572,10.7719,10.6401,10.6596,10.6889,10.6205,10.6059,10.6205,10.6596,10.6352,10.6205,10.6596,10.6889,10.7084,10.7084,10.7963,10.8402,10.7767,10.8597,10.8988,10.8353,10.889,10.928,10.928,10.928,10.928,10.928,10.928,10.8988,10.8304,10.8255,10.7767,10.6694,10.6694,10.645,10.6059,10.5376,10.4497,10.3472,10.3472,10.6081,7.4822,7.5505,7.5896,7.5115,7.492,7.3992,7.0429,6.8184,6.5793,6.1839,5.9643,5.8716,5.9789,6.057,6.306,6.9209,7.1406,7.4188,7.9502,8.3119,8.595,8.8147,9.2246,9.5029,9.5321,9.7664,9.9275,9.9665,10.1374,10.2545,10.2887,10.2887,10.2887,10.2887,10.2887,10.2887,10.2887,10.2887,10.2887,10.2887,10.2887,10.2887,10.2887,10.2887,10.2887,10.2887,10.2887,10.2887,10.2887,10.2887,10.2887,10.2935,10.3619,10.3912,10.4058,10.5132,10.5522,10.5669,10.6791,10.7182,10.7279,10.8011,10.8255,10.8304,10.8646,10.8011,10.7328,10.806,10.8011,10.7474,10.645,10.6694,10.6889,10.5425,10.562,10.5961,10.5229,10.5083,10.5181,10.5473,10.5278,10.5278,10.5961,10.6401,10.6645,10.6645,10.7865,10.8353,10.7279,10.8402,10.8988,10.8255,10.8841,10.9134,10.8792,10.8451,10.8255,10.8255,10.8255,10.7914,10.7182,10.7182,10.6645,10.5571,10.5522,10.5376,10.5083,10.4302,10.357,10.2887,10.2887,10.633,7.6872,7.7165,7.7165,7.7165,7.7165,7.6042,7.1743,6.9844,6.7462,6.2132,6.0229,5.9789,6.0814,6.1058,6.2815,6.8144,7.0918,7.4188,7.9502,8.3119,8.5999,8.8195,9.0343,9.2051,9.3076,9.6102,9.8445,9.9568,10.069,10.1764,10.2789,10.2887,10.2887,10.2887,10.2887,10.2887,10.2887,10.2887,10.2887,10.2887,10.2887,10.2887,10.2887,10.2887,10.2887,10.2887,10.2887,10.2887,10.2887,10.2887,10.2887,10.2887,10.2887,10.2887,10.2984,10.4009,10.4351,10.4546,10.5669,10.6059,10.6059,10.6059,10.6059,10.6254,10.7328,10.6889,10.6059,10.6059,10.5278,10.4156,10.3179,10.2935,10.2935,10.2887,10.2887,10.2887,10.2887,10.2887,10.3179,10.4156,10.357,10.357,10.5669,10.5132,10.44,10.44,10.6254,10.7279,10.6205,10.7914,10.9232,10.9232,10.9232,10.8792,10.7767,10.6694,10.6059,10.6059,10.6059,10.6059,10.6059,10.6059,10.5522,10.44,10.4351,10.3863,10.2887,10.2887,10.2887,10.2887,10.2887,10.633,7.7067,7.7165,7.7165,7.7165,7.7165,7.6042,7.1698,6.9307,6.6536,6.1986,6.0229,5.9789,6.0814,6.2279,6.4817,6.9453,7.2675,7.5945,7.9697,8.3754,8.7073,8.9269,9.1417,9.3418,9.5273,9.6298,9.7322,9.8396,10.0251,10.1422,10.1764,10.1764,10.1764,10.1764,10.2496,10.2887,10.2887,10.2887,10.2887,10.2887,10.2887,10.2887,10.2887,10.2887,10.2887,10.2887,10.2887,10.2887,10.2887,10.2887,10.2887,10.2887,10.2887,10.2887,10.2935,10.3228,10.3326,10.3472,10.4497,10.4888,10.5034,10.5815,10.6059,10.5961,10.5473,10.5132,10.5034,10.5864,10.5815,10.5522,10.5181,10.5132,10.4936,10.4107,10.3912,10.3765,10.3033,10.2887,10.2984,10.3277,10.3082,10.3082,10.3716,10.4156,10.44,10.44,10.562,10.6401,10.6108,10.7279,10.8158,10.8158,10.7474,10.6889,10.6547,10.6254,10.6059,10.6059,10.6059,10.5717,10.4936,10.4888,10.44,10.3375,10.3326,10.3179,10.2887,10.2887,10.2887,10.2887,10.2887,10.5074,7.7165,7.7165,7.7165,7.7165,7.7165,7.614,7.2235,6.9356,6.6378,6.2474,6.0522,5.9936,6.14,6.345,6.6622,7.1889,7.4969,7.8239,8.2231,8.6131,8.9318,9.1026,9.3125,9.4931,9.6249,9.6395,9.6688,9.7322,9.8982,9.9958,9.9958,10.0397,10.0837,10.1276,10.191,10.2447,10.2887,10.2887,10.2887,10.2887,10.2887,10.2887,10.2887,10.2887,10.2887,10.2887,10.2887,10.2887,10.2887,10.2887,10.2887,10.2887,10.2887,10.2887,10.2887,10.2887,10.2887,10.2984,10.357,10.3765,10.3912,10.4595,10.479,10.4692,10.4009,10.3765,10.3912,10.4595,10.479,10.479,10.479,10.479,10.4644,10.396,10.3765,10.3619,10.3033,10.2887,10.2887,10.2887,10.2887,10.3033,10.3423,10.4009,10.44,10.44,10.5327,10.5913,10.5473,10.6352,10.7035,10.7035,10.6059,10.5376,10.5376,10.5034,10.479,10.479,10.479,10.4497,10.3814,10.3765,10.3521,10.2887,10.2887,10.2887,10.2887,10.2887,10.2887,10.2887,10.2887,10.3854,7.7165,7.7165,7.7165,7.7165,7.7165,7.6286,7.3016,6.9941,6.6818,6.345,6.1254,6.0473,6.2279,6.4719,6.8428,7.4432,7.7604,8.107,8.6048,8.9446,9.2002,9.3027,9.498,9.6298,9.6395,9.6395,9.6395,9.6395,9.7322,9.7859,9.7859,9.8933,9.9958,10.0934,10.1178,10.1764,10.274,10.2838,10.2887,10.2887,10.2887,10.2887,10.2887,10.2887,10.2887,10.2887,10.2887,10.2887,10.2887,10.2887,10.2887,10.2887,10.2887,10.2887,10.2887,10.2887,10.2887,10.2887,10.2887,10.2887,10.2887,10.2887,10.2887,10.2887,10.2887,10.2887,10.2887,10.2887,10.2887,10.2887,10.2887,10.2887,10.2887,10.2887,10.2887,10.2887,10.2887,10.2887,10.2887,10.2887,10.2887,10.3179,10.4107,10.4253,10.4253,10.4253,10.5132,10.5425,10.44,10.5229,10.5864,10.5766,10.4839,10.4253,10.4253,10.3423,10.2887,10.2887,10.2887,10.2887,10.2887,10.2887,10.2887,10.2887,10.2887,10.2887,10.2887,10.2887,10.2887,10.2887,10.2887,10.3105,7.7165,7.7165,7.7165,7.7165,7.7165,7.6286,7.3016,7.1113,6.8868,6.4768,6.3596,6.3157,6.2718,6.7159,7.165,7.3895,7.9605,8.4486,8.6487,8.9446,9.2002,9.3027,9.4296,9.5468,9.6346,9.6395,9.6395,9.6395,9.6639,9.6737,9.6737,9.7762,9.8494,9.8689,10.0397,10.1422,10.1618,10.2447,10.2887,10.2887,10.2887,10.2887,10.2887,10.2887,10.2887,10.2887,10.2887,10.2887,10.2887,10.2887,10.2887,10.2887,10.2887,10.2887,10.2887,10.2887,10.2887,10.2887,10.2887,10.2887,10.2887,10.2887,10.2887,10.2887,10.2887,10.2887,10.2887,10.2887,10.2887,10.2887,10.2887,10.2887,10.2887,10.2887,10.2887,10.2887,10.2887,10.2887,10.2887,10.2887,10.2887,10.2935,10.3179,10.3179,10.3179,10.3179,10.3423,10.3472,10.3228,10.4107,10.4448,10.3667,10.3375,10.3179,10.3179,10.2984,10.2887,10.2887,10.2887,10.2887,10.2887,10.2887,10.2887,10.2887,10.2887,10.2887,10.2887,10.2887,10.2887,10.2887,10.2887,10.5598,7.7165,7.7165,7.7165,7.7165,7.7165,7.6726,7.5017,7.3358,7.1308,6.8126,6.6964,6.6134,6.4475,6.9502,7.4383,7.5945,8.1655,8.6487,8.8098,9.0245,9.1688,9.2344,9.3369,9.4443,9.5517,9.5663,9.5858,9.6346,9.6395,9.6395,9.6395,9.6932,9.7469,9.8006,9.9128,10.0202,10.1276,10.1862,10.2398,10.2887,10.2887,10.2887,10.2887,10.2887,10.2887,10.2887,10.2887,10.2887,10.2887,10.2887,10.2887,10.2887,10.2887,10.2887,10.2887,10.2887,10.2887,10.2887,10.2887,10.2887,10.2887,10.2887,10.2887,10.2887,10.2887,10.2887,10.2887,10.2887,10.2887,10.2887,10.2887,10.2887,10.2887,10.2887,10.2887,10.2887,10.2887,10.2887,10.2887,10.2887,10.2887,10.2887,10.2887,10.2887,10.2887,10.2887,10.2887,10.2887,10.2887,10.3326,10.3472,10.2935,10.2887,10.2887,10.2887,10.2887,10.2887,10.2887,10.2887,10.2887,10.2887,10.2887,10.2887,10.2887,10.2887,10.2887,10.2887,10.2887,10.2887,10.2887,10.4466,10.7057,7.7116,7.7165,7.7165,7.7165,7.7165,7.7116,7.6921,7.5603,7.3846,7.1792,7.0527,6.9217,6.7355,7.1991,7.6823,7.8971,8.3803,8.8,9.0001,9.1075,9.1493,9.1493,9.2344,9.3271,9.4394,9.4687,9.5175,9.6053,9.6151,9.6151,9.6151,9.6298,9.6786,9.7713,9.7713,9.8689,10.069,10.1081,10.1715,10.2594,10.2789,10.2887,10.2887,10.2887,10.2887,10.2887,10.2887,10.2887,10.2887,10.2887,10.2887,10.2887,10.2887,10.2887,10.2887,10.2887,10.2887,10.2887,10.2887,10.2887,10.2887,10.2887,10.2887,10.2887,10.2887,10.2887,10.2887,10.2887,10.2887,10.2887,10.2887,10.2887,10.2887,10.2887,10.2887,10.2887,10.2887,10.2887,10.2887,10.2887,10.2887,10.2887,10.2887,10.2887,10.2887,10.2887,10.2887,10.2887,10.2887,10.2887,10.2887,10.2887,10.2887,10.2887,10.2887,10.2887,10.2887,10.2887,10.2887,10.2887,10.2887,10.2887,10.2887,10.2887,10.2887,10.2887,10.2887,10.2887,10.2887,10.2887,10.615,10.7983,7.6921,7.7165,7.7165,7.7165,7.7165,7.6921,7.5994,7.6238,7.6091,7.3895,7.3358,7.287,7.165,7.5213,7.902,8.1273,8.6048,9.0001,9.1222,9.1514,9.1493,9.1493,9.1639,9.2198,9.3271,9.4248,9.4882,9.5029,9.5029,9.5029,9.5029,9.5907,9.6444,9.659,9.6639,9.7225,9.8445,10.0349,10.1374,10.152,10.2447,10.2887,10.2887,10.2887,10.2887,10.2887,10.2887,10.2887,10.2887,10.2887,10.2887,10.2887,10.2887,10.2887,10.2887,10.2887,10.2887,10.2887,10.2887,10.2887,10.2887,10.2887,10.2887,10.2887,10.2887,10.2887,10.2887,10.2887,10.2887,10.2887,10.2887,10.2887,10.2887,10.2887,10.2887,10.2887,10.2887,10.2887,10.2887,10.2887,10.2887,10.2887,10.2887,10.2887,10.2887,10.2887,10.2887,10.2887,10.2887,10.2887,10.2887,10.2887,10.2887,10.2887,10.2887,10.2887,10.2887,10.2887,10.2887,10.2887,10.2887,10.2887,10.2887,10.2887,10.2887,10.2887,10.2887,10.2887,10.2887,10.2887,10.615,10.9256,7.5798,7.6677,7.7165,7.7165,7.7165,7.7214,7.7311,7.7702,7.7604,7.6042,7.6189,7.5896,7.3602,7.7214,8.0679,8.1021,8.5072,8.8586,8.966,8.9806,9.005,9.0636,9.0733,9.1124,9.2198,9.2735,9.3271,9.3808,9.3857,9.415,9.4784,9.5273,9.5761,9.6395,9.6395,9.6639,9.7127,9.8689,9.9763,10.0397,10.0885,10.1422,10.2008,10.2008,10.2301,10.2887,10.2887,10.2887,10.2887,10.2887,10.2887,10.2887,10.2887,10.2887,10.2887,10.2887,10.2887,10.2887,10.2887,10.2887,10.2887,10.2887,10.2887,10.2887,10.2887,10.2887,10.2887,10.2887,10.2887,10.2887,10.2887,10.2887,10.2887,10.2887,10.2887,10.2887,10.2887,10.2887,10.2887,10.2887,10.2887,10.2887,10.2887,10.2887,10.2887,10.2887,10.2887,10.2887,10.2887,10.2887,10.2887,10.2887,10.2887,10.2887,10.2887,10.2887,10.2887,10.2887,10.2887,10.2887,10.2887,10.2887,10.2887,10.2887,10.2887,10.2887,10.2887,10.2887,10.3721,10.5679,10.9003,11.2329,7.4627,7.5701,7.6482,7.7019,7.7165,7.736,7.8141,7.858,7.8532,7.7751,7.819,7.8092,7.5945,7.8824,8.1558,8.1558,8.4486,8.7122,8.8293,8.8684,8.9025,8.9562,8.9855,9.0343,9.1124,9.1347,9.1807,9.2295,9.2588,9.3125,9.3955,9.4248,9.4882,9.5956,9.6005,9.6151,9.6395,9.7225,9.8152,9.9275,9.9568,10.0105,10.0885,10.0885,10.1325,10.2057,10.2057,10.2203,10.2496,10.2496,10.2643,10.2887,10.2887,10.2887,10.2887,10.2887,10.2887,10.2887,10.2887,10.2887,10.2887,10.2887,10.2887,10.2887,10.2887,10.2887,10.2887,10.2887,10.2887,10.2887,10.2887,10.2887,10.2887,10.2887,10.2887,10.2887,10.2887,10.2887,10.2887,10.2887,10.2887,10.2887,10.2887,10.2887,10.2887,10.2887,10.2887,10.2887,10.2887,10.2887,10.2887,10.2887,10.2887,10.2887,10.2887,10.2887,10.2887,10.2887,10.2887,10.2887,10.2887,10.2887,10.2887,10.2887,10.2887,10.2887,10.2887,10.2887,10.4466,10.7727,11.1089,11.4461,7.3651,7.3992,7.4529,7.6628,7.7165,7.7165,7.7214,7.8043,7.8727,7.8678,7.8727,7.902,7.9745,8.0135,8.1411,8.4437,8.595,8.7122,8.8293,8.9318,8.9562,8.8635,8.9416,9.005,9.0099,9.1026,9.1222,9.0245,9.1124,9.159,9.1807,9.2686,9.3711,9.4833,9.4882,9.537,9.6395,9.6444,9.703,9.8103,9.9177,9.9714,9.9763,9.9763,9.9812,9.986,9.986,10.0397,10.1374,10.1374,10.1959,10.2887,10.2887,10.2887,10.2887,10.2887,10.2887,10.2887,10.2887,10.2887,10.2887,10.2887,10.2887,10.2887,10.2887,10.2887,10.2887,10.2887,10.2887,10.2887,10.2887,10.2887,10.2887,10.2887,10.2887,10.2887,10.2887,10.2887,10.2887,10.2887,10.2887,10.2887,10.2887,10.2887,10.2887,10.2887,10.2887,10.2887,10.2887,10.2887,10.2887,10.2887,10.2887,10.2887,10.2887,10.2887,10.2887,10.2887,10.2887,10.2887,10.2887,10.2887,10.2887,10.2887,10.2887,10.2887,10.2887,10.2887,10.4466,10.7727,11.1089,11.4461,7.409,7.4432,7.4383,7.6628,7.7165,7.7165,7.7165,7.7458,7.7751,7.7751,7.8288,7.9068,8.0038,8.0923,8.1997,8.3803,8.4437,8.5072,8.6146,8.6634,8.7268,8.8293,8.8781,8.9269,8.9953,8.9757,8.9708,9.0001,9.0392,9.088,9.1444,9.1954,9.2637,9.3711,9.3711,9.4248,9.537,9.537,9.5907,9.6981,9.7371,9.7957,9.8591,9.8591,9.8982,9.9665,9.9665,9.9909,10.0251,10.0251,10.0495,10.0837,10.0837,10.1227,10.1862,10.1862,10.2301,10.2691,10.1325,10.0837,10.0837,10.0837,10.0837,10.0983,10.1666,10.1862,10.2008,10.2691,10.2887,10.2887,10.2887,10.2887,10.2887,10.2887,10.2887,10.2887,10.2887,10.2887,10.2887,10.2887,10.2887,10.2887,10.2887,10.2887,10.2887,10.2887,10.2887,10.2887,10.2887,10.2887,10.2887,10.2887,10.2887,10.2887,10.2887,10.2887,10.2887,10.2887,10.2887,10.2887,10.2887,10.2887,10.2887,10.2887,10.2887,10.2887,10.2887,10.2887,10.5598,11.1017,11.2136,11.5665,7.2382,7.3065,7.37,7.5164,7.6335,7.7165,7.7165,7.7165,7.7165,7.7165,7.7702,7.8532,7.9502,8.0386,8.1362,8.2885,8.313,8.3363,8.4437,8.4925,8.5706,8.7122,8.7659,8.8293,8.9367,8.8488,8.8293,8.9416,8.9464,8.9953,9.1026,9.1075,9.1563,9.2588,9.2637,9.3125,9.4248,9.4248,9.4784,9.5858,9.5858,9.6444,9.7469,9.7469,9.7859,9.8591,9.8591,9.8787,9.9128,9.9128,9.9324,9.9665,9.9665,10.0105,10.0739,10.0739,10.1227,10.1618,10.0202,9.9665,9.9665,9.9665,9.9665,9.9812,10.0544,10.0739,10.0885,10.1618,10.1813,10.1813,10.1813,10.1813,10.1813,10.1813,10.2106,10.235,10.235,10.2643,10.2887,10.2887,10.2887,10.2887,10.2887,10.2887,10.2887,10.2887,10.2887,10.2887,10.2887,10.2887,10.2887,10.2887,10.2887,10.2887,10.2887,10.2887,10.2887,10.2887,10.2887,10.2887,10.2887,10.2887,10.2691,10.235,10.235,10.2636,10.3244,10.3244,10.6649,11.3142,11.3142,11.6038,6.8575,6.9941,7.2235,7.2284,7.4676,7.7067,7.7019,7.7019,7.7067,7.7165,7.7165,7.7458,7.858,7.8776,7.9459,8.1664,8.2006,8.2397,8.3363,8.4388,8.5072,8.5121,8.6048,8.7122,8.8195,8.7317,8.717,8.8293,8.8391,8.883,8.9904,8.9953,9.0489,9.1444,9.1444,9.2051,9.3076,9.3076,9.3662,9.4736,9.4736,9.5321,9.6298,9.6298,9.6346,9.6346,9.6395,9.6981,9.7957,9.7957,9.8591,9.9568,9.9568,9.9616,9.9616,9.9616,9.9568,9.9568,9.9568,9.9568,9.9568,9.9568,9.9568,9.9568,9.9616,9.9616,9.9616,9.9665,9.9665,9.9665,9.9665,9.9665,9.9665,9.9665,10.0495,10.1227,10.1227,10.2057,10.2789,10.2789,10.2789,10.2838,10.2838,10.2887,10.2887,10.2887,10.2838,10.2789,10.2789,10.2789,10.2789,10.2838,10.2789,10.2789,10.2838,10.2789,10.2789,10.2789,10.2789,10.2789,10.2789,10.2789,10.2301,10.1276,10.1227,10.2153,10.4143,10.4143,10.7475,11.3696,11.3696,11.5506,7.2919,7.2235,7.1401,7.2089,7.3553,7.4578,7.3797,7.4236,7.5213,7.6823,7.7165,7.7458,7.858,7.8776,7.9215,8.0581,8.0777,8.1167,8.2348,8.2739,8.3412,8.4974,8.5413,8.5706,8.5999,8.5755,8.6048,8.7122,8.7219,8.7707,8.8781,8.8879,8.9367,9.0441,9.0489,9.0977,9.2002,9.2051,9.2539,9.3613,9.3613,9.376,9.4052,9.4052,9.4492,9.5273,9.6053,9.6542,9.6834,9.6834,9.703,9.7322,9.7322,9.7811,9.8396,9.7615,9.7322,9.7322,9.7322,9.7322,9.7322,9.7322,9.7322,9.7469,9.825,9.8494,9.864,9.947,9.9665,9.9665,9.9665,9.9665,9.9665,9.9665,9.9909,10.0105,10.0105,10.0349,10.0544,10.0544,10.1178,10.1715,10.1715,10.235,10.2887,10.2887,10.1569,10.0544,10.0544,10.0544,10.0885,10.1618,10.1032,10.0885,10.1666,10.1032,10.0544,10.0544,10.0544,10.0544,10.0544,10.0544,10.0397,10.0105,10.0105,10.1538,10.4143,10.4143,10.7475,11.3696,11.3696,11.5506,7.0521,6.8859,6.71,6.8664,6.9063,7.0088,7.3553,7.3407,7.3407,7.653,7.7165,7.736,7.7995,7.8092,7.8434,7.9508,7.9703,8.0045,8.1118,8.1265,8.1899,8.3608,8.3803,8.3803,8.3803,8.4193,8.4925,8.5999,8.6097,8.6536,8.7659,8.7707,8.8195,8.9318,8.9367,8.9855,9.0929,9.0977,9.1466,9.2491,9.2491,9.2735,9.3125,9.3125,9.3467,9.415,9.4736,9.5029,9.5029,9.5029,9.5321,9.5761,9.5761,9.6395,9.7127,9.5614,9.5029,9.5029,9.5029,9.5029,9.5029,9.5029,9.5029,9.5175,9.5761,9.5956,9.62,9.7322,9.7664,9.7762,9.8201,9.8299,9.8299,9.8299,9.864,9.8982,9.8982,9.9324,9.9665,9.9665,10.0202,10.0593,10.0593,10.1129,10.152,10.152,10.0495,9.9665,9.9665,9.9665,9.9909,10.0544,10.0056,9.9958,10.0544,10.0056,9.9665,9.9665,9.9665,9.9665,9.9665,9.9665,9.947,9.8982,10.0291,10.1955,10.405,10.5783,10.8677,11.2606,11.3628,11.4669,6.345,6.1986,6.1254,6.2962,6.2718,6.4377,0.0,7.2138,7.0765,7.5017,7.5896,7.6042,7.653,7.6628,7.7067,7.8336,7.858,7.8971,7.994,8.0087,8.0533,8.1566,8.1712,8.1761,8.1859,8.2836,8.3754,8.473,8.4925,8.5413,8.6487,8.6585,8.7073,8.8195,8.8244,8.8732,8.9855,8.9855,9.0392,9.1347,9.1347,9.1905,9.2783,9.2783,9.2832,9.2979,9.2979,9.3027,9.3125,9.3125,9.3711,9.4638,9.4638,9.5175,9.5809,9.3857,9.3125,9.3125,9.3125,9.3125,9.3125,9.3125,9.3125,9.3125,9.3125,9.3125,9.332,9.4345,9.4638,9.4833,9.5809,9.6053,9.6053,9.62,9.6932,9.7664,9.7811,9.8591,9.9324,9.9324,9.9421,9.9519,9.9519,9.9616,9.9616,9.9372,9.9324,9.9324,9.9324,9.9324,9.9324,9.9324,9.9421,9.947,9.9324,9.9226,9.908,9.8933,9.8933,9.8933,9.8933,9.8933,9.8494,9.7469,10.0522,10.2545,10.3565,10.7847,11.0176,11.104,11.3367,11.3076,0.0,0.0,0.0,0.0,0.0,0.0,0.0,6.1693,6.2913,6.7208,6.8087,6.9112,7.2577,7.3212,7.4139,7.7019,7.7458,7.7848,7.8922,7.9068,7.9166,7.9361,7.9361,7.9703,8.0581,8.1606,8.2446,8.2641,8.3363,8.434,8.5413,8.5462,8.595,8.7024,8.7073,8.761,8.8732,8.8732,8.9269,9.0343,9.0343,9.0441,9.0636,9.0636,9.1075,9.1905,9.1905,9.2393,9.3125,9.3125,9.3271,9.3467,9.3467,9.3564,9.3711,9.3271,9.3125,9.3125,9.3125,9.3125,9.3125,9.3125,9.3125,9.3125,9.3125,9.3125,9.3174,9.3369,9.3467,9.3515,9.3711,9.376,9.4004,9.4882,9.5273,9.5663,9.6542,9.6883,9.703,9.703,9.7713,9.8299,9.8299,9.908,9.908,9.7322,9.703,9.703,9.703,9.703,9.703,9.703,9.7811,9.8006,9.7127,9.6249,9.537,9.4443,9.4394,9.4394,9.4394,9.4394,9.4296,9.4101,9.7042,9.9787,10.239,10.5583,10.8475,11.0982,11.1506,11.04,0.0,0.0,0.0,0.0,0.0,0.0,0.0,0.0,0.0,0.0,0.0,6.5061,6.7794,0.0,7.2187,7.4383,7.6091,7.736,7.7897,7.7946,7.7946,7.7946,7.8434,7.8971,7.9404,8.0533,8.1167,8.1167,8.2143,8.3081,8.351,8.4047,8.4828,8.5901,8.595,8.6487,8.7561,8.7561,8.7854,8.8391,8.8391,8.8391,8.8391,8.8976,8.9513,9.005,9.0587,9.1124,9.1563,9.1563,9.1905,9.2198,9.0587,8.9953,8.9953,8.9953,8.9953,8.9953,8.9953,8.9953,8.9953,8.9953,8.9953,9.005,9.0587,9.0782,9.0977,9.2051,9.2393,9.2491,9.2979,9.3125,9.3271,9.3808,9.3955,9.4101,9.4638,9.4784,9.4784,9.4784,9.5175,9.5761,9.6298,9.6395,9.6053,9.4931,9.4784,9.4784,9.4784,9.4784,9.4394,9.332,9.3711,9.3808,9.3271,9.2735,9.2637,9.3076,9.3125,9.3125,9.3125,9.3125,9.3125,9.3125,9.6992,9.9328,10.024,10.4743,10.6963,10.7201,10.7201,10.6503,0.0,0.0,0.0,0.0,0.0,0.0,0.0,0.0,0.0,0.0,0.0,0.0,0.0,0.0,0.0,7.1698,7.4871,7.7165,7.7165,7.7165,7.7165,7.7165,7.7946,7.8434,7.8434,7.941,7.994,7.994,8.1021,8.1761,8.1761,8.2436,8.3412,8.4486,8.4535,8.5121,8.6438,8.6438,8.6536,8.6731,8.6731,0.0,8.678,8.7659,8.8098,8.8147,8.9025,8.9367,8.9367,8.9367,8.9904,9.0274,8.7756,8.6731,8.6731,8.6731,8.6731,8.6731,8.6731,8.6731,8.6731,8.6731,8.6731,8.6926,8.7805,8.8098,0.0,9.0197,9.0685,9.0929,9.1954,9.2198,9.2295,9.2735,9.2832,9.2881,9.3076,9.3125,9.3125,9.3125,9.3125,9.3418,9.4296,9.3369,9.2539,9.2539,9.2881,9.2979,9.2588,9.2881,9.2491,9.0782,9.0636,9.0636,9.0636,8.9855,9.0294,9.2393,9.1758,9.1173,9.0977,9.0977,9.0977,9.0977,9.5781,9.8095,9.7719,10.3655,10.5456,10.3304,10.0338,9.9756,0.0,0.0,0.0,0.0,0.0,0.0,0.0,0.0,0.0,0.0,0.0,0.0,0.0,0.0,0.0,0.0,7.4383,7.7165,7.7165,7.7165,7.7165,7.7165,7.7263,7.736,7.736,7.8336,7.8922,7.8922,7.9843,8.0428,8.0428,8.0525,0.0,0.0,0.0,8.3374,8.5316,8.5316,8.5804,8.6731,8.6731,8.6731,8.6731,8.6878,8.6926,8.6926,8.7073,8.7122,8.7122,8.7122,8.717,8.7268,8.6878,8.6731,8.6731,8.6731,8.6731,8.6731,8.6731,0.0,0.0,8.6731,8.6731,8.678,8.6878,8.6926,8.6975,8.7219,8.7268,8.7561,8.8684,8.8976,8.9416,9.1319,9.1807,9.2051,9.293,9.3125,9.3125,9.3125,9.3125,9.3174,9.3271,9.1661,9.0343,9.0343,9.1954,9.2442,9.0587,9.2002,9.3027,9.2783,9.2783,0.0,9.2783,8.9318,8.8049,9.0245,8.6731,8.4193,8.3325,8.3325,8.3325,8.3325,8.8596,9.2658,9.5463,10.1088,10.3653,10.3071,8.9402,8.6668,0.0,0.0,0.0,0.0,0.0,0.0,0.0,0.0,0.0,0.0,0.0,0.0,0.0,0.0,0.0,0.0,7.0668,7.3407,7.3456,7.5066,7.6433,7.7067,7.7165,7.7165,7.7165,7.7555,7.7848,7.7848,7.8824,7.941,7.941,7.994,8.0477,8.1021,8.1021,8.146,8.2339,8.2339,8.2475,8.2914,8.2914,8.2914,8.2963,8.3656,8.3949,8.3998,8.4633,8.4877,8.4925,8.556,8.5804,8.5609,0.0,0.0,0.0,0.0,8.2914,8.2914,8.2914,8.2914,8.3119,8.3754,8.3949,8.4193,8.5413,8.5804,8.595,8.6585,8.6731,8.6829,8.7317,8.7463,8.7659,8.8586,8.8781,8.8928,8.9318,8.9416,8.9416,8.9416,8.9416,0.0,8.9416,8.8684,8.8098,8.8098,8.883,8.9123,8.8244,8.8879,8.8928,8.7707,8.7561,8.7561,8.7561,8.5901,0.0,0.0,0.0,8.5218,8.473,8.473,0.0,0.0,0.0,8.7103,8.8469,8.8801,0.0,0.0,8.3876,8.2771,0.0,0.0,0.0,0.0,0.0,0.0,0.0,0.0,0.0,0.0,0.0,0.0,0.0,0.0,0.0,0.0,6.5988,6.9356,6.9405,7.1943,7.409,7.4871,7.5994,7.6482,7.5896,7.6628,7.7165,7.7165,7.7897,7.8336,7.8336,7.9068,7.9605,7.9794,7.9843,7.994,8.0233,8.0233,8.0233,8.0233,8.0233,8.0233,8.0282,8.1167,8.1509,8.1558,8.2339,8.268,8.2729,8.351,8.3803,8.3608,8.1159,8.0233,8.0233,8.0233,8.0233,8.0233,8.0233,8.0233,8.0379,8.1265,8.1509,8.1802,8.3363,8.3803,8.3998,8.4779,8.4864,8.5072,8.5365,8.5413,8.556,8.6146,8.6292,8.639,8.6682,8.6731,8.6731,8.6731,8.5804,8.5072,8.5365,8.5657,8.5755,8.5462,8.6194,8.6536,8.595,8.639,8.6146,8.4584,8.4437,8.4437,8.4437,8.3608,8.3998,8.6146,8.5218,8.4828,8.5413,8.4291,8.4508,8.618,8.5092,8.3992,0.0,0.0,0.0,0.0,0.0,0.0,0.0,0.0,0.0,0.0,0.0,0.0,0.0,0.0,0.0,0.0,0.0,0.0,0.0,0.0,0.0,0.0,0.0,0.0,6.6037,6.794,6.9217,6.9265,7.3065,7.4773,7.2626,7.531,7.7165,7.7165,7.7214,7.7214,7.7214,7.7263,7.7751,7.8776,7.8824,7.9312,8.0233,8.0233,8.0233,8.0233,8.0233,8.0233,8.0233,8.0282,8.0282,8.0282,8.033,8.033,8.033,8.0379,8.0379,8.0379,8.0282,8.0233,8.0233,8.0233,8.0233,8.0233,8.0233,8.0233,8.0233,8.0282,8.0282,8.033,8.0379,8.0379,8.0379,8.0428,8.0428,8.0777,8.1908,8.2201,8.2739,8.4681,8.5169,8.5462,8.6536,8.6731,8.6731,8.6731,8.3304,8.0874,8.2006,8.3081,8.3266,8.2348,8.473,0.0,8.39,8.5462,8.6731,8.6634,8.6634,8.6634,8.6634,8.3803,8.3032,8.5072,8.1314,7.9947,8.2103,7.8194,7.7072,7.9607,8.4334,8.4674,8.0382,0.0,0.0,0.0,0.0,0.0,0.0,0.0,0.0,0.0,0.0,0.0,0.0,0.0,0.0,0.0,0.0,0.0,0.0,0.0,0.0,0.0,0.0,0.0,0.0,6.4914,6.8193,6.8924,7.1015,7.1596,6.9307,7.204,7.3944,7.3944,7.5945,7.7165,7.7165,7.7165,7.7311,7.7702,7.7702,7.7897,7.8239,7.8239,7.8239,7.8239,7.8239,7.8239,7.8239,7.8239,7.8239,7.8239,7.8239,7.8239,7.8288,7.902,7.8873,7.8239,7.8239,7.8239,7.8239,7.8239,7.8239,7.8239,7.8239,7.8239,7.8336,7.9068,7.9312,7.941,8.0038,8.0233,8.0233,8.0233,8.0233,8.033,8.0777,8.0874,8.107,8.1802,8.1841,8.1939,8.2329,8.2426,8.2426,8.2426,8.1257,7.9801,7.7995,7.9801,8.0581,7.8194,8.0435,8.2134,8.1509,8.1939,8.2426,8.2426,8.2426,8.2426,8.2426,8.1509,8.1216,8.1948,8.0525,8.0038,8.0874,7.9508,7.9899,8.2342,8.5009,8.2267,7.3985,0.0,0.0,0.0,0.0,0.0,0.0,0.0,0.0,0.0,0.0,0.0,0.0,0.0,0.0,0.0,0.0,0.0,0.0,0.0,0.0,0.0,0.0,0.0,0.0,0.0,0.0,6.7257,6.7989,0.0,6.5939,6.7257,6.8428,6.8819,7.1162,7.3065,7.4236,7.5017,7.5798,7.6579,7.697,7.7165,7.7165,7.7165,7.7165,7.7165,7.7165,7.7165,7.7165,7.7165,7.7165,7.7165,7.7165,7.7165,7.7165,7.7067,7.614,7.4822,7.4822,7.4383,7.3797,7.4578,7.5115,7.5554,7.6335,7.6823,7.7263,7.7946,7.7165,7.5994,7.6677,7.6091,7.5457,7.6579,7.7165,7.7751,7.8922,7.9215,7.9312,7.9599,7.9697,7.9794,8.0184,8.0233,8.0038,7.9258,7.9215,7.8043,7.4432,7.5847,7.6774,7.4676,7.6482,7.8527,8.0038,8.0233,8.0233,8.0233,8.0233,8.0233,8.0233,8.0233,8.0233,8.0233,7.9892,7.9697,7.9697,8.0184,8.0753,8.1354,8.2377,7.8819,0.0,0.0,0.0,0.0,0.0,0.0,0.0,0.0,0.0,0.0,0.0,0.0,0.0,0.0,0.0,0.0,0.0,0.0,0.0,0.0,0.0,0.0,0.0,0.0,0.0,0.0,0.0,6.3938,6.3938,0.0,0.0,0.0,0.0,6.2083,6.3352,6.5402,6.8437,7.0674,7.287,7.5164,7.6238,7.6823,7.697,7.697,7.697,7.697,7.697,7.697,7.697,7.697,7.697,7.697,7.697,7.697,7.6823,7.4578,7.2382,7.057,7.0423,6.9014,6.7403,6.9551,7.1107,7.2187,7.4626,7.5994,7.6823,7.6628,7.3797,7.0472,7.0228,6.8029,0.0,0.0,7.1107,7.2626,7.5896,7.6823,7.7214,7.8336,7.8629,7.8971,7.9892,8.0087,7.9508,7.7116,7.6677,7.5213,7.0765,0.0,7.1698,7.1601,7.2723,7.5164,7.9307,7.9989,8.0087,8.0087,8.0087,8.0087,8.0087,8.0087,8.0087,8.0087,7.9318,7.878,7.8678,7.9843,7.926,7.6606,7.6326,0.0,0.0,0.0,0.0,0.0,0.0,0.0,0.0,0.0,0.0,0.0,0.0,0.0,0.0,0.0,0.0,0.0,0.0,0.0,0.0,0.0,0.0,0.0,0.0,0.0,0.0,5.4616,5.7691,6.0424,5.9301,5.7251,0.0,0.0,0.0,0.0,0.0,0.0,6.3011,6.4377,6.6818,7.0625,7.0923,7.219,7.4676,7.4725,7.4725,7.4725,7.4725,7.4725,7.4725,7.4725,7.4725,7.4725,7.4725,7.4725,7.4481,7.1459,6.946,6.8087,6.5646,6.384,6.2913,6.5109,6.6171,6.6953,7.0716,7.2183,7.2036,6.9551,6.8038,6.6378,6.2376,0.0,0.0,0.0,0.0,6.7062,7.024,7.2333,7.3992,7.5945,7.697,7.7653,7.7897,7.7995,7.6384,7.1015,6.999,6.755,6.0033,6.1595,0.0,6.1791,6.6574,7.1215,7.3992,7.6482,7.7995,7.7995,7.7995,7.7995,7.7995,7.7995,7.7995,7.7995,7.9405,7.9552,7.7656,7.6907,7.5776,7.4078,0.0,0.0,0.0,0.0,0.0,0.0,0.0,0.0,0.0,0.0,0.0,0.0,0.0,0.0,0.0,0.0,0.0,0.0,0.0,0.0,0.0,0.0,0.0,0.0,0.0,0.0,0.0,5.1102,5.4811,5.7105,5.4545,5.2175,0.0,0.0,0.0,0.0,0.0,0.0,0.0,0.0,0.0,6.4001,6.5061,6.6671,6.8916,7.082,7.1796,7.1703,7.3212,7.3895,7.3895,7.3895,7.3895,7.3895,7.3895,7.2284,6.9502,6.7208,6.444,6.1644,0.0,0.0,0.0,0.0,5.9036,5.9838,6.3206,6.467,6.4719,6.2425,0.0,0.0,0.0,0.0,0.0,0.0,0.0,6.3596,6.6867,7.0332,7.3309,7.4529,7.531,7.5701,7.5701,7.2382,6.8331,6.4719,6.3596,6.1156,5.4372,5.5273,0.0,0.0,0.0,6.7013,7.1064,7.4822,7.7165,7.7165,7.7165,7.7165,7.7165,7.6726,7.6433,7.6433,7.7268,7.6604,7.3956,7.3035,7.0649,0.0,0.0,0.0,0.0,0.0,0.0,0.0,0.0,0.0,0.0,0.0,0.0,0.0,0.0,0.0,0.0,0.0,0.0,0.0,0.0,0.0,0.0,0.0,0.0,0.0,0.0,0.0,0.0,0.0,5.2273,5.364,0.0,0.0,0.0,0.0,0.0,0.0,0.0,0.0,0.0,0.0,0.0,0.0,0.0,6.018,6.1546,6.522,6.7169,6.7364,7.0381,7.1796,7.1796,7.1943,7.2138,7.2382,7.1796,0.0,6.3938,6.1937,0.0,0.0,0.0,0.0,0.0,0.0,0.0,0.0,0.0,0.0,0.0,0.0,0.0,0.0,0.0,0.0,0.0,0.0,0.0,0.0,0.0,0.0,7.204,7.2138,7.2528,7.2577,7.1552,6.4768,5.8667,5.7935,5.7056,5.4957,0.0,0.0,0.0,0.0,0.0,0.0,6.9153,7.3846,7.6726,7.6726,7.6726,7.6726,7.6726,7.5847,7.5359,7.5359,7.4178,7.2208,6.9266,6.9178,0.0,0.0,0.0,0.0,0.0,0.0,0.0,0.0,0.0,0.0,0.0,0.0,0.0,0.0,0.0,0.0,0.0,0.0,0.0,0.0,0.0,0.0,0.0,0.0,0.0,0.0,0.0,0.0,0.0,0.0,0.0,0.0,0.0,0.0,0.0,0.0,0.0,0.0,0.0,0.0,0.0,0.0,0.0,0.0,0.0,0.0,0.0,0.0,0.0,0.0,5.9985,6.0717,6.0717,6.1595,6.2962,6.4377,6.0784,6.0668,6.2425,5.6104,0.0,0.0,0.0,0.0,0.0,0.0,0.0,0.0,0.0,0.0,0.0,0.0,0.0,0.0,0.0,0.0,0.0,0.0,0.0,0.0,0.0,0.0,6.223,6.306,6.5305,6.5598,5.935,0.0,0.0,0.0,0.0,0.0,0.0,0.0,0.0,0.0,0.0,0.0,6.4901,7.0722,7.4432,7.4432,7.4432,7.4432,7.4432,7.4285,7.4188,7.4188,7.2627,7.0159,0.0,0.0,0.0,0.0,0.0,0.0,0.0,0.0,0.0,0.0,0.0,0.0,0.0,0.0,0.0,0.0,0.0,0.0,0.0,0.0,0.0,0.0,0.0,0.0,0.0,0.0,0.0,0.0,0.0,0.0,0.0,0.0,0.0,0.0,0.0,0.0,0.0,0.0,0.0,0.0,0.0,0.0,0.0,0.0,0.0,0.0,0.0,0.0,0.0,0.0,0.0,0.0,0.0,0.0,0.0,0.0,0.0,0.0,5.435,5.1474,0.0,0.0,0.0,0.0,0.0,0.0,0.0,0.0,0.0,0.0,0.0,0.0,0.0,0.0,0.0,0.0,0.0,0.0,0.0,0.0,0.0,0.0,0.0,0.0,0.0,0.0,0.0,0.0,0.0,0.0,0.0,0.0,0.0,0.0,0.0,0.0,0.0,0.0,0.0,0.0,6.2035,6.9209,7.3895,7.3895,7.3895,7.3895,7.3895,7.3857,7.2681,6.9946,6.8374,0.0,0.0,0.0,0.0,0.0,0.0,0.0,0.0,0.0,0.0,0.0,0.0,0.0,0.0,0.0,0.0,0.0,0.0,0.0,0.0,0.0,0.0,0.0,0.0,0.0,0.0,0.0,0.0,0.0,0.0,0.0,0.0,0.0,0.0,0.0,0.0,0.0,0.0,0.0,0.0,0.0,0.0,0.0,0.0,0.0,0.0,0.0,0.0,0.0,0.0,0.0,0.0,0.0,0.0,0.0,0.0,0.0,0.0,0.0,4.8598,4.3724,0.0,0.0,0.0,0.0,0.0,0.0,0.0,0.0,0.0,0.0,0.0,0.0,0.0,0.0,0.0,0.0,0.0,0.0,0.0,0.0,0.0,0.0,0.0,0.0,0.0,0.0,0.0,0.0,0.0,0.0,0.0,0.0,0.0,0.0,0.0,0.0,0.0,0.0,0.0,0.0,5.9789,6.7452,7.2528,7.2528,7.2528,7.2717,7.3137,7.3145,7.1169,6.6355,6.4049,0.0,0.0,0.0,0.0,0.0,0.0,0.0,0.0,0.0,0.0,0.0,0.0,0.0,0.0,0.0,0.0,0.0,0.0,0.0,0.0,0.0,0.0,0.0,0.0,0.0,0.0,0.0,0.0,0.0,0.0,0.0,0.0,0.0,0.0,0.0,0.0,0.0,0.0,0.0,0.0,0.0,0.0,0.0,0.0,0.0,0.0,0.0,0.0,0.0,0.0,0.0,0.0,0.0,0.0,0.0,0.0,0.0,0.0,0.0,0.0,0.0,0.0,0.0,0.0,0.0,0.0,0.0,0.0,0.0,0.0,0.0,0.0,0.0,0.0,0.0,0.0,0.0,0.0,0.0,0.0,0.0,0.0,0.0,0.0,0.0,0.0,0.0,0.0,0.0,0.0,0.0,0.0,0.0,0.0,0.0,0.0,0.0,0.0,0.0,0.0,0.0,5.7642,6.3987,6.8087,6.8087,6.8087,6.8831,7.0725,7.0862,6.9509,6.6257,0.0,0.0,0.0,0.0,0.0,0.0,0.0,0.0,0.0,0.0,0.0,0.0,0.0,0.0,0.0,0.0,0.0,0.0,0.0,0.0,0.0,0.0,0.0,0.0,0.0,0.0,0.0,0.0,0.0,0.0,0.0,0.0,0.0,0.0,0.0,0.0,0.0,0.0,0.0,0.0,0.0,0.0,0.0,0.0,0.0,0.0,0.0,0.0,0.0,0.0,0.0,0.0,0.0,0.0,0.0,0.0,0.0,0.0,0.0,0.0,0.0,0.0,0.0,0.0,0.0,0.0,0.0,0.0,0.0,0.0,0.0,0.0,0.0,0.0,0.0,0.0,0.0,0.0,0.0,0.0,0.0,0.0,0.0,0.0,0.0,0.0,0.0,0.0,0.0,0.0,0.0,0.0,0.0,0.0,0.0,0.0,0.0,0.0,0.0,0.0,0.0,0.0,5.6324,6.3108,6.7413,6.7413,6.8536,6.9689,7.0487,7.158,6.939,6.2741,0.0,0.0,0.0,0.0,0.0,0.0,0.0,0.0,0.0,0.0,0.0,0.0,0.0,0.0,0.0,0.0,0.0,0.0,0.0,0.0,0.0,0.0,0.0,0.0,0.0,0.0,0.0,0.0,0.0,0.0,0.0,0.0,0.0,0.0,0.0,0.0,0.0,0.0,0.0,0.0,0.0,0.0,0.0,0.0,0.0,0.0,0.0,0.0,0.0,0.0,0.0,0.0,0.0,0.0,0.0,0.0,0.0,0.0,0.0,0.0,0.0,0.0,0.0,0.0,0.0,0.0,0.0,0.0,0.0,0.0,0.0,0.0,0.0,0.0,0.0,0.0,0.0,0.0,0.0,0.0,0.0,0.0,0.0,0.0,0.0,0.0,0.0,0.0,0.0,0.0,0.0,0.0,0.0,0.0,0.0,0.0,0.0,0.0,0.0,0.0,0.0,0.0,5.4323,6.1107,6.5719,6.6312,6.772,6.9067,7.028,7.1532,6.8678,6.0245,0.0,0.0,0.0,0.0,0.0,0.0,0.0,0.0,0.0,0.0,0.0,0.0,0.0,0.0,0.0,0.0,0.0,0.0,0.0,0.0,0.0,0.0,0.0,0.0,0.0,0.0,0.0,0.0,0.0,0.0,0.0,0.0,0.0,0.0,0.0,0.0,0.0,0.0,0.0,0.0,0.0,0.0,0.0,0.0,0.0,0.0,0.0,0.0,0.0,0.0,0.0,0.0,0.0,0.0,0.0,0.0,0.0,0.0,0.0,0.0,0.0,0.0,0.0,0.0,0.0,0.0,0.0,0.0,0.0,0.0,0.0,0.0,0.0,0.0,0.0,0.0,0.0,0.0,0.0,0.0,0.0,0.0,0.0,0.0,0.0,0.0,0.0,0.0,0.0,0.0,0.0,0.0,0.0,0.0,0.0,0.0,0.0,0.0,0.0,0.0,0.0,0.0,5.1119,5.7179,6.1849,6.3562,6.3791,6.5455,6.9431,6.9782,6.682,0.0,0.0,0.0,0.0,0.0,0.0,0.0,0.0,0.0,0.0,0.0,0.0,0.0,0.0,0.0,0.0,0.0,0.0,0.0,0.0,0.0,0.0,0.0,0.0,0.0,0.0,0.0,0.0,0.0,0.0,0.0,0.0,0.0,0.0,0.0,0.0,0.0,0.0,0.0,0.0,0.0,0.0,0.0,0.0,0.0,0.0,0.0,0.0,0.0,0.0,0.0,0.0,0.0,0.0,0.0,0.0,0.0,0.0,0.0,0.0,0.0,0.0,0.0,0.0,0.0,0.0,0.0,0.0,0.0,0.0,0.0,0.0,0.0,0.0,0.0,0.0,0.0,0.0,0.0,0.0,0.0,0.0,0.0,0.0,0.0,0.0,0.0,0.0,0.0,0.0,0.0,0.0,0.0,0.0,0.0,0.0,0.0,0.0,0.0,0.0,0.0,0.0,0.0,5.0777,5.6312,6.0771,6.3485,6.624,6.8398,6.9656,7.029,6.7313,5.9741,0.0,0.0,0.0,0.0,0.0,0.0,0.0,0.0,0.0,0.0,0.0,0.0,0.0,0.0,0.0,0.0,0.0,0.0,0.0,0.0,0.0,0.0,0.0,0.0,0.0,0.0,0.0,0.0,0.0,0.0,0.0,0.0,0.0,0.0,0.0,0.0,0.0,0.0,0.0,0.0,0.0,0.0,0.0,0.0,0.0,0.0,0.0,0.0,0.0,0.0,0.0,0.0,0.0,0.0,0.0,0.0,0.0,0.0,0.0,0.0,0.0,0.0,0.0,0.0,0.0,0.0,0.0,0.0,0.0,0.0,0.0,0.0,0.0,0.0,0.0,0.0,0.0,0.0,0.0,0.0,0.0,0.0,0.0,0.0,0.0,0.0,0.0,0.0,0.0,0.0,0.0,0.0,0.0,0.0,0.0,0.0,0.0,0.0,0.0,0.0,0.0,0.0,0.0,5.5222,5.9975,6.3243,6.5897,6.7916,6.9395,6.9964,6.6892,5.9097,0.0,0.0,0.0,0.0,0.0,0.0,0.0,0.0,0.0,0.0,0.0,0.0,0.0,0.0,0.0,0.0,0.0,0.0,0.0,0.0,0.0,0.0,0.0,0.0,0.0,0.0,0.0,0.0,0.0,0.0,0.0,0.0,0.0,0.0,0.0,0.0,0.0,0.0,0.0,0.0,0.0,0.0,0.0,0.0,0.0,0.0,0.0,0.0,0.0,0.0,0.0,0.0,0.0,0.0,0.0,0.0,0.0,0.0,0.0,0.0,0.0,0.0,0.0,0.0,0.0,0.0,0.0,0.0,0.0,0.0,0.0,0.0,0.0,0.0,0.0,0.0,0.0,0.0,0.0,0.0,0.0,0.0,0.0,0.0,0.0,0.0,0.0,0.0,0.0,0.0,0.0,0.0,0.0,0.0,0.0,0.0,0.0,0.0,0.0,0.0,0.0,0.0,0.0,5.4249,5.9561,6.3148,6.3632,6.5182,6.8732,6.9044,6.5728,5.8045,5.5076,0.0,0.0,0.0,0.0,0.0,0.0,0.0,0.0,0.0,0.0,0.0,0.0,0.0,0.0,0.0,0.0,0.0,0.0,0.0,0.0,0.0,0.0,0.0,0.0,0.0,0.0,0.0,0.0,0.0,0.0,0.0,0.0,0.0,0.0,0.0,0.0,0.0,0.0,0.0,0.0,0.0,0.0,0.0,0.0,0.0,0.0,0.0,0.0,0.0,0.0,0.0,0.0,0.0,0.0,0.0,0.0,0.0,0.0,0.0,0.0,0.0,0.0,0.0,0.0,0.0,0.0,0.0,0.0,0.0,0.0,0.0,0.0,0.0,0.0,0.0,0.0,0.0,0.0,0.0,0.0,0.0,0.0,0.0,0.0,0.0,0.0,0.0,0.0,0.0,0.0,0.0,0.0,0.0,0.0,0.0,0.0,0.0,0.0,0.0,0.0,0.0,0.0,5.7883,6.189,6.5107,6.682,6.8036,6.8923,6.9044,6.5728,5.8045,5.5076,0.0,0.0,0.0,0.0,0.0,0.0,0.0,0.0,0.0,0.0,0.0,0.0,0.0,0.0,0.0,0.0,0.0,0.0,0.0,0.0,0.0,0.0,0.0,0.0,0.0,0.0,0.0,0.0,0.0,0.0,0.0,0.0,0.0,0.0,0.0,0.0,0.0,0.0,0.0,0.0,0.0,0.0,0.0,0.0,0.0,0.0,0.0,0.0,0.0,0.0,0.0,0.0,0.0,0.0,0.0,0.0,0.0,0.0,0.0,0.0,0.0,0.0,0.0,0.0,0.0,0.0,0.0,0.0,0.0,0.0,0.0,0.0,0.0,0.0,0.0,0.0,0.0,0.0,0.0,0.0,0.0,0.0,0.0,0.0,0.0,0.0,0.0,0.0,0.0,0.0,0.0,0.0,0.0,0.0,0.0,0.0,0.0,0.0,0.0,0.0,0.0,0.0,5.3677,5.9008,6.5378,6.7081,6.8036,6.8923,6.9044,6.5728,5.8045,5.4552,0.0,0.0,0.0,0.0,0.0,0.0,0.0,0.0,0.0,0.0,0.0,0.0,0.0,0.0,0.0,0.0,0.0,0.0,0.0,0.0,0.0,0.0,0.0,0.0,0.0,0.0,0.0,0.0,0.0,0.0,0.0,0.0,0.0,0.0,0.0,0.0,0.0,0.0,0.0,0.0,0.0,0.0,0.0,0.0,0.0,0.0,0.0,0.0,0.0,0.0,0.0,0.0,0.0,0.0,0.0,0.0,0.0,0.0,0.0,0.0,0.0,0.0,0.0,0.0,0.0,0.0,0.0,0.0,0.0,0.0,0.0,0.0,0.0,0.0,0.0,0.0,0.0,0.0,0.0,0.0,0.0,0.0,0.0,0.0,0.0,0.0,0.0,0.0,0.0,0.0,0.0,0.0,0.0,0.0,0.0,0.0,0.0,0.0,0.0,0.0,0.0,0.0,0.0,5.5479,6.4412,6.6051,6.7211,6.8859,6.8811,6.5496,5.8045,0.0,0.0,0.0,0.0,0.0,0.0,0.0,0.0,0.0,0.0,0.0,0.0,0.0,0.0,0.0,0.0,0.0,0.0,0.0,0.0,0.0,0.0,0.0,0.0,0.0,0.0,0.0,0.0,0.0,0.0,0.0,0.0,0.0,0.0,0.0,0.0,0.0,0.0,0.0,0.0,0.0,0.0,0.0,0.0,0.0,0.0,0.0,0.0,0.0,0.0,0.0,0.0,0.0,0.0,0.0,0.0,0.0,0.0,0.0,0.0,0.0,0.0,0.0,0.0,0.0,0.0,0.0,0.0,0.0,0.0,0.0,0.0,0.0,0.0,0.0,0.0,0.0,0.0,0.0,0.0,0.0,0.0,0.0,0.0,0.0,0.0,0.0,0.0,0.0,0.0,0.0,0.0,0.0,0.0,0.0,0.0,0.0,0.0,0.0,0.0,0.0,0.0,0.0,0.0,5.851,6.1607,6.5941,6.8669,6.9044,6.7997,6.4566,5.7987,0.0,0.0,0.0,0.0,0.0,0.0,0.0,0.0,0.0,0.0,0.0,0.0,0.0,0.0]}]]]